<?xml version='1.0' encoding='UTF-8'?><gpx version="1.1" creator="JPX - https://github.com/jenetics/jpx" xmlns="http://www.topografix.com/GPX/1/1"><trk><trkseg><trkpt lat="44.14355318704084" lon="10.313291693387972"><ele>840.9999999999999</ele><time>2026-05-03T13:10:32.999Z</time></trkpt><trkpt lat="44.14353431586553" lon="10.313191440160454"><ele>841.0</ele><time>2026-05-03T13:10:36.999Z</time></trkpt><trkpt lat="44.14349813874892" lon="10.313306694861083"><ele>841.0</ele><time>2026-05-03T13:14:30.999Z</time></trkpt><trkpt lat="44.143554459530336" lon="10.31324791869759"><ele>841.0</ele><time>2026-05-03T13:15:45Z</time></trkpt><trkpt lat="44.1436168717035" lon="10.31319354037099"><ele>840.9999999999999</ele><time>2026-05-03T13:15:47Z</time></trkpt><trkpt lat="44.143666051233396" lon="10.313102917462494"><ele>841.0</ele><time>2026-05-03T13:15:49Z</time></trkpt><trkpt lat="44.143708382240035" lon="10.31299359572008"><ele>845.5999999999999</ele><time>2026-05-03T13:15:51Z</time></trkpt><trkpt lat="44.14376061396941" lon="10.31286694930221"><ele>850.2</ele><time>2026-05-03T13:15:53Z</time></trkpt><trkpt lat="44.14383745690911" lon="10.312740788970462"><ele>854.8000000000001</ele><time>2026-05-03T13:15:55Z</time></trkpt><trkpt lat="44.14388797339356" lon="10.312648672625844"><ele>859.4000000000001</ele><time>2026-05-03T13:15:57Z</time></trkpt><trkpt lat="44.143938943638844" lon="10.312507967949763"><ele>864.0</ele><time>2026-05-03T13:15:59Z</time></trkpt><trkpt lat="44.14398141875258" lon="10.31242491951992"><ele>864.0</ele><time>2026-05-03T13:16:00Z</time></trkpt><trkpt lat="44.14398801255026" lon="10.31229463881795"><ele>864.0000000000001</ele><time>2026-05-03T13:16:02Z</time></trkpt><trkpt lat="44.14405035602715" lon="10.312182478617165"><ele>864.0000000000001</ele><time>2026-05-03T13:16:04Z</time></trkpt><trkpt lat="44.14414854303111" lon="10.31205934118844"><ele>864.0</ele><time>2026-05-03T13:16:06Z</time></trkpt><trkpt lat="44.14420229361738" lon="10.312004926439785"><ele>864.0</ele><time>2026-05-03T13:16:07Z</time></trkpt><trkpt lat="44.14427946014663" lon="10.311863408980045"><ele>870.0</ele><time>2026-05-03T13:16:09Z</time></trkpt><trkpt lat="44.144311701722955" lon="10.311725777956617"><ele>876.0</ele><time>2026-05-03T13:16:11Z</time></trkpt><trkpt lat="44.14431879194541" lon="10.311617173836702"><ele>882.0</ele><time>2026-05-03T13:16:13Z</time></trkpt><trkpt lat="44.144367419529516" lon="10.311549248455943"><ele>888.0</ele><time>2026-05-03T13:16:14Z</time></trkpt><trkpt lat="44.144429363848694" lon="10.311473629338407"><ele>894.0</ele><time>2026-05-03T13:16:15Z</time></trkpt><trkpt lat="44.1444950012144" lon="10.311376395690111"><ele>900.0</ele><time>2026-05-03T13:16:16Z</time></trkpt><trkpt lat="44.14454962647013" lon="10.311263551902414"><ele>905.0</ele><time>2026-05-03T13:16:17Z</time></trkpt><trkpt lat="44.144589503733854" lon="10.311103095821347"><ele>910.0</ele><time>2026-05-03T13:16:19Z</time></trkpt><trkpt lat="44.14463573666235" lon="10.310975639864607"><ele>915.0</ele><time>2026-05-03T13:16:20Z</time></trkpt><trkpt lat="44.14466696535844" lon="10.310844700380885"><ele>920.0</ele><time>2026-05-03T13:16:21Z</time></trkpt><trkpt lat="44.14473847569591" lon="10.310801987631919"><ele>925.0</ele><time>2026-05-03T13:16:22Z</time></trkpt><trkpt lat="44.14479330506878" lon="10.310751784347138"><ele>925.0</ele><time>2026-05-03T13:16:27Z</time></trkpt><trkpt lat="44.14472428275366" lon="10.310771407441528"><ele>925.0</ele><time>2026-05-03T13:17:07.999Z</time></trkpt><trkpt lat="44.14467039817834" lon="10.310844668716951"><ele>925.0</ele><time>2026-05-03T13:17:09.999Z</time></trkpt><trkpt lat="44.14461256560434" lon="10.310908364228567"><ele>925.0</ele><time>2026-05-03T13:17:11.999Z</time></trkpt><trkpt lat="44.144533752315155" lon="10.310937353935609"><ele>925.0</ele><time>2026-05-03T13:17:13.999Z</time></trkpt><trkpt lat="44.14446478785382" lon="10.31097186996696"><ele>925.0</ele><time>2026-05-03T13:17:18.999Z</time></trkpt><trkpt lat="44.14439733334859" lon="10.310968471200438"><ele>925.0</ele><time>2026-05-03T13:17:21.999Z</time></trkpt><trkpt lat="44.14440411268665" lon="10.31086836578263"><ele>924.9999999999999</ele><time>2026-05-03T13:17:29.999Z</time></trkpt><trkpt lat="44.144444085569226" lon="10.310743030522838"><ele>925.0</ele><time>2026-05-03T13:17:32.999Z</time></trkpt><trkpt lat="44.14449480933987" lon="10.310652671068766"><ele>925.0</ele><time>2026-05-03T13:17:37Z</time></trkpt><trkpt lat="44.14449626697047" lon="10.310532050064229"><ele>925.0</ele><time>2026-05-03T13:18:09Z</time></trkpt><trkpt lat="44.14454796332527" lon="10.310441770302129"><ele>924.9999999999999</ele><time>2026-05-03T13:18:43.999Z</time></trkpt><trkpt lat="44.144620072957004" lon="10.31034666249973"><ele>925.0</ele><time>2026-05-03T13:18:46.999Z</time></trkpt><trkpt lat="44.14468201679294" lon="10.310309496026845"><ele>929.9999999999999</ele><time>2026-05-03T13:18:48.999Z</time></trkpt><trkpt lat="44.14474296639224" lon="10.310245330995043"><ele>935.0</ele><time>2026-05-03T13:18:51.999Z</time></trkpt><trkpt lat="44.1448235091549" lon="10.310195644344521"><ele>940.0</ele><time>2026-05-03T13:18:53.999Z</time></trkpt><trkpt lat="44.14490061248304" lon="10.310148309643088"><ele>945.0</ele><time>2026-05-03T13:18:55.999Z</time></trkpt><trkpt lat="44.14488824108617" lon="10.310061302638132"><ele>949.9999999999999</ele><time>2026-05-03T13:18:59.999Z</time></trkpt><trkpt lat="44.144821028185106" lon="10.31002837559563"><ele>955.0</ele><time>2026-05-03T13:19:04.999Z</time></trkpt><trkpt lat="44.144864881069964" lon="10.309955349871476"><ele>954.9999999999999</ele><time>2026-05-03T13:19:13.999Z</time></trkpt><trkpt lat="44.14487957732897" lon="10.309864806852948"><ele>955.0</ele><time>2026-05-03T13:19:16.999Z</time></trkpt><trkpt lat="44.14490165873688" lon="10.309953399550679"><ele>954.9999999999999</ele><time>2026-05-03T13:19:36.999Z</time></trkpt><trkpt lat="44.144967924061454" lon="10.310035591162146"><ele>954.9999999999999</ele><time>2026-05-03T13:19:53Z</time></trkpt><trkpt lat="44.14490162274688" lon="10.309989812984387"><ele>955.0</ele><time>2026-05-03T13:20:34Z</time></trkpt><trkpt lat="44.14483479205238" lon="10.309999111313108"><ele>954.9999999999999</ele><time>2026-05-03T13:20:39Z</time></trkpt><trkpt lat="44.14487687523666" lon="10.309924913251109"><ele>954.9999999999999</ele><time>2026-05-03T13:22:06Z</time></trkpt><trkpt lat="44.14490200833728" lon="10.30984118058242"><ele>963.0</ele><time>2026-05-03T13:22:23Z</time></trkpt><trkpt lat="44.144942328527726" lon="10.309701219506913"><ele>971.0</ele><time>2026-05-03T13:22:49Z</time></trkpt><trkpt lat="44.144970025374604" lon="10.309564957321692"><ele>979.0</ele><time>2026-05-03T13:22:50.999Z</time></trkpt><trkpt lat="44.14500485377535" lon="10.309437044914088"><ele>987.0</ele><time>2026-05-03T13:22:53.999Z</time></trkpt><trkpt lat="44.14503235637305" lon="10.30931766610246"><ele>995.0</ele><time>2026-05-03T13:22:56.999Z</time></trkpt><trkpt lat="44.145093872323166" lon="10.30923034759371"><ele>995.0000000000001</ele><time>2026-05-03T13:23:00.999Z</time></trkpt><trkpt lat="44.14516606474508" lon="10.309217814767129"><ele>995.0</ele><time>2026-05-03T13:23:04.999Z</time></trkpt><trkpt lat="44.14521116311855" lon="10.309150282640621"><ele>995.0</ele><time>2026-05-03T13:23:06.999Z</time></trkpt><trkpt lat="44.14526565252964" lon="10.309037022378257"><ele>995.0</ele><time>2026-05-03T13:23:23.999Z</time></trkpt><trkpt lat="44.145240203112046" lon="10.309128724816555"><ele>995.0000000000001</ele><time>2026-05-03T13:23:58Z</time></trkpt><trkpt lat="44.145170074798074" lon="10.30918296345261"><ele>995.0</ele><time>2026-05-03T13:24:02Z</time></trkpt><trkpt lat="44.14513008696449" lon="10.309254719970644"><ele>995.0</ele><time>2026-05-03T13:24:12Z</time></trkpt><trkpt lat="44.14511047126627" lon="10.309343003906903"><ele>995.0</ele><time>2026-05-03T13:24:39Z</time></trkpt><trkpt lat="44.14503905123619" lon="10.309394221017564"><ele>995.0</ele><time>2026-05-03T13:25:15.999Z</time></trkpt><trkpt lat="44.14503674769276" lon="10.309290714111125"><ele>995.0</ele><time>2026-05-03T13:26:19Z</time></trkpt><trkpt lat="44.145111277063876" lon="10.309266063252728"><ele>995.0</ele><time>2026-05-03T13:26:41Z</time></trkpt><trkpt lat="44.14515976242867" lon="10.309201987967223"><ele>995.0</ele><time>2026-05-03T13:27:06.999Z</time></trkpt><trkpt lat="44.14521797140724" lon="10.309142516346599"><ele>995.0</ele><time>2026-05-03T13:27:18.999Z</time></trkpt><trkpt lat="44.145237982750416" lon="10.309028034521853"><ele>995.0</ele><time>2026-05-03T13:28:15Z</time></trkpt><trkpt lat="44.1452417834262" lon="10.309117053235722"><ele>995.0</ele><time>2026-05-03T13:28:51Z</time></trkpt><trkpt lat="44.145176793067066" lon="10.309200570968594"><ele>995.0</ele><time>2026-05-03T13:29:03Z</time></trkpt><trkpt lat="44.1451622310159" lon="10.309299079956464"><ele>995.0</ele><time>2026-05-03T13:29:08Z</time></trkpt><trkpt lat="44.14508893734838" lon="10.30929227382949"><ele>995.0</ele><time>2026-05-03T13:29:21.999Z</time></trkpt><trkpt lat="44.145076599566636" lon="10.309390450242462"><ele>995.0</ele><time>2026-05-03T13:30:41Z</time></trkpt><trkpt lat="44.14505095713882" lon="10.309291810783355"><ele>995.0</ele><time>2026-05-03T13:31:08Z</time></trkpt><trkpt lat="44.145109509319525" lon="10.30925752569601"><ele>995.0000000000001</ele><time>2026-05-03T13:31:54.999Z</time></trkpt><trkpt lat="44.14516780615747" lon="10.309221009258009"><ele>995.0</ele><time>2026-05-03T13:32:03.999Z</time></trkpt><trkpt lat="44.145203837468486" lon="10.309135816919078"><ele>995.0</ele><time>2026-05-03T13:33:30.999Z</time></trkpt><trkpt lat="44.14523666203568" lon="10.309030703621906"><ele>995.0</ele><time>2026-05-03T13:34:54Z</time></trkpt><trkpt lat="44.145266912725" lon="10.308902401529286"><ele>995.0000000000001</ele><time>2026-05-03T13:38:13.999Z</time></trkpt><trkpt lat="44.14526683567604" lon="10.308993750288902"><ele>995.0</ele><time>2026-05-03T13:42:09.999Z</time></trkpt><trkpt lat="44.14533798755587" lon="10.308971358253396"><ele>995.0000000000001</ele><time>2026-05-03T13:45:26Z</time></trkpt><trkpt lat="44.14540319278064" lon="10.308916484823982"><ele>995.0</ele><time>2026-05-03T13:45:29Z</time></trkpt><trkpt lat="44.14550653728719" lon="10.30881708004844"><ele>995.0</ele><time>2026-05-03T13:46:13.999Z</time></trkpt><trkpt lat="44.145569624614545" lon="10.30883795775001"><ele>995.0</ele><time>2026-05-03T13:46:17.999Z</time></trkpt><trkpt lat="44.1456509908348" lon="10.308827395886155"><ele>995.0000000000001</ele><time>2026-05-03T13:46:19.999Z</time></trkpt><trkpt lat="44.14570717401581" lon="10.30877763101717"><ele>995.0</ele><time>2026-05-03T13:46:26.999Z</time></trkpt><trkpt lat="44.14564571405968" lon="10.308744535571096"><ele>997.6666666666667</ele><time>2026-05-03T13:46:36.999Z</time></trkpt><trkpt lat="44.14574640692603" lon="10.30873093658123"><ele>1000.3333333333334</ele><time>2026-05-03T13:47:16Z</time></trkpt><trkpt lat="44.145789491926585" lon="10.308821367396032"><ele>1003.0</ele><time>2026-05-03T13:47:35Z</time></trkpt><trkpt lat="44.1457239857702" lon="10.308825081037723"><ele>1005.6666666666667</ele><time>2026-05-03T13:48:02Z</time></trkpt><trkpt lat="44.145666861735585" lon="10.308786897341907"><ele>1008.3333333333334</ele><time>2026-05-03T13:48:09.999Z</time></trkpt><trkpt lat="44.145611950769876" lon="10.308713552376945"><ele>1011.0</ele><time>2026-05-03T13:48:17.999Z</time></trkpt><trkpt lat="44.145542164585656" lon="10.308718163025095"><ele>1011.0</ele><time>2026-05-03T13:48:31.999Z</time></trkpt><trkpt lat="44.145447943199926" lon="10.30869945154275"><ele>1011.0</ele><time>2026-05-03T13:48:34.999Z</time></trkpt><trkpt lat="44.14534893887055" lon="10.308679570162651"><ele>1011.0</ele><time>2026-05-03T13:48:36.999Z</time></trkpt><trkpt lat="44.14527745742194" lon="10.308671108017435"><ele>1011.0</ele><time>2026-05-03T13:48:38.999Z</time></trkpt><trkpt lat="44.14520908880919" lon="10.308657659847317"><ele>1011.0</ele><time>2026-05-03T13:48:41.999Z</time></trkpt><trkpt lat="44.14514505523519" lon="10.30868000257209"><ele>1011.0</ele><time>2026-05-03T13:48:43.999Z</time></trkpt><trkpt lat="44.14505962668878" lon="10.308648869416078"><ele>1011.0</ele><time>2026-05-03T13:48:45.999Z</time></trkpt><trkpt lat="44.14497568070694" lon="10.308634407921852"><ele>1011.0</ele><time>2026-05-03T13:48:48.999Z</time></trkpt><trkpt lat="44.14491522045064" lon="10.308661399763514"><ele>1011.0</ele><time>2026-05-03T13:48:51.999Z</time></trkpt><trkpt lat="44.144848954199446" lon="10.30865563208865"><ele>1011.0</ele><time>2026-05-03T13:48:54.999Z</time></trkpt><trkpt lat="44.144795852630224" lon="10.30860161738978"><ele>1011.0</ele><time>2026-05-03T13:48:57.999Z</time></trkpt><trkpt lat="44.14468378069991" lon="10.308586172718753"><ele>1011.0</ele><time>2026-05-03T13:49:11Z</time></trkpt><trkpt lat="44.14467887339763" lon="10.308679005505496"><ele>1004.1666666666666</ele><time>2026-05-03T13:49:44Z</time></trkpt><trkpt lat="44.14473158366176" lon="10.30860490819157"><ele>997.3333333333333</ele><time>2026-05-03T14:02:00Z</time></trkpt><trkpt lat="44.14464189874678" lon="10.308513574372103"><ele>990.5</ele><time>2026-05-03T14:06:01Z</time></trkpt><trkpt lat="44.144642111743394" lon="10.308650462742483"><ele>983.6666666666666</ele><time>2026-05-03T14:06:24Z</time></trkpt><trkpt lat="44.14470558474763" lon="10.30860286596558"><ele>976.8333333333333</ele><time>2026-05-03T14:07:09.999Z</time></trkpt><trkpt lat="44.144763331918945" lon="10.308536694228605"><ele>970.0</ele><time>2026-05-03T14:13:02Z</time></trkpt><trkpt lat="44.14480367742642" lon="10.308420823570778"><ele>970.0000000000001</ele><time>2026-05-03T14:13:04Z</time></trkpt><trkpt lat="44.144827892376306" lon="10.308333900607314"><ele>970.0</ele><time>2026-05-03T14:13:11Z</time></trkpt><trkpt lat="44.14488329977081" lon="10.308259467472249"><ele>970.0000000000001</ele><time>2026-05-03T14:13:14Z</time></trkpt><trkpt lat="44.14490620175882" lon="10.308173110898096"><ele>970.0000000000001</ele><time>2026-05-03T14:13:18Z</time></trkpt><trkpt lat="44.144959530971654" lon="10.308115686310936"><ele>970.0</ele><time>2026-05-03T14:13:21Z</time></trkpt><trkpt lat="44.14500099376535" lon="10.308038123263207"><ele>970.0000000000001</ele><time>2026-05-03T14:13:24Z</time></trkpt><trkpt lat="44.14500823669736" lon="10.307949979115474"><ele>970.0000000000001</ele><time>2026-05-03T14:13:27Z</time></trkpt><trkpt lat="44.14506378021331" lon="10.307862443159335"><ele>977.1428571428573</ele><time>2026-05-03T14:13:30Z</time></trkpt><trkpt lat="44.14513518349593" lon="10.307816293737606"><ele>984.2857142857143</ele><time>2026-05-03T14:13:33Z</time></trkpt><trkpt lat="44.145198247928626" lon="10.30775436391952"><ele>991.4285714285716</ele><time>2026-05-03T14:13:36Z</time></trkpt><trkpt lat="44.145254842826674" lon="10.307691123644458"><ele>998.5714285714287</ele><time>2026-05-03T14:13:41Z</time></trkpt><trkpt lat="44.14531870409757" lon="10.30769491929712"><ele>1005.7142857142858</ele><time>2026-05-03T14:13:43Z</time></trkpt><trkpt lat="44.14531992170528" lon="10.307810982066012"><ele>1012.8571428571429</ele><time>2026-05-03T14:13:49Z</time></trkpt><trkpt lat="44.14533228109751" lon="10.30771292237058"><ele>1020.0</ele><time>2026-05-03T14:13:57Z</time></trkpt><trkpt lat="44.145325022848745" lon="10.307606658273135"><ele>1020.0</ele><time>2026-05-03T14:14:37Z</time></trkpt><trkpt lat="44.145320800899235" lon="10.307500481799101"><ele>1020.0</ele><time>2026-05-03T14:14:40Z</time></trkpt><trkpt lat="44.14532829959561" lon="10.307391617522873"><ele>1020.0</ele><time>2026-05-03T14:14:42Z</time></trkpt><trkpt lat="44.14533846819864" lon="10.307292489274564"><ele>1020.0</ele><time>2026-05-03T14:14:43Z</time></trkpt><trkpt lat="44.14535282302314" lon="10.307154893845057"><ele>1020.0</ele><time>2026-05-03T14:14:46Z</time></trkpt><trkpt lat="44.145335384297994" lon="10.307024214312529"><ele>1020.0</ele><time>2026-05-03T14:14:48Z</time></trkpt><trkpt lat="44.14530270407156" lon="10.306943501521035"><ele>1021.0</ele><time>2026-05-03T14:14:50Z</time></trkpt><trkpt lat="44.14526794883085" lon="10.306821257789563"><ele>1022.0</ele><time>2026-05-03T14:14:52Z</time></trkpt><trkpt lat="44.145242405612876" lon="10.306710995219051"><ele>1023.0</ele><time>2026-05-03T14:14:55Z</time></trkpt><trkpt lat="44.14519891664765" lon="10.306629129072686"><ele>1024.0</ele><time>2026-05-03T14:14:58Z</time></trkpt><trkpt lat="44.145153357646294" lon="10.306520268198533"><ele>1025.0</ele><time>2026-05-03T14:15:01Z</time></trkpt><trkpt lat="44.14510615658574" lon="10.306420612956158"><ele>1026.0</ele><time>2026-05-03T14:15:02Z</time></trkpt><trkpt lat="44.14510528515135" lon="10.306315411322219"><ele>1028.3333333333333</ele><time>2026-05-03T14:15:03Z</time></trkpt><trkpt lat="44.145103297429586" lon="10.306173119581178"><ele>1030.6666666666667</ele><time>2026-05-03T14:15:05Z</time></trkpt><trkpt lat="44.145053497414324" lon="10.306069680554357"><ele>1033.0</ele><time>2026-05-03T14:15:07Z</time></trkpt><trkpt lat="44.14508435965622" lon="10.30594964461538"><ele>1035.3333333333335</ele><time>2026-05-03T14:15:09Z</time></trkpt><trkpt lat="44.145120700329855" lon="10.305861774441661"><ele>1037.6666666666667</ele><time>2026-05-03T14:15:11Z</time></trkpt><trkpt lat="44.14516745372366" lon="10.30578470270443"><ele>1040.0</ele><time>2026-05-03T14:15:13Z</time></trkpt><trkpt lat="44.145206938949165" lon="10.305673404581627"><ele>1038.5</ele><time>2026-05-03T14:15:15Z</time></trkpt><trkpt lat="44.14525626725707" lon="10.305539320266696"><ele>1037.0</ele><time>2026-05-03T14:15:18Z</time></trkpt><trkpt lat="44.145297593081224" lon="10.305439898159369"><ele>1035.5</ele><time>2026-05-03T14:15:20Z</time></trkpt><trkpt lat="44.14533157006518" lon="10.305343085893755"><ele>1034.0</ele><time>2026-05-03T14:15:23Z</time></trkpt><trkpt lat="44.145357550303" lon="10.305243379736186"><ele>1032.5</ele><time>2026-05-03T14:15:26Z</time></trkpt><trkpt lat="44.14538568756035" lon="10.305129611560783"><ele>1031.0</ele><time>2026-05-03T14:15:28Z</time></trkpt><trkpt lat="44.1454247158639" lon="10.30498305524356"><ele>1031.0</ele><time>2026-05-03T14:15:30Z</time></trkpt><trkpt lat="44.145461686267055" lon="10.30486786178805"><ele>1031.0</ele><time>2026-05-03T14:15:31Z</time></trkpt><trkpt lat="44.14550323385662" lon="10.30473535758213"><ele>1031.0</ele><time>2026-05-03T14:15:32Z</time></trkpt><trkpt lat="44.14548118937483" lon="10.304627851687183"><ele>1031.0</ele><time>2026-05-03T14:15:33Z</time></trkpt><trkpt lat="44.14551923608995" lon="10.304511882410074"><ele>1031.0</ele><time>2026-05-03T14:15:34Z</time></trkpt><trkpt lat="44.14553157758944" lon="10.304391241603549"><ele>1030.8</ele><time>2026-05-03T14:15:35Z</time></trkpt><trkpt lat="44.145535469968856" lon="10.304263366032512"><ele>1030.6</ele><time>2026-05-03T14:15:37Z</time></trkpt><trkpt lat="44.1455470225609" lon="10.304100853906473"><ele>1030.4</ele><time>2026-05-03T14:15:39Z</time></trkpt><trkpt lat="44.14555597693189" lon="10.303957133357493"><ele>1030.2</ele><time>2026-05-03T14:15:41Z</time></trkpt><trkpt lat="44.14559261973472" lon="10.303827859990506"><ele>1030.0</ele><time>2026-05-03T14:15:43Z</time></trkpt><trkpt lat="44.14558956539003" lon="10.303700841325684"><ele>1031.6</ele><time>2026-05-03T14:15:45Z</time></trkpt><trkpt lat="44.14566168210721" lon="10.30355178955026"><ele>1033.2</ele><time>2026-05-03T14:15:47Z</time></trkpt><trkpt lat="44.14569820593766" lon="10.303475585323795"><ele>1034.8</ele><time>2026-05-03T14:15:48Z</time></trkpt><trkpt lat="44.14567468234927" lon="10.30331546190369"><ele>1036.4</ele><time>2026-05-03T14:15:50Z</time></trkpt><trkpt lat="44.14564489589437" lon="10.303136269311512"><ele>1038.0</ele><time>2026-05-03T14:15:52Z</time></trkpt><trkpt lat="44.14557196405597" lon="10.303020347774341"><ele>1041.2</ele><time>2026-05-03T14:15:54Z</time></trkpt><trkpt lat="44.14560256335072" lon="10.30291012868895"><ele>1044.4</ele><time>2026-05-03T14:15:57Z</time></trkpt><trkpt lat="44.14560596163014" lon="10.302761775797876"><ele>1047.6000000000001</ele><time>2026-05-03T14:15:59Z</time></trkpt><trkpt lat="44.145596059132565" lon="10.302639334810024"><ele>1050.8</ele><time>2026-05-03T14:16:46Z</time></trkpt><trkpt lat="44.14553516158189" lon="10.30252302954095"><ele>1054.0</ele><time>2026-05-03T14:16:49Z</time></trkpt><trkpt lat="44.145491758724056" lon="10.30243155803606"><ele>1054.0</ele><time>2026-05-03T14:16:50Z</time></trkpt><trkpt lat="44.14544101995983" lon="10.302354929077145"><ele>1054.0</ele><time>2026-05-03T14:16:51Z</time></trkpt><trkpt lat="44.14539285456807" lon="10.302286074514402"><ele>1054.0</ele><time>2026-05-03T14:16:52Z</time></trkpt><trkpt lat="44.1453602696334" lon="10.302191432861518"><ele>1054.0</ele><time>2026-05-03T14:16:53Z</time></trkpt><trkpt lat="44.145321087812086" lon="10.302076263799842"><ele>1054.0</ele><time>2026-05-03T14:16:54Z</time></trkpt><trkpt lat="44.145268194452406" lon="10.301955956434073"><ele>1054.0</ele><time>2026-05-03T14:16:55Z</time></trkpt><trkpt lat="44.14523489300022" lon="10.30185961097604"><ele>1054.8</ele><time>2026-05-03T14:16:56Z</time></trkpt><trkpt lat="44.14519126633809" lon="10.301765186401779"><ele>1055.6000000000001</ele><time>2026-05-03T14:16:57Z</time></trkpt><trkpt lat="44.14519615380488" lon="10.301604410182833"><ele>1056.4</ele><time>2026-05-03T14:16:59Z</time></trkpt><trkpt lat="44.14517276018295" lon="10.301512722492465"><ele>1057.2</ele><time>2026-05-03T14:17:01Z</time></trkpt><trkpt lat="44.145108633642664" lon="10.301351843547408"><ele>1058.0</ele><time>2026-05-03T14:17:03Z</time></trkpt><trkpt lat="44.145081744717935" lon="10.301250674049436"><ele>1058.0</ele><time>2026-05-03T14:17:04Z</time></trkpt><trkpt lat="44.145070535139176" lon="10.30116297348538"><ele>1058.0</ele><time>2026-05-03T14:17:05Z</time></trkpt><trkpt lat="44.145089713359766" lon="10.30097929806243"><ele>1058.0</ele><time>2026-05-03T14:17:07Z</time></trkpt><trkpt lat="44.14511972011868" lon="10.3008707758951"><ele>1058.0</ele><time>2026-05-03T14:17:09Z</time></trkpt><trkpt lat="44.14514256445821" lon="10.300757486003448"><ele>1058.0</ele><time>2026-05-03T14:17:12Z</time></trkpt><trkpt lat="44.14510902007017" lon="10.300650889122096"><ele>1058.0</ele><time>2026-05-03T14:17:15Z</time></trkpt><trkpt lat="44.14499594001954" lon="10.300172530802438"><ele>1055.8</ele><time>2026-05-03T14:17:18Z</time></trkpt><trkpt lat="44.14499461292439" lon="10.300074676710159"><ele>1053.6</ele><time>2026-05-03T14:17:19Z</time></trkpt><trkpt lat="44.14495387769904" lon="10.299959931036122"><ele>1051.4</ele><time>2026-05-03T14:17:21Z</time></trkpt><trkpt lat="44.14488403010097" lon="10.299797199105857"><ele>1049.2</ele><time>2026-05-03T14:17:23Z</time></trkpt><trkpt lat="44.144805535028965" lon="10.299741244664906"><ele>1047.0</ele><time>2026-05-03T14:17:24Z</time></trkpt><trkpt lat="44.144806090748126" lon="10.299652901450067"><ele>1040.8333333333333</ele><time>2026-05-03T14:17:25Z</time></trkpt><trkpt lat="44.14474885779662" lon="10.299539799367242"><ele>1034.6666666666667</ele><time>2026-05-03T14:17:27Z</time></trkpt><trkpt lat="44.14472534581581" lon="10.299446976532982"><ele>1028.5</ele><time>2026-05-03T14:17:28Z</time></trkpt><trkpt lat="44.144673307645625" lon="10.299354708581657"><ele>1022.3333333333334</ele><time>2026-05-03T14:17:29Z</time></trkpt><trkpt lat="44.14460740930391" lon="10.29930551841016"><ele>1016.1666666666667</ele><time>2026-05-03T14:17:31Z</time></trkpt><trkpt lat="44.14454739271043" lon="10.299251380897088"><ele>1010.0</ele><time>2026-05-03T14:17:32Z</time></trkpt><trkpt lat="44.14448111462349" lon="10.299159381638974"><ele>1010.0</ele><time>2026-05-03T14:17:33Z</time></trkpt><trkpt lat="44.14451514252645" lon="10.299004646784626"><ele>1010.0</ele><time>2026-05-03T14:17:35Z</time></trkpt><trkpt lat="44.14447890762853" lon="10.298802549015901"><ele>1010.0</ele><time>2026-05-03T14:17:37Z</time></trkpt><trkpt lat="44.144503884187706" lon="10.29870432891816"><ele>1010.0</ele><time>2026-05-03T14:17:39Z</time></trkpt><trkpt lat="44.144482972459585" lon="10.298607589875976"><ele>1010.0</ele><time>2026-05-03T14:17:42Z</time></trkpt><trkpt lat="44.14450693664796" lon="10.298524428055304"><ele>1006.8</ele><time>2026-05-03T14:17:44Z</time></trkpt><trkpt lat="44.14451598932635" lon="10.298420804142983"><ele>1003.6</ele><time>2026-05-03T14:17:45Z</time></trkpt><trkpt lat="44.14449505114813" lon="10.298307113652292"><ele>1000.4000000000001</ele><time>2026-05-03T14:17:47Z</time></trkpt><trkpt lat="44.14449052430606" lon="10.298175077111829"><ele>997.2</ele><time>2026-05-03T14:17:49Z</time></trkpt><trkpt lat="44.14447589381507" lon="10.298024297330283"><ele>994.0</ele><time>2026-05-03T14:17:51Z</time></trkpt><trkpt lat="44.1444965570076" lon="10.29789323261148"><ele>992.4000000000001</ele><time>2026-05-03T14:17:55Z</time></trkpt><trkpt lat="44.14451828642379" lon="10.29768241424041"><ele>990.8000000000001</ele><time>2026-05-03T14:17:58Z</time></trkpt><trkpt lat="44.14450182124847" lon="10.29758220570788"><ele>989.1999999999999</ele><time>2026-05-03T14:18:00Z</time></trkpt><trkpt lat="44.1445625071734" lon="10.297641250682945"><ele>987.5999999999999</ele><time>2026-05-03T14:18:07Z</time></trkpt><trkpt lat="44.144643072941115" lon="10.29774384084477"><ele>986.0</ele><time>2026-05-03T14:18:42Z</time></trkpt><trkpt lat="44.14471873987961" lon="10.29786072510286"><ele>986.0</ele><time>2026-05-03T14:18:43Z</time></trkpt><trkpt lat="44.14478617332496" lon="10.2980166218922"><ele>985.9999999999999</ele><time>2026-05-03T14:18:44Z</time></trkpt><trkpt lat="44.14485349503219" lon="10.298176571008698"><ele>985.9999999999999</ele><time>2026-05-03T14:18:45Z</time></trkpt><trkpt lat="44.144889679947624" lon="10.298251370543984"><ele>986.0</ele><time>2026-05-03T14:18:46Z</time></trkpt><trkpt lat="44.14498628482236" lon="10.298270121784814"><ele>986.0</ele><time>2026-05-03T14:18:47Z</time></trkpt><trkpt lat="44.14511076199366" lon="10.298236006947523"><ele>989.8333333333334</ele><time>2026-05-03T14:18:48Z</time></trkpt><trkpt lat="44.14521840159874" lon="10.29822220047555"><ele>993.6666666666667</ele><time>2026-05-03T14:18:49Z</time></trkpt><trkpt lat="44.14529303731502" lon="10.298233340946895"><ele>997.5</ele><time>2026-05-03T14:18:50Z</time></trkpt><trkpt lat="44.145367319296106" lon="10.298264795567569"><ele>1001.3333333333333</ele><time>2026-05-03T14:18:51Z</time></trkpt><trkpt lat="44.14544472417458" lon="10.29830455516216"><ele>1005.1666666666666</ele><time>2026-05-03T14:18:52Z</time></trkpt><trkpt lat="44.14552145880857" lon="10.298332855574358"><ele>1009.0</ele><time>2026-05-03T14:18:53Z</time></trkpt><trkpt lat="44.145580932340124" lon="10.298409218864293"><ele>1009.0</ele><time>2026-05-03T14:18:54Z</time></trkpt><trkpt lat="44.14564192023688" lon="10.29851961829972"><ele>1009.0000000000001</ele><time>2026-05-03T14:18:55Z</time></trkpt><trkpt lat="44.145700288540745" lon="10.298622022954333"><ele>1009.0000000000001</ele><time>2026-05-03T14:18:56Z</time></trkpt><trkpt lat="44.14576907973589" lon="10.29873657827724"><ele>1009.0</ele><time>2026-05-03T14:18:58Z</time></trkpt><trkpt lat="44.14583556846725" lon="10.298786306440832"><ele>1009.0</ele><time>2026-05-03T14:18:59Z</time></trkpt><trkpt lat="44.14591912660572" lon="10.298920200802995"><ele>1008.8000000000001</ele><time>2026-05-03T14:19:01Z</time></trkpt><trkpt lat="44.14604530709496" lon="10.298953904944621"><ele>1008.6000000000001</ele><time>2026-05-03T14:19:02Z</time></trkpt><trkpt lat="44.146112253892476" lon="10.298993858882717"><ele>1008.4</ele><time>2026-05-03T14:19:03Z</time></trkpt><trkpt lat="44.14617423966621" lon="10.299060209858174"><ele>1008.2</ele><time>2026-05-03T14:19:04Z</time></trkpt><trkpt lat="44.14622975451218" lon="10.299152119525116"><ele>1008.0</ele><time>2026-05-03T14:19:06Z</time></trkpt><trkpt lat="44.14634685862054" lon="10.299165978742206"><ele>1008.0</ele><time>2026-05-03T14:19:08Z</time></trkpt><trkpt lat="44.146424651948024" lon="10.299196701667778"><ele>1008.0</ele><time>2026-05-03T14:19:09Z</time></trkpt><trkpt lat="44.14652269773493" lon="10.299268424645032"><ele>1008.0</ele><time>2026-05-03T14:19:11Z</time></trkpt><trkpt lat="44.14657405358151" lon="10.299326702842706"><ele>1008.0</ele><time>2026-05-03T14:19:13Z</time></trkpt><trkpt lat="44.14659570056771" lon="10.299226378889506"><ele>1008.0</ele><time>2026-05-03T14:19:16Z</time></trkpt><trkpt lat="44.14652660188392" lon="10.299161848339232"><ele>1008.0</ele><time>2026-05-03T14:19:19Z</time></trkpt><trkpt lat="44.146454159586845" lon="10.299076481469749"><ele>1008.0</ele><time>2026-05-03T14:19:23Z</time></trkpt><trkpt lat="44.14639124703157" lon="10.299029808324438"><ele>1008.0</ele><time>2026-05-03T14:19:26Z</time></trkpt><trkpt lat="44.14639239116875" lon="10.298913048074754"><ele>1008.0</ele><time>2026-05-03T14:19:29Z</time></trkpt><trkpt lat="44.14639920621468" lon="10.29881343541173"><ele>1008.0</ele><time>2026-05-03T14:19:33Z</time></trkpt><trkpt lat="44.14636372993197" lon="10.298707280491366"><ele>1008.0</ele><time>2026-05-03T14:19:36Z</time></trkpt><trkpt lat="44.14630635490805" lon="10.298614942890069"><ele>1008.0</ele><time>2026-05-03T14:19:38Z</time></trkpt><trkpt lat="44.14624705717681" lon="10.298501375335668"><ele>1003.8</ele><time>2026-05-03T14:19:40Z</time></trkpt><trkpt lat="44.146215670414726" lon="10.298382017434012"><ele>999.5999999999999</ele><time>2026-05-03T14:19:42Z</time></trkpt><trkpt lat="44.14622107136154" lon="10.298230771687692"><ele>995.4000000000001</ele><time>2026-05-03T14:19:44Z</time></trkpt><trkpt lat="44.14618034460879" lon="10.298109935602684"><ele>991.2</ele><time>2026-05-03T14:19:46Z</time></trkpt><trkpt lat="44.14617431596478" lon="10.29794202480483"><ele>987.0</ele><time>2026-05-03T14:19:48Z</time></trkpt><trkpt lat="44.146095077943805" lon="10.297857099658358"><ele>988.0</ele><time>2026-05-03T14:19:50Z</time></trkpt><trkpt lat="44.14601241527458" lon="10.297803116806989"><ele>989.0</ele><time>2026-05-03T14:19:52Z</time></trkpt><trkpt lat="44.1459424161797" lon="10.297718940002115"><ele>990.0</ele><time>2026-05-03T14:19:54Z</time></trkpt><trkpt lat="44.14585040247393" lon="10.297634246228725"><ele>991.0</ele><time>2026-05-03T14:19:56Z</time></trkpt><trkpt lat="44.145756789691156" lon="10.297585668832115"><ele>992.0</ele><time>2026-05-03T14:19:58Z</time></trkpt><trkpt lat="44.14564470421078" lon="10.297557784241533"><ele>992.0</ele><time>2026-05-03T14:20:00Z</time></trkpt><trkpt lat="44.14554447465233" lon="10.297537409483716"><ele>992.0</ele><time>2026-05-03T14:20:02Z</time></trkpt><trkpt lat="44.14548142471608" lon="10.297524675269285"><ele>992.0</ele><time>2026-05-03T14:20:03Z</time></trkpt><trkpt lat="44.14537263411652" lon="10.297421705518785"><ele>992.0</ele><time>2026-05-03T14:20:05Z</time></trkpt><trkpt lat="44.14533727356083" lon="10.29734411107401"><ele>992.0</ele><time>2026-05-03T14:20:06Z</time></trkpt><trkpt lat="44.14536757104121" lon="10.297202878912953"><ele>989.3333333333334</ele><time>2026-05-03T14:20:08Z</time></trkpt><trkpt lat="44.145403440864925" lon="10.29708237184533"><ele>986.6666666666667</ele><time>2026-05-03T14:20:10Z</time></trkpt><trkpt lat="44.14548199331786" lon="10.29697828624554"><ele>984.0</ele><time>2026-05-03T14:20:12Z</time></trkpt><trkpt lat="44.14546312714073" lon="10.296881094991637"><ele>981.3333333333333</ele><time>2026-05-03T14:20:16Z</time></trkpt><trkpt lat="44.14547675320576" lon="10.296770030147677"><ele>978.6666666666666</ele><time>2026-05-03T14:20:18Z</time></trkpt><trkpt lat="44.145499932930946" lon="10.296680026825832"><ele>976.0</ele><time>2026-05-03T14:20:20Z</time></trkpt><trkpt lat="44.14557383620159" lon="10.296589945419166"><ele>975.9999999999999</ele><time>2026-05-03T14:20:22Z</time></trkpt><trkpt lat="44.14565660153938" lon="10.296566966661452"><ele>976.0</ele><time>2026-05-03T14:20:24Z</time></trkpt><trkpt lat="44.14572648755585" lon="10.29654035556454"><ele>976.0</ele><time>2026-05-03T14:20:26Z</time></trkpt><trkpt lat="44.14577689495274" lon="10.296474336586522"><ele>976.0</ele><time>2026-05-03T14:20:28Z</time></trkpt><trkpt lat="44.14582609988012" lon="10.296368656913975"><ele>975.9999999999999</ele><time>2026-05-03T14:20:30Z</time></trkpt><trkpt lat="44.14586107865443" lon="10.296269842707419"><ele>976.0</ele><time>2026-05-03T14:20:32Z</time></trkpt><trkpt lat="44.145902373293794" lon="10.296195196385343"><ele>968.4</ele><time>2026-05-03T14:20:33Z</time></trkpt><trkpt lat="44.145911081327974" lon="10.296073693595805"><ele>960.8</ele><time>2026-05-03T14:20:35Z</time></trkpt><trkpt lat="44.14591069979419" lon="10.29593069453275"><ele>953.1999999999999</ele><time>2026-05-03T14:20:37Z</time></trkpt><trkpt lat="44.145907814407316" lon="10.295817225754172"><ele>945.5999999999999</ele><time>2026-05-03T14:20:38Z</time></trkpt><trkpt lat="44.14589418812766" lon="10.295614320126148"><ele>938.0</ele><time>2026-05-03T14:20:40Z</time></trkpt><trkpt lat="44.145886164382404" lon="10.295522106912772"><ele>931.2</ele><time>2026-05-03T14:20:41Z</time></trkpt><trkpt lat="44.1459209460624" lon="10.295361273983085"><ele>924.4</ele><time>2026-05-03T14:20:44Z</time></trkpt><trkpt lat="44.14589186464066" lon="10.295248871031388"><ele>917.6000000000001</ele><time>2026-05-03T14:20:47Z</time></trkpt><trkpt lat="44.14582520307311" lon="10.295255287047828"><ele>910.8000000000001</ele><time>2026-05-03T14:20:49Z</time></trkpt><trkpt lat="44.145726278739986" lon="10.29530702424655"><ele>904.0</ele><time>2026-05-03T14:20:51Z</time></trkpt><trkpt lat="44.145646780230344" lon="10.295348282335867"><ele>902.6</ele><time>2026-05-03T14:20:52Z</time></trkpt><trkpt lat="44.14558896544155" lon="10.295407415484943"><ele>901.2</ele><time>2026-05-03T14:20:53Z</time></trkpt><trkpt lat="44.1454931792583" lon="10.29540500691001"><ele>899.8000000000001</ele><time>2026-05-03T14:20:55Z</time></trkpt><trkpt lat="44.14542100392156" lon="10.295373363813512"><ele>898.4000000000001</ele><time>2026-05-03T14:20:56Z</time></trkpt><trkpt lat="44.145340089172336" lon="10.29537574366842"><ele>897.0</ele><time>2026-05-03T14:20:57Z</time></trkpt><trkpt lat="44.14519988425577" lon="10.295388778850029"><ele>897.0</ele><time>2026-05-03T14:20:58Z</time></trkpt><trkpt lat="44.145037677752526" lon="10.295382581093895"><ele>897.0</ele><time>2026-05-03T14:20:59Z</time></trkpt><trkpt lat="44.14492659761675" lon="10.295397154803075"><ele>897.0</ele><time>2026-05-03T14:21:00Z</time></trkpt><trkpt lat="44.1448334247386" lon="10.295361414093518"><ele>897.0</ele><time>2026-05-03T14:21:01Z</time></trkpt><trkpt lat="44.14471881663027" lon="10.295274385584325"><ele>901.0</ele><time>2026-05-03T14:21:02Z</time></trkpt><trkpt lat="44.14459066223271" lon="10.29522475218181"><ele>905.0</ele><time>2026-05-03T14:21:03Z</time></trkpt><trkpt lat="44.1444446640125" lon="10.295114838016985"><ele>909.0</ele><time>2026-05-03T14:21:04Z</time></trkpt><trkpt lat="44.14432521454509" lon="10.295055738911786"><ele>913.0</ele><time>2026-05-03T14:21:05Z</time></trkpt><trkpt lat="44.14418168712403" lon="10.294997039987315"><ele>913.0</ele><time>2026-05-03T14:21:06Z</time></trkpt><trkpt lat="44.144083990194645" lon="10.29492764271262"><ele>913.0</ele><time>2026-05-03T14:21:07Z</time></trkpt><trkpt lat="44.14399052412784" lon="10.29483658790348"><ele>913.0</ele><time>2026-05-03T14:21:08Z</time></trkpt><trkpt lat="44.143889454777" lon="10.294739368729651"><ele>913.0</ele><time>2026-05-03T14:21:09Z</time></trkpt><trkpt lat="44.14379810877888" lon="10.294651738845499"><ele>910.8333333333333</ele><time>2026-05-03T14:21:10Z</time></trkpt><trkpt lat="44.14372781674624" lon="10.294571888468981"><ele>908.6666666666666</ele><time>2026-05-03T14:21:11Z</time></trkpt><trkpt lat="44.14367734901998" lon="10.294463755184815"><ele>906.5</ele><time>2026-05-03T14:21:13Z</time></trkpt><trkpt lat="44.143643598847476" lon="10.294362909522869"><ele>904.3333333333333</ele><time>2026-05-03T14:21:15Z</time></trkpt><trkpt lat="44.14361280429458" lon="10.294275703117826"><ele>902.1666666666666</ele><time>2026-05-03T14:21:17Z</time></trkpt><trkpt lat="44.14358143588686" lon="10.29419076532532"><ele>900.0</ele><time>2026-05-03T14:21:19Z</time></trkpt><trkpt lat="44.14355977493955" lon="10.294084402195123"><ele>900.0</ele><time>2026-05-03T14:21:22Z</time></trkpt><trkpt lat="44.14350127422332" lon="10.294031621367907"><ele>900.0</ele><time>2026-05-03T14:21:34Z</time></trkpt><trkpt lat="44.14348017608073" lon="10.293914735990557"><ele>900.0</ele><time>2026-05-03T14:22:00Z</time></trkpt><trkpt lat="44.14344057459504" lon="10.293829597020135"><ele>900.0</ele><time>2026-05-03T14:22:02Z</time></trkpt><trkpt lat="44.14317678142556" lon="10.293885472161985"><ele>897.0000000000001</ele><time>2026-05-03T14:22:08Z</time></trkpt><trkpt lat="44.14310228086099" lon="10.29390095992905"><ele>894.0</ele><time>2026-05-03T14:22:09Z</time></trkpt><trkpt lat="44.14303298638778" lon="10.29387621100587"><ele>891.0</ele><time>2026-05-03T14:22:10Z</time></trkpt><trkpt lat="44.14295118015839" lon="10.29385746450884"><ele>888.0</ele><time>2026-05-03T14:22:11Z</time></trkpt><trkpt lat="44.14288637442223" lon="10.293856606342404"><ele>885.0</ele><time>2026-05-03T14:22:12Z</time></trkpt><trkpt lat="44.142846439840426" lon="10.293939216954666"><ele>882.0</ele><time>2026-05-03T14:22:14Z</time></trkpt><trkpt lat="44.14280095130901" lon="10.29387173142573"><ele>879.0</ele><time>2026-05-03T14:22:15Z</time></trkpt><trkpt lat="44.14269863914382" lon="10.293953269163783"><ele>879.0</ele><time>2026-05-03T14:22:16Z</time></trkpt><trkpt lat="44.14263013393523" lon="10.293976330320657"><ele>879.0</ele><time>2026-05-03T14:22:17Z</time></trkpt><trkpt lat="44.142551679231005" lon="10.294017273589137"><ele>879.0</ele><time>2026-05-03T14:22:19Z</time></trkpt><trkpt lat="44.142457996230576" lon="10.294045971070487"><ele>879.0</ele><time>2026-05-03T14:22:23Z</time></trkpt><trkpt lat="44.14238803062735" lon="10.294042504799016"><ele>879.0</ele><time>2026-05-03T14:22:25Z</time></trkpt><trkpt lat="44.142304576294876" lon="10.294040436299454"><ele>879.0</ele><time>2026-05-03T14:22:27Z</time></trkpt><trkpt lat="44.14222887889061" lon="10.29403840732302"><ele>875.5</ele><time>2026-05-03T14:22:29Z</time></trkpt><trkpt lat="44.14219874772683" lon="10.29412937305432"><ele>872.0</ele><time>2026-05-03T14:22:32Z</time></trkpt><trkpt lat="44.142233897793204" lon="10.294276328110763"><ele>868.5</ele><time>2026-05-03T14:22:33.999Z</time></trkpt><trkpt lat="44.14227187908344" lon="10.294361002681686"><ele>865.0</ele><time>2026-05-03T14:22:34.999Z</time></trkpt><trkpt lat="44.14230623637567" lon="10.294469073671713"><ele>861.5</ele><time>2026-05-03T14:22:35.999Z</time></trkpt><trkpt lat="44.14235933790239" lon="10.29460156587262"><ele>858.0</ele><time>2026-05-03T14:22:37.999Z</time></trkpt><trkpt lat="44.14231587271498" lon="10.294685739328928"><ele>858.0</ele><time>2026-05-03T14:22:40Z</time></trkpt><trkpt lat="44.14222676309559" lon="10.294668487624518"><ele>858.0</ele><time>2026-05-03T14:22:42Z</time></trkpt><trkpt lat="44.142161914497294" lon="10.294645214781303"><ele>858.0</ele><time>2026-05-03T14:22:43Z</time></trkpt><trkpt lat="44.142096553907145" lon="10.294622775340608"><ele>858.0</ele><time>2026-05-03T14:22:44Z</time></trkpt><trkpt lat="44.141981078427456" lon="10.294605410842486"><ele>858.0</ele><time>2026-05-03T14:22:46Z</time></trkpt><trkpt lat="44.14191031020647" lon="10.29461118593386"><ele>858.0</ele><time>2026-05-03T14:22:48Z</time></trkpt><trkpt lat="44.14182804019953" lon="10.294611622378284"><ele>858.0</ele><time>2026-05-03T14:22:50Z</time></trkpt><trkpt lat="44.1417531571918" lon="10.294580781699802"><ele>858.0</ele><time>2026-05-03T14:22:53Z</time></trkpt><trkpt lat="44.14170172940515" lon="10.294529129437493"><ele>858.0</ele><time>2026-05-03T14:22:55Z</time></trkpt><trkpt lat="44.14163539669024" lon="10.29448968616133"><ele>858.0</ele><time>2026-05-03T14:23:13Z</time></trkpt><trkpt lat="44.14154545600452" lon="10.294426179854218"><ele>858.0</ele><time>2026-05-03T14:23:16Z</time></trkpt><trkpt lat="44.14147306347613" lon="10.294385851339147"><ele>858.0</ele><time>2026-05-03T14:23:17Z</time></trkpt><trkpt lat="44.141414623848405" lon="10.294342050310474"><ele>854.3333333333334</ele><time>2026-05-03T14:23:18Z</time></trkpt><trkpt lat="44.14130875747249" lon="10.294312105139747"><ele>850.6666666666667</ele><time>2026-05-03T14:23:20Z</time></trkpt><trkpt lat="44.141244011155116" lon="10.294320852333032"><ele>847.0</ele><time>2026-05-03T14:23:21Z</time></trkpt><trkpt lat="44.141173957975894" lon="10.2943108182252"><ele>843.3333333333334</ele><time>2026-05-03T14:23:22Z</time></trkpt><trkpt lat="44.14109195372022" lon="10.29428139450309"><ele>839.6666666666667</ele><time>2026-05-03T14:23:23Z</time></trkpt><trkpt lat="44.14101383031804" lon="10.294301173119509"><ele>836.0</ele><time>2026-05-03T14:23:24Z</time></trkpt><trkpt lat="44.140930616863514" lon="10.294287214956098"><ele>836.0</ele><time>2026-05-03T14:23:25Z</time></trkpt><trkpt lat="44.14082666998926" lon="10.29424438079465"><ele>836.0</ele><time>2026-05-03T14:23:27Z</time></trkpt><trkpt lat="44.140745336784654" lon="10.294184707161525"><ele>836.0</ele><time>2026-05-03T14:23:29Z</time></trkpt><trkpt lat="44.14069312447017" lon="10.29405515419358"><ele>836.0</ele><time>2026-05-03T14:23:31Z</time></trkpt><trkpt lat="44.14069506337243" lon="10.293920047313744"><ele>836.0</ele><time>2026-05-03T14:23:33Z</time></trkpt><trkpt lat="44.14068503030514" lon="10.293808065025845"><ele>832.1999999999999</ele><time>2026-05-03T14:23:35Z</time></trkpt><trkpt lat="44.14058764824398" lon="10.293785091527486"><ele>828.4</ele><time>2026-05-03T14:23:37Z</time></trkpt><trkpt lat="44.14050748150131" lon="10.29376641624669"><ele>824.6</ele><time>2026-05-03T14:23:38Z</time></trkpt><trkpt lat="44.14036132078153" lon="10.293715897956554"><ele>820.8</ele><time>2026-05-03T14:23:40Z</time></trkpt><trkpt lat="44.14026226877718" lon="10.293709376908211"><ele>817.0</ele><time>2026-05-03T14:23:41Z</time></trkpt><trkpt lat="44.1401717549146" lon="10.293715241086247"><ele>816.9999999999999</ele><time>2026-05-03T14:23:42Z</time></trkpt><trkpt lat="44.140074120798616" lon="10.293723790323973"><ele>817.0</ele><time>2026-05-03T14:23:43Z</time></trkpt><trkpt lat="44.139988680199345" lon="10.2937488319928"><ele>817.0</ele><time>2026-05-03T14:23:44Z</time></trkpt><trkpt lat="44.13992565171328" lon="10.293734719313907"><ele>817.0</ele><time>2026-05-03T14:23:45Z</time></trkpt><trkpt lat="44.139822325005476" lon="10.293732525012832"><ele>816.9999999999999</ele><time>2026-05-03T14:23:46Z</time></trkpt><trkpt lat="44.139748319779635" lon="10.293757186103175"><ele>817.0</ele><time>2026-05-03T14:23:47Z</time></trkpt><trkpt lat="44.13966436375519" lon="10.293764970283517"><ele>817.4999999999999</ele><time>2026-05-03T14:23:49Z</time></trkpt><trkpt lat="44.13964586873491" lon="10.29362986076641"><ele>818.0</ele><time>2026-05-03T14:23:54Z</time></trkpt><trkpt lat="44.139642485804835" lon="10.29352113004301"><ele>818.5</ele><time>2026-05-03T14:23:55Z</time></trkpt><trkpt lat="44.139632567507604" lon="10.293388102964379"><ele>819.0</ele><time>2026-05-03T14:23:56Z</time></trkpt><trkpt lat="44.13963232560106" lon="10.293290757998685"><ele>819.4999999999999</ele><time>2026-05-03T14:23:57Z</time></trkpt><trkpt lat="44.139676563420295" lon="10.293192517433278"><ele>820.0</ele><time>2026-05-03T14:23:59Z</time></trkpt><trkpt lat="44.139739637350644" lon="10.293252429501273"><ele>820.0</ele><time>2026-05-03T14:24:00Z</time></trkpt><trkpt lat="44.139814702110606" lon="10.293211157744265"><ele>820.0</ele><time>2026-05-03T14:24:02Z</time></trkpt><trkpt lat="44.13987310511211" lon="10.293113224902129"><ele>820.0</ele><time>2026-05-03T14:24:04Z</time></trkpt><trkpt lat="44.13987751478438" lon="10.293008848462192"><ele>820.0</ele><time>2026-05-03T14:24:05Z</time></trkpt><trkpt lat="44.13986932596634" lon="10.292857814875141"><ele>820.0</ele><time>2026-05-03T14:24:06Z</time></trkpt><trkpt lat="44.139867014989456" lon="10.292676538188273"><ele>817.25</ele><time>2026-05-03T14:24:07Z</time></trkpt><trkpt lat="44.13988542207743" lon="10.292507185318163"><ele>814.5</ele><time>2026-05-03T14:24:08Z</time></trkpt><trkpt lat="44.139890355039824" lon="10.292360221632759"><ele>811.75</ele><time>2026-05-03T14:24:09Z</time></trkpt><trkpt lat="44.139885401515514" lon="10.292185437466383"><ele>809.0</ele><time>2026-05-03T14:24:10Z</time></trkpt><trkpt lat="44.139906785150835" lon="10.292016658705286"><ele>809.0</ele><time>2026-05-03T14:24:11Z</time></trkpt><trkpt lat="44.13996016269456" lon="10.291880001537516"><ele>809.0</ele><time>2026-05-03T14:24:12Z</time></trkpt><trkpt lat="44.13998078331053" lon="10.291791067414415"><ele>809.0</ele><time>2026-05-03T14:24:13Z</time></trkpt><trkpt lat="44.14000672580788" lon="10.291679180649444"><ele>809.0</ele><time>2026-05-03T14:24:14Z</time></trkpt><trkpt lat="44.14004133901507" lon="10.291529898238819"><ele>809.0</ele><time>2026-05-03T14:24:15Z</time></trkpt><trkpt lat="44.139948101570106" lon="10.291390221052476"><ele>810.8333333333334</ele><time>2026-05-03T14:24:16Z</time></trkpt><trkpt lat="44.13998509299656" lon="10.29129642066002"><ele>812.6666666666667</ele><time>2026-05-03T14:24:17.999Z</time></trkpt><trkpt lat="44.14002202768272" lon="10.291152856581316"><ele>814.5</ele><time>2026-05-03T14:24:19.999Z</time></trkpt><trkpt lat="44.14008386045512" lon="10.291134283069795"><ele>816.3333333333333</ele><time>2026-05-03T14:24:21.999Z</time></trkpt><trkpt lat="44.14021049744637" lon="10.291160889866017"><ele>818.1666666666666</ele><time>2026-05-03T14:24:23.999Z</time></trkpt><trkpt lat="44.1402749885551" lon="10.291129273874787"><ele>820.0</ele><time>2026-05-03T14:24:24.999Z</time></trkpt><trkpt lat="44.14035186950628" lon="10.291059534991915"><ele>819.9999999999999</ele><time>2026-05-03T14:24:25.999Z</time></trkpt><trkpt lat="44.14042432403941" lon="10.290992674494543"><ele>820.0</ele><time>2026-05-03T14:24:26.999Z</time></trkpt><trkpt lat="44.14048889060832" lon="10.290917515067433"><ele>820.0</ele><time>2026-05-03T14:24:27.999Z</time></trkpt><trkpt lat="44.140567373689116" lon="10.290888175568995"><ele>820.0</ele><time>2026-05-03T14:24:29.999Z</time></trkpt><trkpt lat="44.140633410918134" lon="10.290896580981435"><ele>819.9999999999999</ele><time>2026-05-03T14:24:30.999Z</time></trkpt><trkpt lat="44.140676291886834" lon="10.290816189273118"><ele>820.0</ele><time>2026-05-03T14:24:33.999Z</time></trkpt><trkpt lat="44.140711425297" lon="10.290661273682275"><ele>823.6</ele><time>2026-05-03T14:24:34.999Z</time></trkpt><trkpt lat="44.14081647134696" lon="10.290447366251312"><ele>827.2</ele><time>2026-05-03T14:24:35.999Z</time></trkpt><trkpt lat="44.1408543113746" lon="10.290359084831405"><ele>830.8</ele><time>2026-05-03T14:24:36.999Z</time></trkpt><trkpt lat="44.14080533019533" lon="10.290289105218049"><ele>834.4</ele><time>2026-05-03T14:24:41.999Z</time></trkpt><trkpt lat="44.14084424680292" lon="10.290166761114195"><ele>838.0</ele><time>2026-05-03T14:24:44.999Z</time></trkpt><trkpt lat="44.140903016705515" lon="10.290131769344883"><ele>838.0</ele><time>2026-05-03T14:24:46Z</time></trkpt><trkpt lat="44.14097432247448" lon="10.290059896892343"><ele>838.0</ele><time>2026-05-03T14:24:50Z</time></trkpt><trkpt lat="44.14099580947488" lon="10.289938534923955"><ele>838.0</ele><time>2026-05-03T14:24:54Z</time></trkpt><trkpt lat="44.14104097029198" lon="10.28964191678289"><ele>838.0</ele><time>2026-05-03T14:24:56Z</time></trkpt><trkpt lat="44.14114814756396" lon="10.289602849674194"><ele>839.4999999999999</ele><time>2026-05-03T14:24:58Z</time></trkpt><trkpt lat="44.141198944326085" lon="10.289659064132504"><ele>841.0</ele><time>2026-05-03T14:25:01Z</time></trkpt><trkpt lat="44.14126306655983" lon="10.289656581502513"><ele>842.5</ele><time>2026-05-03T14:25:02Z</time></trkpt><trkpt lat="44.141347253539216" lon="10.28963386835114"><ele>844.0</ele><time>2026-05-03T14:25:03Z</time></trkpt><trkpt lat="44.141419890016245" lon="10.28963550803363"><ele>845.4999999999999</ele><time>2026-05-03T14:25:04Z</time></trkpt><trkpt lat="44.14153421080751" lon="10.289682886957952"><ele>847.0</ele><time>2026-05-03T14:25:06Z</time></trkpt><trkpt lat="44.1415854447092" lon="10.289626453939613"><ele>848.4285714285714</ele><time>2026-05-03T14:25:08Z</time></trkpt><trkpt lat="44.14159991847457" lon="10.289509812845864"><ele>849.8571428571429</ele><time>2026-05-03T14:25:11Z</time></trkpt><trkpt lat="44.141607050788046" lon="10.289422401288109"><ele>851.2857142857142</ele><time>2026-05-03T14:25:14Z</time></trkpt><trkpt lat="44.14157381331439" lon="10.289339746711883"><ele>852.7142857142858</ele><time>2026-05-03T14:25:18Z</time></trkpt><trkpt lat="44.14158208154892" lon="10.289239932989652"><ele>854.1428571428571</ele><time>2026-05-03T14:25:21Z</time></trkpt><trkpt lat="44.14157859291352" lon="10.289145235274246"><ele>855.5714285714286</ele><time>2026-05-03T14:25:24Z</time></trkpt><trkpt lat="44.14156882839642" lon="10.289024924657921"><ele>857.0</ele><time>2026-05-03T14:25:34Z</time></trkpt><trkpt lat="44.14159772907451" lon="10.288935146724505"><ele>857.6</ele><time>2026-05-03T14:25:58Z</time></trkpt><trkpt lat="44.14162082524522" lon="10.288804088910595"><ele>858.2</ele><time>2026-05-03T14:26:00Z</time></trkpt><trkpt lat="44.14158786502699" lon="10.288584910076528"><ele>858.8</ele><time>2026-05-03T14:26:02Z</time></trkpt><trkpt lat="44.14155273318327" lon="10.288494262816698"><ele>859.4</ele><time>2026-05-03T14:26:03Z</time></trkpt><trkpt lat="44.141523205713554" lon="10.288369829892678"><ele>860.0</ele><time>2026-05-03T14:26:04Z</time></trkpt><trkpt lat="44.14151335386055" lon="10.288229975937789"><ele>860.0000000000001</ele><time>2026-05-03T14:26:05Z</time></trkpt><trkpt lat="44.14152029090568" lon="10.288127945048982"><ele>860.0</ele><time>2026-05-03T14:26:06Z</time></trkpt><trkpt lat="44.14154702766613" lon="10.288043681840627"><ele>860.0</ele><time>2026-05-03T14:26:07Z</time></trkpt><trkpt lat="44.14156496423236" lon="10.28791972196728"><ele>860.0</ele><time>2026-05-03T14:26:08Z</time></trkpt><trkpt lat="44.141569318589944" lon="10.28779899043366"><ele>860.0000000000001</ele><time>2026-05-03T14:26:10Z</time></trkpt><trkpt lat="44.14145885210687" lon="10.287793230747244"><ele>860.0</ele><time>2026-05-03T14:26:12Z</time></trkpt><trkpt lat="44.14137835337993" lon="10.287815197241923"><ele>864.5</ele><time>2026-05-03T14:26:14Z</time></trkpt><trkpt lat="44.14125862576144" lon="10.287755835716801"><ele>869.0</ele><time>2026-05-03T14:26:16Z</time></trkpt><trkpt lat="44.14117352827539" lon="10.287667971954834"><ele>873.5</ele><time>2026-05-03T14:26:17Z</time></trkpt><trkpt lat="44.141067031615606" lon="10.287524602559165"><ele>878.0</ele><time>2026-05-03T14:26:18Z</time></trkpt><trkpt lat="44.14103584386486" lon="10.287357746430038"><ele>880.8</ele><time>2026-05-03T14:26:19Z</time></trkpt><trkpt lat="44.14103027128428" lon="10.28724672210149"><ele>883.5999999999999</ele><time>2026-05-03T14:26:20Z</time></trkpt><trkpt lat="44.14098287725435" lon="10.287142145755707"><ele>886.4000000000001</ele><time>2026-05-03T14:26:21Z</time></trkpt><trkpt lat="44.14092677125648" lon="10.286990721437437"><ele>889.2</ele><time>2026-05-03T14:26:22Z</time></trkpt><trkpt lat="44.140877831245675" lon="10.286804614612734"><ele>892.0</ele><time>2026-05-03T14:26:23Z</time></trkpt><trkpt lat="44.14081481453767" lon="10.286677317685415"><ele>891.9999999999999</ele><time>2026-05-03T14:26:24Z</time></trkpt><trkpt lat="44.14079194057008" lon="10.286573643815792"><ele>892.0</ele><time>2026-05-03T14:26:25Z</time></trkpt><trkpt lat="44.140755119402485" lon="10.286451971911676"><ele>892.0</ele><time>2026-05-03T14:26:26Z</time></trkpt><trkpt lat="44.140747327420115" lon="10.286336622281642"><ele>892.0</ele><time>2026-05-03T14:26:27Z</time></trkpt><trkpt lat="44.14074926430724" lon="10.286247109628974"><ele>891.9999999999999</ele><time>2026-05-03T14:26:28Z</time></trkpt><trkpt lat="44.14073685876265" lon="10.2861593902293"><ele>892.0</ele><time>2026-05-03T14:26:30Z</time></trkpt><trkpt lat="44.14070048997301" lon="10.28603928351721"><ele>891.3333333333333</ele><time>2026-05-03T14:26:31.999Z</time></trkpt><trkpt lat="44.14064313647317" lon="10.28597827907335"><ele>890.6666666666666</ele><time>2026-05-03T14:26:33.999Z</time></trkpt><trkpt lat="44.140598585832066" lon="10.285895391064097"><ele>890.0</ele><time>2026-05-03T14:26:35.999Z</time></trkpt><trkpt lat="44.14052146223937" lon="10.285859083874518"><ele>889.3333333333333</ele><time>2026-05-03T14:26:37.999Z</time></trkpt><trkpt lat="44.14049045002207" lon="10.28576519579574"><ele>888.6666666666666</ele><time>2026-05-03T14:26:41.999Z</time></trkpt><trkpt lat="44.140398758951534" lon="10.285765308635183"><ele>888.0</ele><time>2026-05-03T14:26:44.999Z</time></trkpt><trkpt lat="44.14031820377889" lon="10.285722765418992"><ele>888.0</ele><time>2026-05-03T14:26:46.999Z</time></trkpt><trkpt lat="44.14022721493879" lon="10.285620173079284"><ele>888.0</ele><time>2026-05-03T14:26:49.999Z</time></trkpt><trkpt lat="44.14015378041457" lon="10.28553322385312"><ele>888.0</ele><time>2026-05-03T14:26:53Z</time></trkpt><trkpt lat="44.14005389734689" lon="10.285469851397975"><ele>888.0</ele><time>2026-05-03T14:26:55Z</time></trkpt><trkpt lat="44.1399907415943" lon="10.285411276522074"><ele>888.0</ele><time>2026-05-03T14:26:57Z</time></trkpt><trkpt lat="44.139952863671596" lon="10.285336425933199"><ele>891.25</ele><time>2026-05-03T14:26:59Z</time></trkpt><trkpt lat="44.1400396093396" lon="10.285113844270649"><ele>894.5</ele><time>2026-05-03T14:27:04Z</time></trkpt><trkpt lat="44.14014127588081" lon="10.285106275868285"><ele>897.75</ele><time>2026-05-03T14:27:05Z</time></trkpt><trkpt lat="44.14026261834323" lon="10.28511981844767"><ele>901.0</ele><time>2026-05-03T14:27:06Z</time></trkpt><trkpt lat="44.14032594259002" lon="10.28509727536791"><ele>900.9999999999999</ele><time>2026-05-03T14:27:07Z</time></trkpt><trkpt lat="44.14040700698337" lon="10.285075207969966"><ele>901.0</ele><time>2026-05-03T14:27:09Z</time></trkpt><trkpt lat="44.14050927064246" lon="10.285134678563725"><ele>901.0</ele><time>2026-05-03T14:28:00Z</time></trkpt><trkpt lat="44.140570972289126" lon="10.285102019333381"><ele>901.0</ele><time>2026-05-03T14:28:11Z</time></trkpt><trkpt lat="44.14050802288336" lon="10.285151724916554"><ele>900.9999999999999</ele><time>2026-05-03T14:28:31.999Z</time></trkpt><trkpt lat="44.14043357959634" lon="10.285104146562187"><ele>901.0</ele><time>2026-05-03T14:28:44.999Z</time></trkpt><trkpt lat="44.140360262838776" lon="10.285106744427527"><ele>901.0</ele><time>2026-05-03T14:28:55.999Z</time></trkpt><trkpt lat="44.14039622349988" lon="10.28503145361758"><ele>901.0000000000001</ele><time>2026-05-03T14:29:10Z</time></trkpt><trkpt lat="44.1403333344158" lon="10.285106444873605"><ele>901.0</ele><time>2026-05-03T14:29:29Z</time></trkpt><trkpt lat="44.140377190134984" lon="10.285022018829546"><ele>901.0</ele><time>2026-05-03T14:31:15Z</time></trkpt><trkpt lat="44.140389165719256" lon="10.285108309906757"><ele>901.0000000000001</ele><time>2026-05-03T14:34:20Z</time></trkpt><trkpt lat="44.140300943721954" lon="10.28511463338458"><ele>901.0</ele><time>2026-05-03T14:34:57Z</time></trkpt><trkpt lat="44.140233568844906" lon="10.28511090767229"><ele>901.0</ele><time>2026-05-03T14:35:02Z</time></trkpt><trkpt lat="44.140153357818285" lon="10.28512084759611"><ele>900.9999999999999</ele><time>2026-05-03T14:35:05Z</time></trkpt><trkpt lat="44.14007372517525" lon="10.28513860009572"><ele>901.0</ele><time>2026-05-03T14:35:08Z</time></trkpt><trkpt lat="44.13999138301473" lon="10.285135410918423"><ele>901.0</ele><time>2026-05-03T14:35:09Z</time></trkpt><trkpt lat="44.13989286070602" lon="10.285124750562932"><ele>901.0</ele><time>2026-05-03T14:35:10Z</time></trkpt><trkpt lat="44.13983033007996" lon="10.285167112378067"><ele>900.9999999999999</ele><time>2026-05-03T14:35:13Z</time></trkpt><trkpt lat="44.1397674470624" lon="10.285197678786746"><ele>901.0</ele><time>2026-05-03T14:35:16Z</time></trkpt><trkpt lat="44.139703633019735" lon="10.285268041063107"><ele>900.1999999999999</ele><time>2026-05-03T14:35:18Z</time></trkpt><trkpt lat="44.13963406437196" lon="10.285310766497721"><ele>899.3999999999999</ele><time>2026-05-03T14:35:21Z</time></trkpt><trkpt lat="44.13955543108687" lon="10.2854105307774"><ele>898.6</ele><time>2026-05-03T14:35:23Z</time></trkpt><trkpt lat="44.139465040109116" lon="10.285471369399561"><ele>897.8</ele><time>2026-05-03T14:35:24Z</time></trkpt><trkpt lat="44.13937436154936" lon="10.285422605817562"><ele>897.0</ele><time>2026-05-03T14:35:25Z</time></trkpt><trkpt lat="44.13924062103006" lon="10.285332859200079"><ele>897.0</ele><time>2026-05-03T14:35:26Z</time></trkpt><trkpt lat="44.13905213338682" lon="10.28532539193244"><ele>897.0</ele><time>2026-05-03T14:35:27Z</time></trkpt><trkpt lat="44.13887464612276" lon="10.285328452783542"><ele>897.0</ele><time>2026-05-03T14:35:28Z</time></trkpt><trkpt lat="44.13872628236839" lon="10.285333163366895"><ele>895.4000000000001</ele><time>2026-05-03T14:35:29Z</time></trkpt><trkpt lat="44.13860918329919" lon="10.285343756662686"><ele>893.8000000000001</ele><time>2026-05-03T14:35:30Z</time></trkpt><trkpt lat="44.13852241869147" lon="10.285350142929293"><ele>892.2</ele><time>2026-05-03T14:35:31Z</time></trkpt><trkpt lat="44.13844118841921" lon="10.285341197522756"><ele>890.6</ele><time>2026-05-03T14:35:32Z</time></trkpt><trkpt lat="44.13835481187764" lon="10.285257519251555"><ele>889.0</ele><time>2026-05-03T14:35:34Z</time></trkpt><trkpt lat="44.13832310580684" lon="10.285148611623091"><ele>889.0</ele><time>2026-05-03T14:35:35Z</time></trkpt><trkpt lat="44.13830131212783" lon="10.284983962856586"><ele>889.0000000000001</ele><time>2026-05-03T14:35:36Z</time></trkpt><trkpt lat="44.138273286182816" lon="10.284900978569375"><ele>889.0000000000001</ele><time>2026-05-03T14:35:37Z</time></trkpt><trkpt lat="44.13822177185236" lon="10.284820644149816"><ele>889.0</ele><time>2026-05-03T14:35:38Z</time></trkpt><trkpt lat="44.13813047927667" lon="10.284743708893675"><ele>889.0</ele><time>2026-05-03T14:35:39Z</time></trkpt><trkpt lat="44.13802978632661" lon="10.284668322023313"><ele>888.75</ele><time>2026-05-03T14:35:40Z</time></trkpt><trkpt lat="44.13792147440242" lon="10.284615028497749"><ele>888.5</ele><time>2026-05-03T14:35:42Z</time></trkpt><trkpt lat="44.13780582542864" lon="10.28462568614691"><ele>888.25</ele><time>2026-05-03T14:35:43Z</time></trkpt><trkpt lat="44.137648899086095" lon="10.284729570068604"><ele>888.0</ele><time>2026-05-03T14:35:44Z</time></trkpt><trkpt lat="44.13750749447159" lon="10.284768369898305"><ele>886.4</ele><time>2026-05-03T14:35:45Z</time></trkpt><trkpt lat="44.13741194042947" lon="10.284804853229343"><ele>884.8</ele><time>2026-05-03T14:35:46Z</time></trkpt><trkpt lat="44.137318488037586" lon="10.284885926861426"><ele>883.2</ele><time>2026-05-03T14:35:48Z</time></trkpt><trkpt lat="44.137273020828786" lon="10.284978874353248"><ele>881.6</ele><time>2026-05-03T14:35:49Z</time></trkpt><trkpt lat="44.13724093989049" lon="10.285123611316143"><ele>880.0</ele><time>2026-05-03T14:35:50Z</time></trkpt><trkpt lat="44.13722930815171" lon="10.285276873733618"><ele>879.2</ele><time>2026-05-03T14:35:51Z</time></trkpt><trkpt lat="44.13730065148525" lon="10.285469093492692"><ele>878.4</ele><time>2026-05-03T14:35:53Z</time></trkpt><trkpt lat="44.137335673355565" lon="10.285553442706739"><ele>877.5999999999999</ele><time>2026-05-03T14:35:54Z</time></trkpt><trkpt lat="44.13737027838171" lon="10.285655680445409"><ele>876.8</ele><time>2026-05-03T14:35:56Z</time></trkpt><trkpt lat="44.13727972115389" lon="10.285515539441505"><ele>876.0</ele><time>2026-05-03T14:36:13Z</time></trkpt><trkpt lat="44.137228590968355" lon="10.285435648995424"><ele>876.0</ele><time>2026-05-03T14:36:14Z</time></trkpt><trkpt lat="44.13713736322913" lon="10.28536051404918"><ele>876.0</ele><time>2026-05-03T14:36:15Z</time></trkpt><trkpt lat="44.137070248001415" lon="10.285279491774967"><ele>876.0</ele><time>2026-05-03T14:36:16Z</time></trkpt><trkpt lat="44.137007944332005" lon="10.28513608077345"><ele>876.0</ele><time>2026-05-03T14:36:17Z</time></trkpt><trkpt lat="44.136936643937695" lon="10.284953789380246"><ele>876.0</ele><time>2026-05-03T14:36:18Z</time></trkpt><trkpt lat="44.13691373539541" lon="10.284811795470851"><ele>875.9999999999999</ele><time>2026-05-03T14:36:19Z</time></trkpt><trkpt lat="44.136866148637665" lon="10.28471615994625"><ele>875.9999999999999</ele><time>2026-05-03T14:36:21Z</time></trkpt><trkpt lat="44.13684800437243" lon="10.284585241273003"><ele>876.0</ele><time>2026-05-03T14:36:23Z</time></trkpt><trkpt lat="44.136847566822496" lon="10.284412462626259"><ele>876.0</ele><time>2026-05-03T14:36:24Z</time></trkpt><trkpt lat="44.136807764078235" lon="10.28426840954553"><ele>879.75</ele><time>2026-05-03T14:36:25Z</time></trkpt><trkpt lat="44.13677547720685" lon="10.28414846620993"><ele>883.5</ele><time>2026-05-03T14:36:26Z</time></trkpt><trkpt lat="44.136701716618866" lon="10.284004156374785"><ele>887.25</ele><time>2026-05-03T14:36:27Z</time></trkpt><trkpt lat="44.13660568254237" lon="10.283876344386405"><ele>891.0</ele><time>2026-05-03T14:36:28Z</time></trkpt><trkpt lat="44.13654768465131" lon="10.28376186246874"><ele>892.75</ele><time>2026-05-03T14:36:29Z</time></trkpt><trkpt lat="44.13649916834605" lon="10.283596472372093"><ele>894.5</ele><time>2026-05-03T14:36:30Z</time></trkpt><trkpt lat="44.13643653637965" lon="10.283446382064424"><ele>896.25</ele><time>2026-05-03T14:36:31Z</time></trkpt><trkpt lat="44.13636234318227" lon="10.28331035397489"><ele>898.0</ele><time>2026-05-03T14:36:32Z</time></trkpt><trkpt lat="44.13629965486582" lon="10.283198292493546"><ele>901.2</ele><time>2026-05-03T14:36:33Z</time></trkpt><trkpt lat="44.13634282763768" lon="10.283046058854774"><ele>904.4</ele><time>2026-05-03T14:36:35Z</time></trkpt><trkpt lat="44.136394694056655" lon="10.282945635293975"><ele>907.6000000000001</ele><time>2026-05-03T14:36:36Z</time></trkpt><trkpt lat="44.13647818435403" lon="10.282807220475007"><ele>910.8000000000001</ele><time>2026-05-03T14:36:37Z</time></trkpt><trkpt lat="44.13652230227133" lon="10.28268454257221"><ele>914.0</ele><time>2026-05-03T14:36:38Z</time></trkpt><trkpt lat="44.13651457310711" lon="10.282581009964083"><ele>914.0</ele><time>2026-05-03T14:36:39Z</time></trkpt><trkpt lat="44.13651264014401" lon="10.28241895909696"><ele>914.0000000000001</ele><time>2026-05-03T14:36:40Z</time></trkpt><trkpt lat="44.13653020403728" lon="10.282306255470045"><ele>914.0000000000001</ele><time>2026-05-03T14:36:41Z</time></trkpt><trkpt lat="44.13651676896162" lon="10.282171204476969"><ele>914.0</ele><time>2026-05-03T14:36:42Z</time></trkpt><trkpt lat="44.136477653631" lon="10.281991254373423"><ele>914.0</ele><time>2026-05-03T14:36:43Z</time></trkpt><trkpt lat="44.13641117503645" lon="10.281809172404058"><ele>917.0</ele><time>2026-05-03T14:36:44Z</time></trkpt><trkpt lat="44.136372561493964" lon="10.281705118372003"><ele>920.0000000000001</ele><time>2026-05-03T14:36:45Z</time></trkpt><trkpt lat="44.13632650322954" lon="10.281579462477332"><ele>923.0000000000001</ele><time>2026-05-03T14:36:46Z</time></trkpt><trkpt lat="44.136292456981984" lon="10.28146772160601"><ele>926.0</ele><time>2026-05-03T14:36:47Z</time></trkpt><trkpt lat="44.136265669226894" lon="10.28132583555891"><ele>929.0</ele><time>2026-05-03T14:36:48Z</time></trkpt><trkpt lat="44.13623247521242" lon="10.281181839193223"><ele>931.2</ele><time>2026-05-03T14:36:49Z</time></trkpt><trkpt lat="44.13620780964753" lon="10.281022677641278"><ele>933.4000000000001</ele><time>2026-05-03T14:36:50Z</time></trkpt><trkpt lat="44.13618047904552" lon="10.280918697881479"><ele>935.6</ele><time>2026-05-03T14:36:51Z</time></trkpt><trkpt lat="44.1361329401411" lon="10.280776345953733"><ele>937.8</ele><time>2026-05-03T14:36:53Z</time></trkpt><trkpt lat="44.13608182496315" lon="10.280704165426004"><ele>940.0</ele><time>2026-05-03T14:38:33Z</time></trkpt><trkpt lat="44.13607852037428" lon="10.280595198520494"><ele>942.6</ele><time>2026-05-03T14:38:35Z</time></trkpt><trkpt lat="44.1360904545761" lon="10.280476422241739"><ele>945.2</ele><time>2026-05-03T14:38:36Z</time></trkpt><trkpt lat="44.13609044814992" lon="10.280342765252968"><ele>947.8</ele><time>2026-05-03T14:38:37Z</time></trkpt><trkpt lat="44.13604059559712" lon="10.280245946756116"><ele>950.4</ele><time>2026-05-03T14:38:40Z</time></trkpt><trkpt lat="44.135947999032034" lon="10.280181975188311"><ele>953.0</ele><time>2026-05-03T14:38:42Z</time></trkpt><trkpt lat="44.13587122289362" lon="10.280117651066341"><ele>953.0000000000001</ele><time>2026-05-03T14:38:45Z</time></trkpt><trkpt lat="44.135797226153386" lon="10.280084817970165"><ele>953.0</ele><time>2026-05-03T14:38:48Z</time></trkpt><trkpt lat="44.13575458709783" lon="10.27999024875128"><ele>953.0</ele><time>2026-05-03T14:38:50Z</time></trkpt><trkpt lat="44.135708153333674" lon="10.279882446704228"><ele>953.0</ele><time>2026-05-03T14:38:53Z</time></trkpt><trkpt lat="44.13567707324557" lon="10.279783575363808"><ele>953.0000000000001</ele><time>2026-05-03T14:38:54Z</time></trkpt><trkpt lat="44.135623471958" lon="10.27967062670833"><ele>953.0</ele><time>2026-05-03T14:38:56Z</time></trkpt><trkpt lat="44.135561457668516" lon="10.279589201161388"><ele>953.1666666666667</ele><time>2026-05-03T14:38:58Z</time></trkpt><trkpt lat="44.13554547738816" lon="10.27949429109312"><ele>953.3333333333334</ele><time>2026-05-03T14:38:59Z</time></trkpt><trkpt lat="44.13555329293056" lon="10.279385353850637"><ele>953.5</ele><time>2026-05-03T14:39:01Z</time></trkpt><trkpt lat="44.13555058733524" lon="10.279223115339217"><ele>953.6666666666667</ele><time>2026-05-03T14:39:02Z</time></trkpt><trkpt lat="44.13553308241285" lon="10.279122168411725"><ele>953.8333333333334</ele><time>2026-05-03T14:39:02.999Z</time></trkpt><trkpt lat="44.135552535784285" lon="10.279029311577819"><ele>954.0</ele><time>2026-05-03T14:39:03.999Z</time></trkpt><trkpt lat="44.135626892927675" lon="10.2788663342389"><ele>957.3333333333334</ele><time>2026-05-03T14:39:05.999Z</time></trkpt><trkpt lat="44.13571362213877" lon="10.278825009447049"><ele>960.6666666666667</ele><time>2026-05-03T14:39:06.999Z</time></trkpt><trkpt lat="44.13577474807265" lon="10.278793942699622"><ele>964.0</ele><time>2026-05-03T14:39:08.999Z</time></trkpt><trkpt lat="44.1358402263944" lon="10.278739710411113"><ele>967.3333333333334</ele><time>2026-05-03T14:39:10.999Z</time></trkpt><trkpt lat="44.13588379988917" lon="10.278667632023918"><ele>970.6666666666667</ele><time>2026-05-03T14:39:13.999Z</time></trkpt><trkpt lat="44.1359533997879" lon="10.278606688888546"><ele>974.0</ele><time>2026-05-03T14:39:16.999Z</time></trkpt><trkpt lat="44.135974314589205" lon="10.278466825928431"><ele>975.1666666666667</ele><time>2026-05-03T14:39:18.999Z</time></trkpt><trkpt lat="44.135950004586576" lon="10.278354948240606"><ele>976.3333333333334</ele><time>2026-05-03T14:39:20.999Z</time></trkpt><trkpt lat="44.136009983925774" lon="10.278307368352383"><ele>977.5</ele><time>2026-05-03T14:39:23.999Z</time></trkpt><trkpt lat="44.13606790503405" lon="10.278247769044203"><ele>978.6666666666667</ele><time>2026-05-03T14:39:25.999Z</time></trkpt><trkpt lat="44.13606467307879" lon="10.278143507716772"><ele>979.8333333333334</ele><time>2026-05-03T14:39:29Z</time></trkpt><trkpt lat="44.13601250910608" lon="10.27806695261476"><ele>981.0</ele><time>2026-05-03T14:39:31Z</time></trkpt><trkpt lat="44.135930309879235" lon="10.278003462669231"><ele>982.1666666666666</ele><time>2026-05-03T14:39:33Z</time></trkpt><trkpt lat="44.13584822829482" lon="10.277943656864714"><ele>983.3333333333333</ele><time>2026-05-03T14:39:35Z</time></trkpt><trkpt lat="44.13577157353052" lon="10.277921672030843"><ele>984.5</ele><time>2026-05-03T14:39:36Z</time></trkpt><trkpt lat="44.13570303302273" lon="10.277888675347869"><ele>985.6666666666666</ele><time>2026-05-03T14:39:37Z</time></trkpt><trkpt lat="44.13563141347404" lon="10.277823405734674"><ele>986.8333333333333</ele><time>2026-05-03T14:39:39Z</time></trkpt><trkpt lat="44.13556308735728" lon="10.277764904776456"><ele>988.0</ele><time>2026-05-03T14:39:42Z</time></trkpt><trkpt lat="44.13550265067877" lon="10.277670251247503"><ele>987.9999999999999</ele><time>2026-05-03T14:39:44Z</time></trkpt><trkpt lat="44.135479390616155" lon="10.277561735472279"><ele>988.0</ele><time>2026-05-03T14:39:46Z</time></trkpt><trkpt lat="44.13543438543979" lon="10.277459918660217"><ele>988.0</ele><time>2026-05-03T14:39:49Z</time></trkpt><trkpt lat="44.13544675353315" lon="10.277341978311414"><ele>988.0</ele><time>2026-05-03T14:39:52Z</time></trkpt><trkpt lat="44.13543473731817" lon="10.277223080522104"><ele>987.9999999999999</ele><time>2026-05-03T14:39:55Z</time></trkpt><trkpt lat="44.135465740373355" lon="10.277136587150725"><ele>988.0</ele><time>2026-05-03T14:40:03Z</time></trkpt><trkpt lat="44.13546344027979" lon="10.277030018169201"><ele>990.3333333333333</ele><time>2026-05-03T14:40:10Z</time></trkpt><trkpt lat="44.13550078596231" lon="10.276946968566886"><ele>992.6666666666666</ele><time>2026-05-03T14:40:16Z</time></trkpt><trkpt lat="44.13544267630217" lon="10.27706579405319"><ele>995.0</ele><time>2026-05-03T14:40:20Z</time></trkpt><trkpt lat="44.13539755087506" lon="10.27692195994729"><ele>997.3333333333333</ele><time>2026-05-03T14:40:29Z</time></trkpt><trkpt lat="44.13537000826218" lon="10.276832871876689"><ele>999.6666666666666</ele><time>2026-05-03T14:40:32Z</time></trkpt><trkpt lat="44.1353231231421" lon="10.276740324952788"><ele>1002.0</ele><time>2026-05-03T14:40:35Z</time></trkpt><trkpt lat="44.13528340390147" lon="10.276638198887492"><ele>1002.0</ele><time>2026-05-03T14:40:37Z</time></trkpt><trkpt lat="44.13524485626264" lon="10.276552425459181"><ele>1002.0</ele><time>2026-05-03T14:40:42Z</time></trkpt><trkpt lat="44.135235648746715" lon="10.276419754853361"><ele>1002.0</ele><time>2026-05-03T14:40:45Z</time></trkpt><trkpt lat="44.13520178119233" lon="10.276502098226263"><ele>1002.0</ele><time>2026-05-03T14:40:50Z</time></trkpt><trkpt lat="44.13527730371181" lon="10.276599205076419"><ele>1002.0</ele><time>2026-05-03T14:40:52Z</time></trkpt><trkpt lat="44.13533125383146" lon="10.27666072098508"><ele>1002.0</ele><time>2026-05-03T14:40:53Z</time></trkpt><trkpt lat="44.1353970561637" lon="10.2767193352629"><ele>1002.0</ele><time>2026-05-03T14:40:54Z</time></trkpt><trkpt lat="44.13548125208938" lon="10.276865238508524"><ele>1002.0</ele><time>2026-05-03T14:40:55Z</time></trkpt><trkpt lat="44.13556271245211" lon="10.276935303638899"><ele>1002.0</ele><time>2026-05-03T14:40:56Z</time></trkpt><trkpt lat="44.13561967313632" lon="10.27699468407748"><ele>1002.0</ele><time>2026-05-03T14:40:57Z</time></trkpt><trkpt lat="44.1356904443387" lon="10.277043818115088"><ele>1002.0</ele><time>2026-05-03T14:40:59Z</time></trkpt><trkpt lat="44.13573579661492" lon="10.277116488468392"><ele>1002.0</ele><time>2026-05-03T14:41:04Z</time></trkpt><trkpt lat="44.13572869520743" lon="10.27721762992168"><ele>1002.0</ele><time>2026-05-03T14:41:32.999Z</time></trkpt><trkpt lat="44.13565633303138" lon="10.277262118581762"><ele>1002.0</ele><time>2026-05-03T14:41:37Z</time></trkpt><trkpt lat="44.13558455606563" lon="10.277310695156928"><ele>1002.0</ele><time>2026-05-03T14:41:42Z</time></trkpt><trkpt lat="44.135521906966616" lon="10.277285158152301"><ele>1002.0</ele><time>2026-05-03T14:41:48Z</time></trkpt><trkpt lat="44.13548827383633" lon="10.27716935669473"><ele>1002.0</ele><time>2026-05-03T14:41:51Z</time></trkpt><trkpt lat="44.13543568448082" lon="10.277002808872957"><ele>1002.0</ele><time>2026-05-03T14:41:54Z</time></trkpt><trkpt lat="44.13546596385616" lon="10.276866738548575"><ele>1002.0</ele><time>2026-05-03T14:41:55Z</time></trkpt><trkpt lat="44.135502420435024" lon="10.276666456069327"><ele>1002.0</ele><time>2026-05-03T14:41:56Z</time></trkpt><trkpt lat="44.13538603719599" lon="10.276662254626165"><ele>1002.0</ele><time>2026-05-03T14:42:17Z</time></trkpt><trkpt lat="44.13533445896042" lon="10.276606514545731"><ele>1002.0</ele><time>2026-05-03T14:42:24Z</time></trkpt><trkpt lat="44.13528292410773" lon="10.276548580906443"><ele>1002.0</ele><time>2026-05-03T14:42:30Z</time></trkpt><trkpt lat="44.13523422335953" lon="10.276458580802167"><ele>1002.0</ele><time>2026-05-03T14:42:35Z</time></trkpt><trkpt lat="44.13527823470245" lon="10.276538111046396"><ele>1002.0</ele><time>2026-05-03T14:42:55Z</time></trkpt><trkpt lat="44.13534585408657" lon="10.276672409143726"><ele>1002.0</ele><time>2026-05-03T14:42:56Z</time></trkpt><trkpt lat="44.13537621055192" lon="10.276771292234049"><ele>1002.0</ele><time>2026-05-03T14:42:57Z</time></trkpt><trkpt lat="44.13540940944303" lon="10.27686023331857"><ele>1002.0</ele><time>2026-05-03T14:42:58Z</time></trkpt><trkpt lat="44.13543664421425" lon="10.276946590636635"><ele>1002.0</ele><time>2026-05-03T14:42:59Z</time></trkpt><trkpt lat="44.1354520342246" lon="10.277040263495621"><ele>1002.0</ele><time>2026-05-03T14:43:00Z</time></trkpt><trkpt lat="44.13546132536069" lon="10.277143099769962"><ele>1002.0</ele><time>2026-05-03T14:43:02Z</time></trkpt><trkpt lat="44.135452146890614" lon="10.27725983353836"><ele>1002.0</ele><time>2026-05-03T14:43:04Z</time></trkpt><trkpt lat="44.13548454461608" lon="10.277343934924865"><ele>1002.0</ele><time>2026-05-03T14:43:08Z</time></trkpt><trkpt lat="44.13540582660204" lon="10.277444424915254"><ele>1002.0</ele><time>2026-05-03T14:43:13.999Z</time></trkpt><trkpt lat="44.13542057607102" lon="10.27733588362103"><ele>1002.0</ele><time>2026-05-03T14:43:23.999Z</time></trkpt><trkpt lat="44.13542759888755" lon="10.277182465611421"><ele>1002.0</ele><time>2026-05-03T14:43:41Z</time></trkpt><trkpt lat="44.13541931881752" lon="10.27701522545619"><ele>1002.0</ele><time>2026-05-03T14:43:43Z</time></trkpt><trkpt lat="44.13544698305691" lon="10.276926911092804"><ele>1002.0</ele><time>2026-05-03T14:43:44Z</time></trkpt><trkpt lat="44.135448870576674" lon="10.276802936262042"><ele>1002.0</ele><time>2026-05-03T14:43:46Z</time></trkpt><trkpt lat="44.13538309903406" lon="10.276792354565595"><ele>1002.0</ele><time>2026-05-03T14:43:53Z</time></trkpt><trkpt lat="44.1353132421597" lon="10.27674814029408"><ele>1002.0</ele><time>2026-05-03T14:43:59Z</time></trkpt><trkpt lat="44.13528147985538" lon="10.27664774906359"><ele>1002.0</ele><time>2026-05-03T14:44:12Z</time></trkpt><trkpt lat="44.1352222097013" lon="10.276540089571602"><ele>1002.0</ele><time>2026-05-03T14:44:14Z</time></trkpt><trkpt lat="44.13516533394873" lon="10.276376604814024"><ele>1002.0</ele><time>2026-05-03T14:44:15Z</time></trkpt><trkpt lat="44.13507980166801" lon="10.276194613647919"><ele>1002.0</ele><time>2026-05-03T14:44:16Z</time></trkpt><trkpt lat="44.134977443166534" lon="10.27601770544591"><ele>1000.6666666666667</ele><time>2026-05-03T14:44:17Z</time></trkpt><trkpt lat="44.134867950514284" lon="10.275844528752557"><ele>999.3333333333334</ele><time>2026-05-03T14:44:18Z</time></trkpt><trkpt lat="44.13474365029619" lon="10.275630103676459"><ele>998.0</ele><time>2026-05-03T14:44:19Z</time></trkpt><trkpt lat="44.13458416670984" lon="10.275455903237688"><ele>998.0</ele><time>2026-05-03T14:44:20Z</time></trkpt><trkpt lat="44.134433472443774" lon="10.275271618706142"><ele>998.0</ele><time>2026-05-03T14:44:21Z</time></trkpt><trkpt lat="44.134307151144505" lon="10.275114403245382"><ele>998.0</ele><time>2026-05-03T14:44:22Z</time></trkpt><trkpt lat="44.134203019006144" lon="10.274974149481153"><ele>998.0</ele><time>2026-05-03T14:44:23Z</time></trkpt><trkpt lat="44.134128633897454" lon="10.274877658100056"><ele>998.0</ele><time>2026-05-03T14:44:24Z</time></trkpt><trkpt lat="44.13405615641566" lon="10.27478942460985"><ele>998.0</ele><time>2026-05-03T14:44:25Z</time></trkpt><trkpt lat="44.13396155403991" lon="10.27474224980328"><ele>998.0</ele><time>2026-05-03T14:44:26Z</time></trkpt><trkpt lat="44.13382917896256" lon="10.274721400803008"><ele>998.0</ele><time>2026-05-03T14:44:27Z</time></trkpt><trkpt lat="44.13367523996617" lon="10.274664331361452"><ele>996.3333333333334</ele><time>2026-05-03T14:44:28Z</time></trkpt><trkpt lat="44.133513753898264" lon="10.274570794030412"><ele>994.6666666666667</ele><time>2026-05-03T14:44:29Z</time></trkpt><trkpt lat="44.13333958813309" lon="10.274449512927104"><ele>993.0</ele><time>2026-05-03T14:44:30Z</time></trkpt><trkpt lat="44.13318008461809" lon="10.27430462544367"><ele>995.0</ele><time>2026-05-03T14:44:31Z</time></trkpt><trkpt lat="44.133031724747205" lon="10.274159832390346"><ele>997.0</ele><time>2026-05-03T14:44:32Z</time></trkpt><trkpt lat="44.13288865771186" lon="10.274019474104302"><ele>999.0</ele><time>2026-05-03T14:44:33Z</time></trkpt><trkpt lat="44.132788812897864" lon="10.27389547027895"><ele>999.0</ele><time>2026-05-03T14:44:34Z</time></trkpt><trkpt lat="44.13270502412956" lon="10.273754987458473"><ele>999.0</ele><time>2026-05-03T14:44:35Z</time></trkpt><trkpt lat="44.132649531784445" lon="10.273619459923518"><ele>999.0</ele><time>2026-05-03T14:44:36Z</time></trkpt><trkpt lat="44.13262729911556" lon="10.273472505305957"><ele>999.0</ele><time>2026-05-03T14:44:37Z</time></trkpt><trkpt lat="44.13257727053252" lon="10.273276429990107"><ele>999.0</ele><time>2026-05-03T14:44:38Z</time></trkpt><trkpt lat="44.13252745763498" lon="10.273087160783877"><ele>999.0000000000001</ele><time>2026-05-03T14:44:39Z</time></trkpt><trkpt lat="44.132470563397355" lon="10.272983644071656"><ele>999.0000000000001</ele><time>2026-05-03T14:44:40Z</time></trkpt><trkpt lat="44.13243163291638" lon="10.272900231356203"><ele>999.0</ele><time>2026-05-03T14:44:41Z</time></trkpt><trkpt lat="44.13234091860486" lon="10.272791094744434"><ele>999.0</ele><time>2026-05-03T14:44:42Z</time></trkpt><trkpt lat="44.1322228425622" lon="10.272644447506266"><ele>999.0</ele><time>2026-05-03T14:44:43Z</time></trkpt><trkpt lat="44.1321526163997" lon="10.272469077383434"><ele>999.0000000000001</ele><time>2026-05-03T14:44:44Z</time></trkpt><trkpt lat="44.13207559925527" lon="10.272327234501518"><ele>999.0000000000001</ele><time>2026-05-03T14:44:45Z</time></trkpt><trkpt lat="44.13202018486142" lon="10.272221712287129"><ele>999.0</ele><time>2026-05-03T14:44:46Z</time></trkpt><trkpt lat="44.13195118528431" lon="10.27217597852414"><ele>999.0</ele><time>2026-05-03T14:44:47Z</time></trkpt><trkpt lat="44.131877415146405" lon="10.272102283909716"><ele>997.1666666666666</ele><time>2026-05-03T14:44:48Z</time></trkpt><trkpt lat="44.1318087353546" lon="10.272052922110626"><ele>995.3333333333333</ele><time>2026-05-03T14:44:49Z</time></trkpt><trkpt lat="44.13173219851442" lon="10.271995527003053"><ele>993.5</ele><time>2026-05-03T14:44:50Z</time></trkpt><trkpt lat="44.13164460137223" lon="10.271952790625868"><ele>991.6666666666666</ele><time>2026-05-03T14:44:51Z</time></trkpt><trkpt lat="44.131567131659146" lon="10.271896173319382"><ele>989.8333333333333</ele><time>2026-05-03T14:44:52Z</time></trkpt><trkpt lat="44.13148407197304" lon="10.27188230367066"><ele>988.0</ele><time>2026-05-03T14:44:53Z</time></trkpt><trkpt lat="44.131397374652664" lon="10.271859715224661"><ele>987.9999999999999</ele><time>2026-05-03T14:44:54Z</time></trkpt><trkpt lat="44.13131036788251" lon="10.271851339486496"><ele>988.0</ele><time>2026-05-03T14:44:55Z</time></trkpt><trkpt lat="44.13122759987794" lon="10.271846763872878"><ele>988.0</ele><time>2026-05-03T14:44:56Z</time></trkpt><trkpt lat="44.131154157724865" lon="10.271855817485118"><ele>988.0</ele><time>2026-05-03T14:44:57Z</time></trkpt><trkpt lat="44.13108898197762" lon="10.271892921691174"><ele>987.9999999999999</ele><time>2026-05-03T14:44:58Z</time></trkpt><trkpt lat="44.13102980581862" lon="10.271935903120584"><ele>988.0</ele><time>2026-05-03T14:44:59Z</time></trkpt><trkpt lat="44.13097012604524" lon="10.271986725765919"><ele>987.9999999999999</ele><time>2026-05-03T14:45:00Z</time></trkpt><trkpt lat="44.13091760782442" lon="10.272043791314735"><ele>988.0</ele><time>2026-05-03T14:45:01Z</time></trkpt><trkpt lat="44.130812233438284" lon="10.272133499473243"><ele>988.0</ele><time>2026-05-03T14:45:03Z</time></trkpt><trkpt lat="44.130749268730206" lon="10.272165151076868"><ele>988.0</ele><time>2026-05-03T14:45:04Z</time></trkpt><trkpt lat="44.1306833353097" lon="10.272167808646225"><ele>987.9999999999999</ele><time>2026-05-03T14:45:05Z</time></trkpt><trkpt lat="44.13061393797861" lon="10.272150036684321"><ele>988.0</ele><time>2026-05-03T14:45:06Z</time></trkpt><trkpt lat="44.13055159937537" lon="10.272107863030847"><ele>988.1428571428571</ele><time>2026-05-03T14:45:07Z</time></trkpt><trkpt lat="44.130481146006204" lon="10.272085038136485"><ele>988.2857142857142</ele><time>2026-05-03T14:45:08Z</time></trkpt><trkpt lat="44.13040717161892" lon="10.272087887747215"><ele>988.4285714285713</ele><time>2026-05-03T14:45:09Z</time></trkpt><trkpt lat="44.13033899529256" lon="10.272116914965922"><ele>988.5714285714286</ele><time>2026-05-03T14:45:10Z</time></trkpt><trkpt lat="44.13027861534029" lon="10.272153429514738"><ele>988.7142857142856</ele><time>2026-05-03T14:45:11Z</time></trkpt><trkpt lat="44.130227405055386" lon="10.272211580274876"><ele>988.8571428571428</ele><time>2026-05-03T14:45:12Z</time></trkpt><trkpt lat="44.13016770984165" lon="10.272287118297541"><ele>989.0</ele><time>2026-05-03T14:45:13Z</time></trkpt><trkpt lat="44.130107106357364" lon="10.27236350758111"><ele>991.3333333333334</ele><time>2026-05-03T14:45:14Z</time></trkpt><trkpt lat="44.130047176457765" lon="10.272433711766553"><ele>993.6666666666667</ele><time>2026-05-03T14:45:15Z</time></trkpt><trkpt lat="44.12997410060268" lon="10.272503007174894"><ele>996.0</ele><time>2026-05-03T14:45:16Z</time></trkpt><trkpt lat="44.12988985604224" lon="10.272546371129875"><ele>998.3333333333333</ele><time>2026-05-03T14:45:17Z</time></trkpt><trkpt lat="44.12979590068095" lon="10.272558153646024"><ele>1000.6666666666666</ele><time>2026-05-03T14:45:18Z</time></trkpt><trkpt lat="44.129705850558274" lon="10.27252799020685"><ele>1003.0</ele><time>2026-05-03T14:45:19Z</time></trkpt><trkpt lat="44.12961424469288" lon="10.272479100735502"><ele>1003.4</ele><time>2026-05-03T14:45:20Z</time></trkpt><trkpt lat="44.129509757375004" lon="10.272412711264536"><ele>1003.8</ele><time>2026-05-03T14:45:21Z</time></trkpt><trkpt lat="44.1294136791278" lon="10.272375344603223"><ele>1004.2</ele><time>2026-05-03T14:45:22Z</time></trkpt><trkpt lat="44.12932001087427" lon="10.272327682256542"><ele>1004.6</ele><time>2026-05-03T14:45:23Z</time></trkpt><trkpt lat="44.12924773852312" lon="10.272270022521338"><ele>1005.0</ele><time>2026-05-03T14:45:24Z</time></trkpt><trkpt lat="44.1291951013264" lon="10.272201444535021"><ele>1005.0</ele><time>2026-05-03T14:45:25Z</time></trkpt><trkpt lat="44.12916293844881" lon="10.272049340859787"><ele>1005.0</ele><time>2026-05-03T14:45:27Z</time></trkpt><trkpt lat="44.12917612873364" lon="10.271942302231478"><ele>1005.0</ele><time>2026-05-03T14:45:28Z</time></trkpt><trkpt lat="44.12919430482546" lon="10.271815541257112"><ele>1005.0</ele><time>2026-05-03T14:45:29Z</time></trkpt><trkpt lat="44.12921452001644" lon="10.27168304871474"><ele>1005.0</ele><time>2026-05-03T14:45:30Z</time></trkpt><trkpt lat="44.12921882058883" lon="10.271570078138117"><ele>1005.0</ele><time>2026-05-03T14:45:30.999Z</time></trkpt><trkpt lat="44.12923165376532" lon="10.271463655912765"><ele>1005.0</ele><time>2026-05-03T14:45:31.999Z</time></trkpt><trkpt lat="44.12918401795956" lon="10.27134928431601"><ele>1005.0</ele><time>2026-05-03T14:45:32.999Z</time></trkpt><trkpt lat="44.12912659695964" lon="10.27121528116874"><ele>1005.0</ele><time>2026-05-03T14:45:33.999Z</time></trkpt><trkpt lat="44.12908996079525" lon="10.2710745730057"><ele>1005.0</ele><time>2026-05-03T14:45:34.999Z</time></trkpt><trkpt lat="44.129053947204824" lon="10.270927905092119"><ele>1006.6</ele><time>2026-05-03T14:45:35.999Z</time></trkpt><trkpt lat="44.12899547924848" lon="10.270777700486766"><ele>1008.2</ele><time>2026-05-03T14:45:36.999Z</time></trkpt><trkpt lat="44.12892678206884" lon="10.27063754764472"><ele>1009.8</ele><time>2026-05-03T14:45:37.999Z</time></trkpt><trkpt lat="44.12888558042408" lon="10.270516501314269"><ele>1011.4</ele><time>2026-05-03T14:45:38.999Z</time></trkpt><trkpt lat="44.12886896220938" lon="10.270399049242844"><ele>1013.0</ele><time>2026-05-03T14:45:39.999Z</time></trkpt><trkpt lat="44.12887123026923" lon="10.27026679114652"><ele>1013.0</ele><time>2026-05-03T14:45:40.999Z</time></trkpt><trkpt lat="44.12888178689121" lon="10.27011599917644"><ele>1013.0</ele><time>2026-05-03T14:45:41.999Z</time></trkpt><trkpt lat="44.12888315599851" lon="10.269971110317126"><ele>1013.0</ele><time>2026-05-03T14:45:42.999Z</time></trkpt><trkpt lat="44.12886249113243" lon="10.269816474754744"><ele>1013.0</ele><time>2026-05-03T14:45:43.999Z</time></trkpt><trkpt lat="44.128832400955545" lon="10.26966960467682"><ele>1013.0</ele><time>2026-05-03T14:45:44.999Z</time></trkpt><trkpt lat="44.12883315213586" lon="10.269538300473902"><ele>1011.5</ele><time>2026-05-03T14:45:46Z</time></trkpt><trkpt lat="44.128901657113836" lon="10.26939053202554"><ele>1010.0</ele><time>2026-05-03T14:45:47Z</time></trkpt><trkpt lat="44.128957006862706" lon="10.269229071669024"><ele>1008.5</ele><time>2026-05-03T14:45:48Z</time></trkpt><trkpt lat="44.129043466209744" lon="10.26907005389208"><ele>1007.0</ele><time>2026-05-03T14:45:49Z</time></trkpt><trkpt lat="44.12912378706807" lon="10.268939469876221"><ele>1006.3333333333334</ele><time>2026-05-03T14:45:50Z</time></trkpt><trkpt lat="44.12918733825397" lon="10.268827853634555"><ele>1005.6666666666667</ele><time>2026-05-03T14:45:51Z</time></trkpt><trkpt lat="44.129226643042415" lon="10.268723496540268"><ele>1005.0</ele><time>2026-05-03T14:45:52Z</time></trkpt><trkpt lat="44.12925514563777" lon="10.268638478009091"><ele>1004.3333333333333</ele><time>2026-05-03T14:45:53Z</time></trkpt><trkpt lat="44.129257258308115" lon="10.268492547668632"><ele>1003.6666666666666</ele><time>2026-05-03T14:45:55Z</time></trkpt><trkpt lat="44.12927634069847" lon="10.268404174694972"><ele>1003.0</ele><time>2026-05-03T14:45:58Z</time></trkpt><trkpt lat="44.12927939657543" lon="10.268312877635339"><ele>1003.0</ele><time>2026-05-03T14:46:25Z</time></trkpt><trkpt lat="44.1293356946314" lon="10.268224665886596"><ele>1003.0</ele><time>2026-05-03T14:47:07Z</time></trkpt><trkpt lat="44.129375707194505" lon="10.268107102811674"><ele>1003.0</ele><time>2026-05-03T14:47:09Z</time></trkpt><trkpt lat="44.129382119941326" lon="10.268012846768025"><ele>1003.0</ele><time>2026-05-03T14:47:10Z</time></trkpt><trkpt lat="44.12938399091105" lon="10.267882004033329"><ele>1003.0</ele><time>2026-05-03T14:47:11Z</time></trkpt><trkpt lat="44.12936676549008" lon="10.267728442837141"><ele>1003.0</ele><time>2026-05-03T14:47:12Z</time></trkpt><trkpt lat="44.12935897457906" lon="10.267544837864156"><ele>1003.0</ele><time>2026-05-03T14:47:13Z</time></trkpt><trkpt lat="44.1293549495843" lon="10.267356557457294"><ele>1003.0</ele><time>2026-05-03T14:47:14Z</time></trkpt><trkpt lat="44.12935276250462" lon="10.267198388014101"><ele>1003.0</ele><time>2026-05-03T14:47:15Z</time></trkpt><trkpt lat="44.129339813824046" lon="10.267056063118797"><ele>1003.0</ele><time>2026-05-03T14:47:16Z</time></trkpt><trkpt lat="44.12929012839216" lon="10.266928200965708"><ele>1003.0</ele><time>2026-05-03T14:47:17Z</time></trkpt><trkpt lat="44.12922032877219" lon="10.266819595298935"><ele>1003.0</ele><time>2026-05-03T14:47:18Z</time></trkpt><trkpt lat="44.12915826574881" lon="10.266715057553714"><ele>1003.0</ele><time>2026-05-03T14:47:19Z</time></trkpt><trkpt lat="44.12913182225272" lon="10.266616978579803"><ele>1003.0</ele><time>2026-05-03T14:47:20Z</time></trkpt><trkpt lat="44.12912345069289" lon="10.266492468768753"><ele>1004.0</ele><time>2026-05-03T14:47:21Z</time></trkpt><trkpt lat="44.12914857808909" lon="10.266357749574441"><ele>1005.0</ele><time>2026-05-03T14:47:22Z</time></trkpt><trkpt lat="44.12915448161693" lon="10.266199039799014"><ele>1006.0</ele><time>2026-05-03T14:47:23Z</time></trkpt><trkpt lat="44.12918009705006" lon="10.266036461970087"><ele>1007.0</ele><time>2026-05-03T14:47:24Z</time></trkpt><trkpt lat="44.12920803802706" lon="10.265885994867967"><ele>1008.0</ele><time>2026-05-03T14:47:25Z</time></trkpt><trkpt lat="44.12922048554405" lon="10.265742999896563"><ele>1007.3333333333334</ele><time>2026-05-03T14:47:26Z</time></trkpt><trkpt lat="44.12925451003938" lon="10.26560633463777"><ele>1006.6666666666667</ele><time>2026-05-03T14:47:27Z</time></trkpt><trkpt lat="44.12925800030153" lon="10.265473696938908"><ele>1006.0</ele><time>2026-05-03T14:47:28Z</time></trkpt><trkpt lat="44.12926360338889" lon="10.265372870779855"><ele>1005.3333333333334</ele><time>2026-05-03T14:47:29Z</time></trkpt><trkpt lat="44.12925233704104" lon="10.265273597214748"><ele>1004.6666666666667</ele><time>2026-05-03T14:47:30Z</time></trkpt><trkpt lat="44.12924143543383" lon="10.265179432888056"><ele>1004.0</ele><time>2026-05-03T14:47:31Z</time></trkpt><trkpt lat="44.12924032446082" lon="10.265069197157516"><ele>1004.0000000000001</ele><time>2026-05-03T14:47:32Z</time></trkpt><trkpt lat="44.1292455989459" lon="10.264975637084376"><ele>1004.0</ele><time>2026-05-03T14:47:33Z</time></trkpt><trkpt lat="44.12924853081363" lon="10.264871735656952"><ele>1004.0</ele><time>2026-05-03T14:47:34Z</time></trkpt><trkpt lat="44.129264619343644" lon="10.264772758103245"><ele>1004.0</ele><time>2026-05-03T14:47:35Z</time></trkpt><trkpt lat="44.1292942269025" lon="10.264684382094929"><ele>1004.0000000000001</ele><time>2026-05-03T14:47:36Z</time></trkpt><trkpt lat="44.12935180198033" lon="10.26460756052091"><ele>1004.0</ele><time>2026-05-03T14:47:37Z</time></trkpt><trkpt lat="44.129401687844464" lon="10.264487545771495"><ele>1001.6666666666667</ele><time>2026-05-03T14:47:38Z</time></trkpt><trkpt lat="44.129413108580046" lon="10.2643921743715"><ele>999.3333333333334</ele><time>2026-05-03T14:47:39Z</time></trkpt><trkpt lat="44.12941798499023" lon="10.264257864205703"><ele>997.0</ele><time>2026-05-03T14:47:40Z</time></trkpt><trkpt lat="44.129435354134635" lon="10.264121851262683"><ele>994.6666666666667</ele><time>2026-05-03T14:47:41Z</time></trkpt><trkpt lat="44.12946514365626" lon="10.26400024360848"><ele>992.3333333333334</ele><time>2026-05-03T14:47:42Z</time></trkpt><trkpt lat="44.12948865876714" lon="10.263877124671055"><ele>990.0</ele><time>2026-05-03T14:47:43Z</time></trkpt><trkpt lat="44.12949902161145" lon="10.26376441378976"><ele>988.3333333333334</ele><time>2026-05-03T14:47:44Z</time></trkpt><trkpt lat="44.12951455896505" lon="10.263659930768865"><ele>986.6666666666667</ele><time>2026-05-03T14:47:45Z</time></trkpt><trkpt lat="44.129553608957195" lon="10.263569953289265"><ele>985.0</ele><time>2026-05-03T14:47:46Z</time></trkpt><trkpt lat="44.129583145935214" lon="10.263459935037075"><ele>983.3333333333334</ele><time>2026-05-03T14:47:47Z</time></trkpt><trkpt lat="44.12963329672095" lon="10.263366116620592"><ele>981.6666666666667</ele><time>2026-05-03T14:47:48Z</time></trkpt><trkpt lat="44.12967122137547" lon="10.26326946766399"><ele>980.0</ele><time>2026-05-03T14:47:49Z</time></trkpt><trkpt lat="44.12971754434114" lon="10.263178229125577"><ele>978.0000000000001</ele><time>2026-05-03T14:47:50Z</time></trkpt><trkpt lat="44.12976001342972" lon="10.263095644177682"><ele>976.0</ele><time>2026-05-03T14:47:51Z</time></trkpt><trkpt lat="44.12978064522489" lon="10.263001366432345"><ele>974.0</ele><time>2026-05-03T14:47:52Z</time></trkpt><trkpt lat="44.12975202706644" lon="10.262868375811045"><ele>972.0</ele><time>2026-05-03T14:47:53Z</time></trkpt><trkpt lat="44.12979376148648" lon="10.262769768295136"><ele>970.0000000000001</ele><time>2026-05-03T14:47:54Z</time></trkpt><trkpt lat="44.12982898056482" lon="10.262672980643162"><ele>968.0</ele><time>2026-05-03T14:47:55Z</time></trkpt><trkpt lat="44.12985141705216" lon="10.26258231332426"><ele>968.0</ele><time>2026-05-03T14:47:56Z</time></trkpt><trkpt lat="44.12988581194302" lon="10.262421945698327"><ele>968.0</ele><time>2026-05-03T14:47:58Z</time></trkpt><trkpt lat="44.12990534391741" lon="10.262260916817803"><ele>968.0</ele><time>2026-05-03T14:48:00Z</time></trkpt><trkpt lat="44.129893167945426" lon="10.26211816141974"><ele>968.0</ele><time>2026-05-03T14:48:02Z</time></trkpt><trkpt lat="44.12986187479386" lon="10.261983354345336"><ele>968.0</ele><time>2026-05-03T14:48:04Z</time></trkpt><trkpt lat="44.129820714159294" lon="10.261914058779348"><ele>968.0</ele><time>2026-05-03T14:48:09Z</time></trkpt><trkpt lat="44.129796961749065" lon="10.262020331786273"><ele>968.0</ele><time>2026-05-03T14:48:23Z</time></trkpt><trkpt lat="44.12978046369727" lon="10.262182478431571"><ele>968.0</ele><time>2026-05-03T14:48:25Z</time></trkpt><trkpt lat="44.12974878060635" lon="10.262363571718048"><ele>968.0</ele><time>2026-05-03T14:48:27Z</time></trkpt><trkpt lat="44.12970956514375" lon="10.262490519309218"><ele>968.0</ele><time>2026-05-03T14:48:28Z</time></trkpt><trkpt lat="44.1296644417769" lon="10.262591024694729"><ele>968.0</ele><time>2026-05-03T14:48:29Z</time></trkpt><trkpt lat="44.12958772869953" lon="10.26274338763815"><ele>968.0</ele><time>2026-05-03T14:48:31Z</time></trkpt><trkpt lat="44.12953632735233" lon="10.26283645484069"><ele>968.0</ele><time>2026-05-03T14:48:32Z</time></trkpt><trkpt lat="44.12946287649524" lon="10.262914824591752"><ele>968.0</ele><time>2026-05-03T14:48:33Z</time></trkpt><trkpt lat="44.12940632058441" lon="10.26300506183354"><ele>968.0</ele><time>2026-05-03T14:48:34Z</time></trkpt><trkpt lat="44.12937506119744" lon="10.263086932451138"><ele>970.0000000000001</ele><time>2026-05-03T14:48:35Z</time></trkpt><trkpt lat="44.129346829970075" lon="10.263177371882511"><ele>972.0</ele><time>2026-05-03T14:48:36Z</time></trkpt><trkpt lat="44.12925610758985" lon="10.263279465641"><ele>974.0</ele><time>2026-05-03T14:48:38Z</time></trkpt><trkpt lat="44.129193997364254" lon="10.263313172249404"><ele>976.0</ele><time>2026-05-03T14:48:39Z</time></trkpt><trkpt lat="44.12912117942536" lon="10.263312436661145"><ele>978.0000000000001</ele><time>2026-05-03T14:48:40Z</time></trkpt><trkpt lat="44.12902710820383" lon="10.263335800223851"><ele>980.0</ele><time>2026-05-03T14:48:42Z</time></trkpt><trkpt lat="44.12892861246089" lon="10.2634611798921"><ele>975.5000000000001</ele><time>2026-05-03T14:48:44Z</time></trkpt><trkpt lat="44.12888982606362" lon="10.263558758014177"><ele>971.0</ele><time>2026-05-03T14:48:45Z</time></trkpt><trkpt lat="44.128827793453816" lon="10.263644225443077"><ele>966.5</ele><time>2026-05-03T14:48:46Z</time></trkpt><trkpt lat="44.12876020516856" lon="10.263815289974103"><ele>962.0</ele><time>2026-05-03T14:48:48Z</time></trkpt><trkpt lat="44.12875009297481" lon="10.263902372381745"><ele>957.5000000000001</ele><time>2026-05-03T14:48:49Z</time></trkpt><trkpt lat="44.12872613614525" lon="10.264005066377052"><ele>953.0</ele><time>2026-05-03T14:48:50Z</time></trkpt><trkpt lat="44.12866585422684" lon="10.264086685713417"><ele>953.0</ele><time>2026-05-03T14:48:51Z</time></trkpt><trkpt lat="44.12864923628225" lon="10.264176569047748"><ele>953.0</ele><time>2026-05-03T14:48:52Z</time></trkpt><trkpt lat="44.12861314234961" lon="10.264273528207582"><ele>953.0</ele><time>2026-05-03T14:48:53Z</time></trkpt><trkpt lat="44.12856607367208" lon="10.264373290437481"><ele>953.0</ele><time>2026-05-03T14:48:54Z</time></trkpt><trkpt lat="44.12851509487895" lon="10.264538185635617"><ele>953.0</ele><time>2026-05-03T14:48:55Z</time></trkpt><trkpt lat="44.128487716913604" lon="10.26465775633051"><ele>953.0000000000001</ele><time>2026-05-03T14:48:56Z</time></trkpt><trkpt lat="44.128467913396655" lon="10.26476094802942"><ele>953.0</ele><time>2026-05-03T14:48:57Z</time></trkpt><trkpt lat="44.12844858807866" lon="10.264858166102321"><ele>953.0</ele><time>2026-05-03T14:48:58Z</time></trkpt><trkpt lat="44.12841195611712" lon="10.264958820196851"><ele>953.0</ele><time>2026-05-03T14:48:59Z</time></trkpt><trkpt lat="44.128376072179094" lon="10.265118015988216"><ele>953.0000000000001</ele><time>2026-05-03T14:49:01Z</time></trkpt><trkpt lat="44.12837702451213" lon="10.26522693236216"><ele>953.0</ele><time>2026-05-03T14:49:02Z</time></trkpt><trkpt lat="44.12836917133795" lon="10.265344413087687"><ele>953.0000000000001</ele><time>2026-05-03T14:49:03Z</time></trkpt><trkpt lat="44.128337786420715" lon="10.265442195293408"><ele>953.0</ele><time>2026-05-03T14:49:04Z</time></trkpt><trkpt lat="44.12828566234113" lon="10.26551396534098"><ele>953.0</ele><time>2026-05-03T14:49:05Z</time></trkpt><trkpt lat="44.12824806459841" lon="10.26560802609028"><ele>953.0</ele><time>2026-05-03T14:49:06Z</time></trkpt><trkpt lat="44.128206479689204" lon="10.265736290300758"><ele>953.0000000000001</ele><time>2026-05-03T14:49:08Z</time></trkpt><trkpt lat="44.1282218772317" lon="10.265888391131266"><ele>953.0</ele><time>2026-05-03T14:49:10Z</time></trkpt><trkpt lat="44.128189074558435" lon="10.266004939688695"><ele>946.5000000000001</ele><time>2026-05-03T14:49:12Z</time></trkpt><trkpt lat="44.12811792672547" lon="10.266146049932733"><ele>940.0</ele><time>2026-05-03T14:49:14Z</time></trkpt><trkpt lat="44.12807210183629" lon="10.266208268729741"><ele>933.5</ele><time>2026-05-03T14:49:15Z</time></trkpt><trkpt lat="44.12803639671526" lon="10.266319341423051"><ele>927.0</ele><time>2026-05-03T14:49:17Z</time></trkpt><trkpt lat="44.12802949568436" lon="10.266416191406982"><ele>920.5000000000001</ele><time>2026-05-03T14:49:19Z</time></trkpt><trkpt lat="44.12804654200401" lon="10.266523847337067"><ele>914.0</ele><time>2026-05-03T14:49:22Z</time></trkpt><trkpt lat="44.12809019224355" lon="10.266640185623475"><ele>913.4000000000001</ele><time>2026-05-03T14:49:24Z</time></trkpt><trkpt lat="44.1281210476293" lon="10.266767129703286"><ele>912.8000000000001</ele><time>2026-05-03T14:49:26Z</time></trkpt><trkpt lat="44.128095915780705" lon="10.266910010784663"><ele>912.1999999999999</ele><time>2026-05-03T14:49:28Z</time></trkpt><trkpt lat="44.12804294395757" lon="10.267047038963028"><ele>911.5999999999999</ele><time>2026-05-03T14:49:30Z</time></trkpt><trkpt lat="44.12800542915657" lon="10.267135062014024"><ele>911.0</ele><time>2026-05-03T14:49:32Z</time></trkpt><trkpt lat="44.127970629325446" lon="10.267057447081564"><ele>911.0000000000001</ele><time>2026-05-03T14:49:35Z</time></trkpt><trkpt lat="44.127950608313405" lon="10.266925492462933"><ele>911.0</ele><time>2026-05-03T14:49:37Z</time></trkpt><trkpt lat="44.12791032725952" lon="10.266801869231578"><ele>911.0</ele><time>2026-05-03T14:49:39Z</time></trkpt><trkpt lat="44.12791178880645" lon="10.266902841768525"><ele>911.0</ele><time>2026-05-03T14:50:05Z</time></trkpt><trkpt lat="44.12789116615486" lon="10.26699995702838"><ele>911.0000000000001</ele><time>2026-05-03T14:50:08Z</time></trkpt><trkpt lat="44.127858580963895" lon="10.267116069350065"><ele>911.0</ele><time>2026-05-03T14:50:10Z</time></trkpt><trkpt lat="44.127808483884" lon="10.267204507821113"><ele>911.6666666666667</ele><time>2026-05-03T14:50:14Z</time></trkpt><trkpt lat="44.127770780822644" lon="10.267335784930403"><ele>912.3333333333334</ele><time>2026-05-03T14:50:17Z</time></trkpt><trkpt lat="44.127719694152134" lon="10.267428924484186"><ele>913.0</ele><time>2026-05-03T14:50:19Z</time></trkpt><trkpt lat="44.127636905554255" lon="10.267464185804057"><ele>913.6666666666667</ele><time>2026-05-03T14:50:21Z</time></trkpt><trkpt lat="44.127556179263" lon="10.267502570582243"><ele>914.3333333333334</ele><time>2026-05-03T14:50:23Z</time></trkpt><trkpt lat="44.127520897136385" lon="10.267604607974052"><ele>915.0</ele><time>2026-05-03T14:50:26Z</time></trkpt><trkpt lat="44.12747814417684" lon="10.267674888851728"><ele>915.0</ele><time>2026-05-03T14:50:28Z</time></trkpt><trkpt lat="44.127418902516226" lon="10.267731995470982"><ele>915.0000000000001</ele><time>2026-05-03T14:50:31Z</time></trkpt><trkpt lat="44.12735369691299" lon="10.267744311908778"><ele>915.0</ele><time>2026-05-03T14:50:34Z</time></trkpt><trkpt lat="44.12737395803575" lon="10.267647511916644"><ele>915.0</ele><time>2026-05-03T14:50:37Z</time></trkpt><trkpt lat="44.12740427807659" lon="10.267552663769793"><ele>915.0000000000001</ele><time>2026-05-03T14:50:39Z</time></trkpt><trkpt lat="44.12738557134959" lon="10.267467741367552"><ele>915.0</ele><time>2026-05-03T14:50:42Z</time></trkpt><trkpt lat="44.127394353153726" lon="10.267380532247767"><ele>915.0</ele><time>2026-05-03T14:50:52Z</time></trkpt><trkpt lat="44.127423413595125" lon="10.267295248532104"><ele>914.4285714285714</ele><time>2026-05-03T14:50:55Z</time></trkpt><trkpt lat="44.12746037289892" lon="10.267222386789255"><ele>913.8571428571429</ele><time>2026-05-03T14:50:58Z</time></trkpt><trkpt lat="44.127425639648074" lon="10.267135303041089"><ele>913.2857142857143</ele><time>2026-05-03T14:51:01Z</time></trkpt><trkpt lat="44.127388305143455" lon="10.267046629579495"><ele>912.7142857142858</ele><time>2026-05-03T14:51:04Z</time></trkpt><trkpt lat="44.127363269726" lon="10.266948346149785"><ele>912.1428571428571</ele><time>2026-05-03T14:51:07Z</time></trkpt><trkpt lat="44.127306272110616" lon="10.266894466182892"><ele>911.5714285714287</ele><time>2026-05-03T14:51:13Z</time></trkpt><trkpt lat="44.127252800533064" lon="10.266831935745293"><ele>911.0</ele><time>2026-05-03T14:51:19Z</time></trkpt><trkpt lat="44.127204830764384" lon="10.266769022734742"><ele>905.4285714285714</ele><time>2026-05-03T14:51:22Z</time></trkpt><trkpt lat="44.12714952479203" lon="10.266717677043596"><ele>899.8571428571428</ele><time>2026-05-03T14:51:26Z</time></trkpt><trkpt lat="44.127085602320186" lon="10.266688708581386"><ele>894.2857142857142</ele><time>2026-05-03T14:51:46Z</time></trkpt><trkpt lat="44.12702823810696" lon="10.26663518409055"><ele>888.7142857142858</ele><time>2026-05-03T14:51:48Z</time></trkpt><trkpt lat="44.126960341843926" lon="10.26660909757751"><ele>883.1428571428571</ele><time>2026-05-03T14:51:55Z</time></trkpt><trkpt lat="44.126896567795335" lon="10.266558028433062"><ele>877.5714285714286</ele><time>2026-05-03T14:51:59Z</time></trkpt><trkpt lat="44.12682586395307" lon="10.26651513109484"><ele>872.0</ele><time>2026-05-03T14:52:02Z</time></trkpt><trkpt lat="44.12676606416799" lon="10.266472764813845"><ele>872.0</ele><time>2026-05-03T14:52:08Z</time></trkpt><trkpt lat="44.126776913404676" lon="10.266560348483491"><ele>872.0</ele><time>2026-05-03T14:52:23Z</time></trkpt><trkpt lat="44.12679444403786" lon="10.26664469719045"><ele>872.0</ele><time>2026-05-03T14:52:34Z</time></trkpt><trkpt lat="44.12683122322222" lon="10.266734329364324"><ele>872.0</ele><time>2026-05-03T14:52:45Z</time></trkpt><trkpt lat="44.12685612990217" lon="10.266821996538344"><ele>872.0</ele><time>2026-05-03T14:52:54Z</time></trkpt><trkpt lat="44.126880899357445" lon="10.266904275315134"><ele>872.0</ele><time>2026-05-03T14:53:02Z</time></trkpt><trkpt lat="44.12691119045735" lon="10.266996497241877"><ele>872.0</ele><time>2026-05-03T14:53:13Z</time></trkpt><trkpt lat="44.12687364709894" lon="10.267085285626521"><ele>872.0</ele><time>2026-05-03T14:53:25Z</time></trkpt><trkpt lat="44.126810568618254" lon="10.267103101507654"><ele>872.0</ele><time>2026-05-03T14:55:58Z</time></trkpt><trkpt lat="44.12687502607064" lon="10.267064925006682"><ele>872.0</ele><time>2026-05-03T14:59:35Z</time></trkpt><trkpt lat="44.12690665849568" lon="10.266980823238391"><ele>872.0</ele><time>2026-05-03T14:59:50Z</time></trkpt><trkpt lat="44.126982100316226" lon="10.266977139228356"><ele>872.0</ele><time>2026-05-03T15:00:46Z</time></trkpt></trkseg><trkseg><trkpt lat="44.12695088836345" lon="10.267155562961616"><ele>872.0000000000001</ele><time>2026-05-03T15:28:41Z</time></trkpt><trkpt lat="44.12692828058677" lon="10.267245236765824"><ele>872.0</ele><time>2026-05-03T15:28:43Z</time></trkpt><trkpt lat="44.12686696022199" lon="10.267367376709236"><ele>872.0</ele><time>2026-05-03T15:28:45Z</time></trkpt><trkpt lat="44.12682637074143" lon="10.267447810596739"><ele>872.0</ele><time>2026-05-03T15:28:48Z</time></trkpt><trkpt lat="44.12678698887429" lon="10.267523524616749"><ele>872.0000000000001</ele><time>2026-05-03T15:28:50Z</time></trkpt><trkpt lat="44.12675580426703" lon="10.267604091997123"><ele>872.0</ele><time>2026-05-03T15:29:00Z</time></trkpt><trkpt lat="44.12667635606695" lon="10.267596210065879"><ele>872.0000000000001</ele><time>2026-05-03T15:29:29Z</time></trkpt><trkpt lat="44.12668349790157" lon="10.267686096214364"><ele>872.0</ele><time>2026-05-03T15:30:19Z</time></trkpt><trkpt lat="44.12671302778997" lon="10.267592189629092"><ele>872.0</ele><time>2026-05-03T15:30:24Z</time></trkpt><trkpt lat="44.1267195238152" lon="10.267502836685164"><ele>872.0</ele><time>2026-05-03T15:30:32Z</time></trkpt><trkpt lat="44.12670706375665" lon="10.26739629989828"><ele>872.0000000000001</ele><time>2026-05-03T15:30:46Z</time></trkpt><trkpt lat="44.12668744632967" lon="10.267274667125871"><ele>872.0</ele><time>2026-05-03T15:31:15Z</time></trkpt><trkpt lat="44.12662202479763" lon="10.267205609130047"><ele>872.0000000000001</ele><time>2026-05-03T15:32:27Z</time></trkpt><trkpt lat="44.12660721912205" lon="10.267114631717748"><ele>872.0</ele><time>2026-05-03T15:32:42Z</time></trkpt><trkpt lat="44.126660137026" lon="10.267054419565554"><ele>872.0</ele><time>2026-05-03T15:33:15Z</time></trkpt><trkpt lat="44.12673319790779" lon="10.26699726749066"><ele>872.0</ele><time>2026-05-03T15:33:20Z</time></trkpt><trkpt lat="44.12681728029115" lon="10.267043938472591"><ele>872.0000000000001</ele><time>2026-05-03T15:33:52.999Z</time></trkpt><trkpt lat="44.12679923843464" lon="10.267129103465603"><ele>872.0</ele><time>2026-05-03T15:34:08Z</time></trkpt><trkpt lat="44.126806719890084" lon="10.267248141255125"><ele>872.0</ele><time>2026-05-03T15:34:21Z</time></trkpt><trkpt lat="44.12674103229627" lon="10.267237016879774"><ele>872.0</ele><time>2026-05-03T15:34:40Z</time></trkpt><trkpt lat="44.12673377020542" lon="10.267142385117003"><ele>872.0</ele><time>2026-05-03T15:37:51.999Z</time></trkpt><trkpt lat="44.12664487211486" lon="10.267103425184049"><ele>872.0</ele><time>2026-05-03T15:37:57.999Z</time></trkpt><trkpt lat="44.12657898203816" lon="10.267105517543238"><ele>872.0</ele><time>2026-05-03T15:37:59.999Z</time></trkpt><trkpt lat="44.12650470308088" lon="10.267109960557793"><ele>872.0</ele><time>2026-05-03T15:38:30Z</time></trkpt><trkpt lat="44.12642927555736" lon="10.26711062748816"><ele>872.0</ele><time>2026-05-03T15:38:35Z</time></trkpt><trkpt lat="44.12636188048865" lon="10.267148794840221"><ele>865.3333333333334</ele><time>2026-05-03T15:38:39Z</time></trkpt><trkpt lat="44.12647812672045" lon="10.267093213146701"><ele>858.6666666666667</ele><time>2026-05-03T15:39:33Z</time></trkpt><trkpt lat="44.12638374872035" lon="10.267020848607407"><ele>852.0</ele><time>2026-05-03T15:40:34Z</time></trkpt><trkpt lat="44.12644574720498" lon="10.26704683357966"><ele>845.3333333333333</ele><time>2026-05-03T15:42:45Z</time></trkpt><trkpt lat="44.126393058509414" lon="10.267101335418864"><ele>838.6666666666666</ele><time>2026-05-03T15:43:05Z</time></trkpt><trkpt lat="44.12633327133889" lon="10.26713535368519"><ele>832.0</ele><time>2026-05-03T15:43:16Z</time></trkpt><trkpt lat="44.12627393144372" lon="10.267198567224886"><ele>831.9999999999999</ele><time>2026-05-03T15:43:41.999Z</time></trkpt><trkpt lat="44.12620670045409" lon="10.267237482503544"><ele>832.0</ele><time>2026-05-03T15:43:44.999Z</time></trkpt><trkpt lat="44.126129063046314" lon="10.267335104920882"><ele>832.0</ele><time>2026-05-03T15:43:46.999Z</time></trkpt><trkpt lat="44.12607613349169" lon="10.267390678861519"><ele>832.0</ele><time>2026-05-03T15:43:50.999Z</time></trkpt><trkpt lat="44.12603954288343" lon="10.267482882401616"><ele>831.9999999999999</ele><time>2026-05-03T15:43:52.999Z</time></trkpt><trkpt lat="44.12597671646986" lon="10.267514218815688"><ele>832.0</ele><time>2026-05-03T15:43:57.999Z</time></trkpt><trkpt lat="44.12597452215432" lon="10.267622782891673"><ele>829.8571428571428</ele><time>2026-05-03T15:44:01.999Z</time></trkpt><trkpt lat="44.125927908102334" lon="10.267688867733487"><ele>827.7142857142858</ele><time>2026-05-03T15:44:04.999Z</time></trkpt><trkpt lat="44.12588131247796" lon="10.267748020235809"><ele>825.5714285714286</ele><time>2026-05-03T15:44:07.999Z</time></trkpt><trkpt lat="44.12581297761057" lon="10.267755306398525"><ele>823.4285714285713</ele><time>2026-05-03T15:44:17.999Z</time></trkpt><trkpt lat="44.125781553250675" lon="10.267851073971629"><ele>821.2857142857142</ele><time>2026-05-03T15:44:27.999Z</time></trkpt><trkpt lat="44.12573073661126" lon="10.267921261488544"><ele>819.1428571428571</ele><time>2026-05-03T15:44:44Z</time></trkpt><trkpt lat="44.12566328519054" lon="10.267831997978332"><ele>817.0</ele><time>2026-05-03T15:45:35Z</time></trkpt><trkpt lat="44.12562242454418" lon="10.267921808020374"><ele>816.9999999999999</ele><time>2026-05-03T15:45:42Z</time></trkpt><trkpt lat="44.12555890804378" lon="10.267959631453216"><ele>817.0</ele><time>2026-05-03T15:45:58.999Z</time></trkpt><trkpt lat="44.125498137891334" lon="10.268016463332996"><ele>817.0</ele><time>2026-05-03T15:46:22.999Z</time></trkpt><trkpt lat="44.12544285218564" lon="10.268060516552625"><ele>817.0</ele><time>2026-05-03T15:46:28.999Z</time></trkpt><trkpt lat="44.12536307180559" lon="10.26807986703804"><ele>817.0</ele><time>2026-05-03T15:47:20Z</time></trkpt><trkpt lat="44.12534740837592" lon="10.268165182038825"><ele>816.9999999999999</ele><time>2026-05-03T15:47:36Z</time></trkpt><trkpt lat="44.12535732839775" lon="10.268267528836612"><ele>817.0</ele><time>2026-05-03T15:47:48.999Z</time></trkpt><trkpt lat="44.12537750495365" lon="10.268354516063809"><ele>820.3333333333333</ele><time>2026-05-03T15:47:58.999Z</time></trkpt><trkpt lat="44.12538874847404" lon="10.26845328625301"><ele>823.6666666666666</ele><time>2026-05-03T15:48:08.999Z</time></trkpt><trkpt lat="44.12540869928083" lon="10.268537599606764"><ele>827.0</ele><time>2026-05-03T15:48:11.999Z</time></trkpt><trkpt lat="44.125443241427696" lon="10.268659329672127"><ele>830.3333333333333</ele><time>2026-05-03T15:48:13.999Z</time></trkpt><trkpt lat="44.12542438833112" lon="10.268752807863024"><ele>833.6666666666666</ele><time>2026-05-03T15:48:22.999Z</time></trkpt><trkpt lat="44.125416223026846" lon="10.268854160238037"><ele>837.0</ele><time>2026-05-03T15:48:25.999Z</time></trkpt><trkpt lat="44.125385606189" lon="10.268958691455154"><ele>840.6666666666666</ele><time>2026-05-03T15:48:46Z</time></trkpt><trkpt lat="44.125399938038925" lon="10.269060628575009"><ele>844.3333333333333</ele><time>2026-05-03T15:51:55.999Z</time></trkpt><trkpt lat="44.12543794787446" lon="10.269154176469513"><ele>848.0</ele><time>2026-05-03T15:51:59.999Z</time></trkpt><trkpt lat="44.12540221723429" lon="10.2692275990961"><ele>851.6666666666666</ele><time>2026-05-03T15:52:02.999Z</time></trkpt><trkpt lat="44.12531539738962" lon="10.269326679561336"><ele>855.3333333333333</ele><time>2026-05-03T15:52:06.999Z</time></trkpt><trkpt lat="44.12529766396996" lon="10.269459577062015"><ele>859.0</ele><time>2026-05-03T15:52:08.999Z</time></trkpt><trkpt lat="44.125286467092586" lon="10.26957346624213"><ele>858.9999999999999</ele><time>2026-05-03T15:52:19.999Z</time></trkpt><trkpt lat="44.12525492468775" lon="10.269705808324373"><ele>859.0</ele><time>2026-05-03T15:52:48.999Z</time></trkpt><trkpt lat="44.125256235418234" lon="10.26983128133433"><ele>859.0</ele><time>2026-05-03T15:53:21Z</time></trkpt><trkpt lat="44.12526946111852" lon="10.269940358542295"><ele>859.0</ele><time>2026-05-03T15:53:49Z</time></trkpt><trkpt lat="44.12518918921859" lon="10.269922599548645"><ele>858.9999999999999</ele><time>2026-05-03T15:53:56Z</time></trkpt><trkpt lat="44.12511804620179" lon="10.269891731177967"><ele>859.0</ele><time>2026-05-03T15:54:12.999Z</time></trkpt><trkpt lat="44.125182544818614" lon="10.269879513292082"><ele>858.9999999999999</ele><time>2026-05-03T15:54:28.999Z</time></trkpt><trkpt lat="44.12524812468357" lon="10.269711237367021"><ele>859.0</ele><time>2026-05-03T15:58:25.999Z</time></trkpt><trkpt lat="44.1252422931788" lon="10.269823287454038"><ele>859.0</ele><time>2026-05-03T16:03:26.999Z</time></trkpt><trkpt lat="44.125181917949824" lon="10.269867121614453"><ele>859.0</ele><time>2026-05-03T16:03:40Z</time></trkpt><trkpt lat="44.12509093290348" lon="10.269898897854581"><ele>858.9999999999999</ele><time>2026-05-03T16:04:14Z</time></trkpt><trkpt lat="44.125070478806784" lon="10.269985517865603"><ele>859.0</ele><time>2026-05-03T16:04:22Z</time></trkpt><trkpt lat="44.1250542077722" lon="10.270073455144848"><ele>859.8333333333333</ele><time>2026-05-03T16:04:30Z</time></trkpt><trkpt lat="44.12496994788948" lon="10.270062275165893"><ele>860.6666666666666</ele><time>2026-05-03T16:04:36.999Z</time></trkpt><trkpt lat="44.12491215332478" lon="10.270102437751145"><ele>861.5</ele><time>2026-05-03T16:04:41.999Z</time></trkpt><trkpt lat="44.12489174893352" lon="10.270233077993186"><ele>862.3333333333333</ele><time>2026-05-03T16:04:46.999Z</time></trkpt><trkpt lat="44.124846823033366" lon="10.270328731258923"><ele>863.1666666666666</ele><time>2026-05-03T16:04:50.999Z</time></trkpt><trkpt lat="44.12478467085146" lon="10.270381178093752"><ele>864.0</ele><time>2026-05-03T16:05:04.999Z</time></trkpt><trkpt lat="44.124718956268005" lon="10.2704311857089"><ele>864.0</ele><time>2026-05-03T16:05:14.999Z</time></trkpt><trkpt lat="44.124673094157615" lon="10.270491433959029"><ele>864.0</ele><time>2026-05-03T16:05:18.999Z</time></trkpt><trkpt lat="44.12457052545588" lon="10.270579416500032"><ele>864.0</ele><time>2026-05-03T16:06:21Z</time></trkpt><trkpt lat="44.12449768049442" lon="10.270644420515074"><ele>864.0</ele><time>2026-05-03T16:07:25.999Z</time></trkpt><trkpt lat="44.12444779791288" lon="10.270718657825556"><ele>864.0</ele><time>2026-05-03T16:07:27.999Z</time></trkpt><trkpt lat="44.12437217013573" lon="10.270797730600714"><ele>864.0</ele><time>2026-05-03T16:07:29.999Z</time></trkpt><trkpt lat="44.124276475801864" lon="10.270924902626717"><ele>867.1666666666666</ele><time>2026-05-03T16:07:32.999Z</time></trkpt><trkpt lat="44.12423377606067" lon="10.271007155750002"><ele>870.3333333333333</ele><time>2026-05-03T16:07:34.999Z</time></trkpt><trkpt lat="44.12418549122538" lon="10.27111663569043"><ele>873.5</ele><time>2026-05-03T16:07:37.999Z</time></trkpt><trkpt lat="44.12415245799991" lon="10.271197019702726"><ele>876.6666666666666</ele><time>2026-05-03T16:07:40Z</time></trkpt><trkpt lat="44.124114822867774" lon="10.271270421648737"><ele>879.8333333333333</ele><time>2026-05-03T16:07:42Z</time></trkpt><trkpt lat="44.12408663002904" lon="10.271404750240235"><ele>883.0</ele><time>2026-05-03T16:07:45Z</time></trkpt><trkpt lat="44.12404135774429" lon="10.271525289612123"><ele>883.0</ele><time>2026-05-03T16:07:47Z</time></trkpt><trkpt lat="44.12405016845728" lon="10.271612211101807"><ele>883.0</ele><time>2026-05-03T16:07:50Z</time></trkpt><trkpt lat="44.12403787376419" lon="10.271734489692204"><ele>883.0</ele><time>2026-05-03T16:07:53Z</time></trkpt><trkpt lat="44.12404085258213" lon="10.271837783609318"><ele>883.0</ele><time>2026-05-03T16:07:56Z</time></trkpt><trkpt lat="44.12410163678963" lon="10.271908400943856"><ele>883.0</ele><time>2026-05-03T16:07:59Z</time></trkpt><trkpt lat="44.12414871202437" lon="10.271971318143017"><ele>883.0</ele><time>2026-05-03T16:08:03Z</time></trkpt><trkpt lat="44.12417127855819" lon="10.27205321574935"><ele>883.0</ele><time>2026-05-03T16:08:31Z</time></trkpt><trkpt lat="44.12414000748615" lon="10.272174075684266"><ele>882.9999999999999</ele><time>2026-05-03T16:08:57.999Z</time></trkpt><trkpt lat="44.12412397321939" lon="10.272289611870585"><ele>883.0</ele><time>2026-05-03T16:09:10.999Z</time></trkpt><trkpt lat="44.1241042559162" lon="10.272382706030932"><ele>883.0</ele><time>2026-05-03T16:09:21.999Z</time></trkpt><trkpt lat="44.12411881811878" lon="10.272279795090496"><ele>883.0</ele><time>2026-05-03T16:11:57Z</time></trkpt><trkpt lat="44.12410487771562" lon="10.272156165523212"><ele>882.9999999999999</ele><time>2026-05-03T16:12:06Z</time></trkpt><trkpt lat="44.124037719282484" lon="10.272099375715062"><ele>883.0</ele><time>2026-05-03T16:14:15Z</time></trkpt><trkpt lat="44.123972612580566" lon="10.272126281872177"><ele>882.9999999999999</ele><time>2026-05-03T16:14:26Z</time></trkpt><trkpt lat="44.123868139834414" lon="10.272220564778497"><ele>883.0</ele><time>2026-05-03T16:19:14Z</time></trkpt><trkpt lat="44.12391908810109" lon="10.272144553822324"><ele>883.0</ele><time>2026-05-03T16:22:07.999Z</time></trkpt><trkpt lat="44.12397244613731" lon="10.272096256318639"><ele>883.0</ele><time>2026-05-03T16:22:14.999Z</time></trkpt><trkpt lat="44.12403422620326" lon="10.272065436656735"><ele>882.9999999999999</ele><time>2026-05-03T16:22:23Z</time></trkpt><trkpt lat="44.124085347188576" lon="10.27199407961771"><ele>883.0</ele><time>2026-05-03T16:22:42Z</time></trkpt><trkpt lat="44.12414645063149" lon="10.272061149658027"><ele>886.8333333333333</ele><time>2026-05-03T16:23:03Z</time></trkpt><trkpt lat="44.124147928605886" lon="10.27219142543163"><ele>890.6666666666666</ele><time>2026-05-03T16:23:57.999Z</time></trkpt><trkpt lat="44.12408516967868" lon="10.272246066300054"><ele>894.5</ele><time>2026-05-03T16:23:59.999Z</time></trkpt><trkpt lat="44.12404689061703" lon="10.272323413770666"><ele>898.3333333333333</ele><time>2026-05-03T16:24:02.999Z</time></trkpt><trkpt lat="44.12399395704388" lon="10.272421373254152"><ele>902.1666666666666</ele><time>2026-05-03T16:24:05.999Z</time></trkpt><trkpt lat="44.12394684322516" lon="10.272506097615889"><ele>906.0</ele><time>2026-05-03T16:24:07.999Z</time></trkpt><trkpt lat="44.123891741986434" lon="10.272604896459393"><ele>906.0</ele><time>2026-05-03T16:24:09.999Z</time></trkpt><trkpt lat="44.12385365223829" lon="10.272730912318565"><ele>905.9999999999999</ele><time>2026-05-03T16:24:13.999Z</time></trkpt><trkpt lat="44.123782742980374" lon="10.272852027521802"><ele>905.9999999999999</ele><time>2026-05-03T16:24:15.999Z</time></trkpt><trkpt lat="44.12381371731684" lon="10.27298295035514"><ele>906.0</ele><time>2026-05-03T16:24:18.999Z</time></trkpt><trkpt lat="44.12377659737576" lon="10.273055280174988"><ele>906.0</ele><time>2026-05-03T16:24:21.999Z</time></trkpt><trkpt lat="44.123721314277866" lon="10.273192699307234"><ele>906.8333333333334</ele><time>2026-05-03T16:24:24.999Z</time></trkpt><trkpt lat="44.12365628992703" lon="10.273245415331552"><ele>907.6666666666667</ele><time>2026-05-03T16:24:27Z</time></trkpt><trkpt lat="44.12359810064464" lon="10.273329712198485"><ele>908.5</ele><time>2026-05-03T16:24:30Z</time></trkpt><trkpt lat="44.12359596809317" lon="10.273436403131335"><ele>909.3333333333334</ele><time>2026-05-03T16:24:34Z</time></trkpt><trkpt lat="44.123570380261775" lon="10.273530351336428"><ele>910.1666666666667</ele><time>2026-05-03T16:24:38Z</time></trkpt><trkpt lat="44.12354927954506" lon="10.273638019262878"><ele>911.0</ele><time>2026-05-03T16:24:40Z</time></trkpt><trkpt lat="44.123497737210364" lon="10.27374397084794"><ele>911.0</ele><time>2026-05-03T16:24:43Z</time></trkpt><trkpt lat="44.12346955600244" lon="10.273850551231655"><ele>911.0</ele><time>2026-05-03T16:24:44Z</time></trkpt><trkpt lat="44.12343107607529" lon="10.273941543105323"><ele>911.0</ele><time>2026-05-03T16:24:47Z</time></trkpt><trkpt lat="44.12337568589639" lon="10.27402130532706"><ele>911.0</ele><time>2026-05-03T16:24:51Z</time></trkpt><trkpt lat="44.12330605851968" lon="10.274062555940452"><ele>911.0</ele><time>2026-05-03T16:24:55Z</time></trkpt><trkpt lat="44.12330039503106" lon="10.274153051799805"><ele>911.0</ele><time>2026-05-03T16:24:58Z</time></trkpt><trkpt lat="44.123254607925986" lon="10.27421763039618"><ele>911.0</ele><time>2026-05-03T16:25:01Z</time></trkpt><trkpt lat="44.123253990617506" lon="10.27431661863306"><ele>910.1666666666667</ele><time>2026-05-03T16:25:04Z</time></trkpt><trkpt lat="44.12324485186827" lon="10.274441445548256"><ele>909.3333333333334</ele><time>2026-05-03T16:25:08Z</time></trkpt><trkpt lat="44.123229944093566" lon="10.274535802727938"><ele>908.5</ele><time>2026-05-03T16:25:10Z</time></trkpt><trkpt lat="44.12322085050635" lon="10.274650190696718"><ele>907.6666666666667</ele><time>2026-05-03T16:25:14Z</time></trkpt><trkpt lat="44.123197744879135" lon="10.274736979492028"><ele>906.8333333333334</ele><time>2026-05-03T16:25:18Z</time></trkpt><trkpt lat="44.12314658132718" lon="10.274862444224045"><ele>906.0</ele><time>2026-05-03T16:25:26Z</time></trkpt><trkpt lat="44.123163138901106" lon="10.27496021731899"><ele>908.5</ele><time>2026-05-03T16:25:27Z</time></trkpt><trkpt lat="44.123160666789396" lon="10.27508872314615"><ele>911.0</ele><time>2026-05-03T16:25:28Z</time></trkpt><trkpt lat="44.12316055732468" lon="10.27518827216093"><ele>913.5</ele><time>2026-05-03T16:25:29Z</time></trkpt><trkpt lat="44.12313702703291" lon="10.27553285822126"><ele>916.0</ele><time>2026-05-03T16:25:35.999Z</time></trkpt><trkpt lat="44.12315692639232" lon="10.275629518542418"><ele>918.5999999999999</ele><time>2026-05-03T16:25:36.999Z</time></trkpt><trkpt lat="44.123154180229626" lon="10.27571838324382"><ele>921.1999999999999</ele><time>2026-05-03T16:25:37.999Z</time></trkpt><trkpt lat="44.12313575393222" lon="10.275865465385749"><ele>923.8000000000001</ele><time>2026-05-03T16:25:39.999Z</time></trkpt><trkpt lat="44.12310765980013" lon="10.276001059008783"><ele>926.4000000000001</ele><time>2026-05-03T16:25:42.999Z</time></trkpt><trkpt lat="44.12309409869597" lon="10.27609559578106"><ele>929.0</ele><time>2026-05-03T16:25:44.999Z</time></trkpt><trkpt lat="44.12306530739305" lon="10.276268669497064"><ele>929.0</ele><time>2026-05-03T16:25:46.999Z</time></trkpt><trkpt lat="44.1229944263902" lon="10.276413170810248"><ele>929.0000000000001</ele><time>2026-05-03T16:25:48.999Z</time></trkpt><trkpt lat="44.1229517197902" lon="10.276499144806541"><ele>929.0000000000001</ele><time>2026-05-03T16:25:49.999Z</time></trkpt><trkpt lat="44.12290747769667" lon="10.276593206934475"><ele>929.0</ele><time>2026-05-03T16:25:50.999Z</time></trkpt><trkpt lat="44.12284298163881" lon="10.276702779335405"><ele>929.0</ele><time>2026-05-03T16:25:52.999Z</time></trkpt><trkpt lat="44.12277905567938" lon="10.276733370710874"><ele>929.6</ele><time>2026-05-03T16:25:54.999Z</time></trkpt><trkpt lat="44.12269814197062" lon="10.27676958879666"><ele>930.2</ele><time>2026-05-03T16:25:56.999Z</time></trkpt><trkpt lat="44.122585534521356" lon="10.276780617957778"><ele>930.8000000000001</ele><time>2026-05-03T16:25:59.999Z</time></trkpt><trkpt lat="44.12250634817103" lon="10.276773053563447"><ele>931.4000000000001</ele><time>2026-05-03T16:26:01.999Z</time></trkpt><trkpt lat="44.12243808848695" lon="10.276763791426827"><ele>932.0</ele><time>2026-05-03T16:26:03.999Z</time></trkpt><trkpt lat="44.12232147910651" lon="10.27678968756515"><ele>932.0000000000001</ele><time>2026-05-03T16:26:05.999Z</time></trkpt><trkpt lat="44.12226714135836" lon="10.27684669155647"><ele>932.0</ele><time>2026-05-03T16:26:09.999Z</time></trkpt><trkpt lat="44.1222138687641" lon="10.276904643524409"><ele>932.0</ele><time>2026-05-03T16:26:12.999Z</time></trkpt><trkpt lat="44.1221445092449" lon="10.276893124812077"><ele>932.0</ele><time>2026-05-03T16:26:19.999Z</time></trkpt><trkpt lat="44.122073008064646" lon="10.27690746079373"><ele>932.0000000000001</ele><time>2026-05-03T16:29:10Z</time></trkpt><trkpt lat="44.12207946501537" lon="10.277024272069049"><ele>932.0</ele><time>2026-05-03T16:29:35Z</time></trkpt><trkpt lat="44.12202344760524" lon="10.277121975891882"><ele>932.0000000000001</ele><time>2026-05-03T16:29:37Z</time></trkpt><trkpt lat="44.12199478429139" lon="10.27723095168458"><ele>932.0</ele><time>2026-05-03T16:29:39Z</time></trkpt><trkpt lat="44.12193438602885" lon="10.27734220928163"><ele>932.0</ele><time>2026-05-03T16:29:41.999Z</time></trkpt><trkpt lat="44.12189797506337" lon="10.277426323076584"><ele>932.0</ele><time>2026-05-03T16:29:42.999Z</time></trkpt><trkpt lat="44.12184440567067" lon="10.277520199780005"><ele>932.0000000000001</ele><time>2026-05-03T16:29:46.999Z</time></trkpt><trkpt lat="44.12179119524257" lon="10.27758497123669"><ele>932.0</ele><time>2026-05-03T16:29:49.999Z</time></trkpt><trkpt lat="44.121648843920624" lon="10.277809864564933"><ele>928.8</ele><time>2026-05-03T16:29:51.999Z</time></trkpt><trkpt lat="44.12155700061693" lon="10.277967521419844"><ele>925.6</ele><time>2026-05-03T16:29:52.999Z</time></trkpt><trkpt lat="44.12149388249544" lon="10.27807057006983"><ele>922.3999999999999</ele><time>2026-05-03T16:29:53.999Z</time></trkpt><trkpt lat="44.12143728748611" lon="10.278164155729824"><ele>919.1999999999999</ele><time>2026-05-03T16:29:54.999Z</time></trkpt><trkpt lat="44.12139394021601" lon="10.278256456679427"><ele>916.0</ele><time>2026-05-03T16:29:55.999Z</time></trkpt><trkpt lat="44.12132012794132" lon="10.278157031045136"><ele>915.1999999999999</ele><time>2026-05-03T16:29:58.999Z</time></trkpt><trkpt lat="44.12128917559216" lon="10.278056368441993"><ele>914.3999999999999</ele><time>2026-05-03T16:29:59.999Z</time></trkpt><trkpt lat="44.12124296942896" lon="10.277924293716708"><ele>913.6</ele><time>2026-05-03T16:30:00.999Z</time></trkpt><trkpt lat="44.12121059515706" lon="10.277791742725292"><ele>912.8</ele><time>2026-05-03T16:30:01.999Z</time></trkpt><trkpt lat="44.1211635738847" lon="10.277634176280184"><ele>912.0</ele><time>2026-05-03T16:30:02.999Z</time></trkpt><trkpt lat="44.12110571337353" lon="10.277488378930922"><ele>912.0</ele><time>2026-05-03T16:30:03.999Z</time></trkpt><trkpt lat="44.12104324226578" lon="10.277364091940473"><ele>912.0</ele><time>2026-05-03T16:30:04.999Z</time></trkpt><trkpt lat="44.12097585649779" lon="10.277251839277264"><ele>912.0</ele><time>2026-05-03T16:30:05.999Z</time></trkpt><trkpt lat="44.12090384033088" lon="10.277330502246722"><ele>912.0</ele><time>2026-05-03T16:30:07.999Z</time></trkpt><trkpt lat="44.12087474963817" lon="10.277415261583995"><ele>912.0</ele><time>2026-05-03T16:30:08.999Z</time></trkpt><trkpt lat="44.12084948436483" lon="10.277500087539938"><ele>912.0</ele><time>2026-05-03T16:30:11.999Z</time></trkpt><trkpt lat="44.12087701938142" lon="10.277605182020347"><ele>912.0</ele><time>2026-05-03T16:30:12.999Z</time></trkpt><trkpt lat="44.12094200287364" lon="10.277749964185467"><ele>912.0</ele><time>2026-05-03T16:30:13.999Z</time></trkpt><trkpt lat="44.120932471825576" lon="10.27787969106913"><ele>912.0</ele><time>2026-05-03T16:30:17.999Z</time></trkpt><trkpt lat="44.12090087474672" lon="10.277978301262529"><ele>912.0</ele><time>2026-05-03T16:30:19.999Z</time></trkpt><trkpt lat="44.12080791485123" lon="10.277947844913792"><ele>912.0</ele><time>2026-05-03T16:30:22.999Z</time></trkpt><trkpt lat="44.120742166626194" lon="10.277896054641102"><ele>902.6</ele><time>2026-05-03T16:30:26.999Z</time></trkpt><trkpt lat="44.12068977901219" lon="10.277954105129304"><ele>893.2</ele><time>2026-05-03T16:30:27.999Z</time></trkpt><trkpt lat="44.12063968138055" lon="10.277873598331585"><ele>883.8</ele><time>2026-05-03T16:30:30.999Z</time></trkpt><trkpt lat="44.12057360642815" lon="10.277990524909983"><ele>874.4</ele><time>2026-05-03T16:30:33.999Z</time></trkpt><trkpt lat="44.12050822295282" lon="10.278126446918403"><ele>865.0</ele><time>2026-05-03T16:30:34.999Z</time></trkpt><trkpt lat="44.12046331592107" lon="10.278230833989092"><ele>865.0</ele><time>2026-05-03T16:30:35.999Z</time></trkpt><trkpt lat="44.12042025546412" lon="10.278309060589475"><ele>865.0</ele><time>2026-05-03T16:30:36.999Z</time></trkpt><trkpt lat="44.12036307012204" lon="10.27835468625755"><ele>865.0</ele><time>2026-05-03T16:30:38.999Z</time></trkpt><trkpt lat="44.12032099947167" lon="10.27850272143802"><ele>865.0</ele><time>2026-05-03T16:30:40.999Z</time></trkpt><trkpt lat="44.12030139311045" lon="10.278600514940358"><ele>865.0</ele><time>2026-05-03T16:30:41.999Z</time></trkpt><trkpt lat="44.12026834909709" lon="10.278778641256238"><ele>865.0</ele><time>2026-05-03T16:30:42.999Z</time></trkpt><trkpt lat="44.12023610677851" lon="10.278916380880185"><ele>865.0</ele><time>2026-05-03T16:30:43.999Z</time></trkpt><trkpt lat="44.12018159211098" lon="10.279136404359022"><ele>865.0</ele><time>2026-05-03T16:30:45Z</time></trkpt><trkpt lat="44.120145395056056" lon="10.279258242470469"><ele>865.0</ele><time>2026-05-03T16:30:46Z</time></trkpt><trkpt lat="44.12007273140282" lon="10.279277190707573"><ele>865.0</ele><time>2026-05-03T16:30:47Z</time></trkpt><trkpt lat="44.12000103381063" lon="10.279291989418995"><ele>867.3333333333333</ele><time>2026-05-03T16:30:48Z</time></trkpt><trkpt lat="44.11997475615841" lon="10.279411349846741"><ele>869.6666666666666</ele><time>2026-05-03T16:30:50Z</time></trkpt><trkpt lat="44.11995730657832" lon="10.27950178093092"><ele>872.0</ele><time>2026-05-03T16:30:51Z</time></trkpt><trkpt lat="44.119910357007" lon="10.279584777830845"><ele>874.3333333333333</ele><time>2026-05-03T16:30:52Z</time></trkpt><trkpt lat="44.119888762492906" lon="10.279719338687107"><ele>876.6666666666666</ele><time>2026-05-03T16:30:53Z</time></trkpt><trkpt lat="44.1198625457232" lon="10.279822842961337"><ele>879.0</ele><time>2026-05-03T16:30:54Z</time></trkpt><trkpt lat="44.11980547528081" lon="10.27988699218761"><ele>873.2</ele><time>2026-05-03T16:30:55Z</time></trkpt><trkpt lat="44.1197124784829" lon="10.27989435780757"><ele>867.4000000000001</ele><time>2026-05-03T16:30:59Z</time></trkpt><trkpt lat="44.1196625254918" lon="10.279975714881195"><ele>861.6</ele><time>2026-05-03T16:31:02Z</time></trkpt><trkpt lat="44.11962947522402" lon="10.280186823575852"><ele>855.8</ele><time>2026-05-03T16:31:04Z</time></trkpt><trkpt lat="44.1195859600132" lon="10.280281517999484"><ele>850.0</ele><time>2026-05-03T16:31:05Z</time></trkpt><trkpt lat="44.11950321581026" lon="10.280380748716986"><ele>850.0</ele><time>2026-05-03T16:31:06Z</time></trkpt><trkpt lat="44.119470056181406" lon="10.280522184714497"><ele>850.0</ele><time>2026-05-03T16:31:08Z</time></trkpt><trkpt lat="44.11922879294273" lon="10.281266895284334"><ele>845.5</ele><time>2026-05-03T16:31:14Z</time></trkpt><trkpt lat="44.11916299712242" lon="10.281472840418857"><ele>841.0</ele><time>2026-05-03T16:31:15Z</time></trkpt><trkpt lat="44.11911915973042" lon="10.281635365560899"><ele>836.5</ele><time>2026-05-03T16:31:16Z</time></trkpt><trkpt lat="44.119086753537744" lon="10.281775298363616"><ele>832.0</ele><time>2026-05-03T16:31:17Z</time></trkpt><trkpt lat="44.119003384690686" lon="10.281901367430738"><ele>832.0</ele><time>2026-05-03T16:31:19Z</time></trkpt><trkpt lat="44.118931414084976" lon="10.282018169715952"><ele>832.0</ele><time>2026-05-03T16:31:20Z</time></trkpt><trkpt lat="44.1188622151918" lon="10.282138125822573"><ele>832.0</ele><time>2026-05-03T16:31:21Z</time></trkpt><trkpt lat="44.11879303333195" lon="10.28223063897776"><ele>832.0</ele><time>2026-05-03T16:31:22Z</time></trkpt><trkpt lat="44.11874810432284" lon="10.282325631205962"><ele>832.0</ele><time>2026-05-03T16:31:24Z</time></trkpt><trkpt lat="44.11877364686229" lon="10.282441015400352"><ele>834.2</ele><time>2026-05-03T16:31:25Z</time></trkpt><trkpt lat="44.118730727016874" lon="10.282687179166992"><ele>836.4000000000001</ele><time>2026-05-03T16:31:26Z</time></trkpt><trkpt lat="44.11867879500551" lon="10.282815292072087"><ele>838.5999999999999</ele><time>2026-05-03T16:31:28Z</time></trkpt><trkpt lat="44.11867108660468" lon="10.28290350774206"><ele>840.8</ele><time>2026-05-03T16:31:29Z</time></trkpt><trkpt lat="44.11865443609002" lon="10.28300531009464"><ele>843.0</ele><time>2026-05-03T16:31:30Z</time></trkpt><trkpt lat="44.11857708648609" lon="10.283049876338476"><ele>843.1666666666666</ele><time>2026-05-03T16:31:34Z</time></trkpt><trkpt lat="44.11852121895796" lon="10.283119700613133"><ele>843.3333333333333</ele><time>2026-05-03T16:31:37Z</time></trkpt><trkpt lat="44.11847342685667" lon="10.283196043034271"><ele>843.5</ele><time>2026-05-03T16:32:03.999Z</time></trkpt><trkpt lat="44.11841893349489" lon="10.283246947377327"><ele>843.6666666666666</ele><time>2026-05-03T16:32:12.999Z</time></trkpt><trkpt lat="44.11838613007858" lon="10.283353333224351"><ele>843.8333333333333</ele><time>2026-05-03T16:32:14.999Z</time></trkpt><trkpt lat="44.118339238432476" lon="10.283422716807904"><ele>844.0</ele><time>2026-05-03T16:32:15.999Z</time></trkpt><trkpt lat="44.118292844804984" lon="10.283528537599949"><ele>836.6666666666666</ele><time>2026-05-03T16:35:09Z</time></trkpt><trkpt lat="44.11822851198132" lon="10.283587756056283"><ele>829.3333333333333</ele><time>2026-05-03T16:35:17Z</time></trkpt><trkpt lat="44.11815714198419" lon="10.283578607695995"><ele>822.0</ele><time>2026-05-03T16:35:20Z</time></trkpt><trkpt lat="44.11809980513954" lon="10.28354100500711"><ele>814.6666666666667</ele><time>2026-05-03T16:35:22Z</time></trkpt><trkpt lat="44.11799502532389" lon="10.28342740507527"><ele>807.3333333333334</ele><time>2026-05-03T16:35:24Z</time></trkpt><trkpt lat="44.117941841497924" lon="10.28333380814067"><ele>800.0</ele><time>2026-05-03T16:35:25Z</time></trkpt><trkpt lat="44.117876008403165" lon="10.283248863380546"><ele>800.0000000000001</ele><time>2026-05-03T16:35:26Z</time></trkpt><trkpt lat="44.11780838583717" lon="10.283283789813241"><ele>800.0</ele><time>2026-05-03T16:35:30Z</time></trkpt><trkpt lat="44.117871130835056" lon="10.283299347065514"><ele>800.0</ele><time>2026-05-03T16:37:40Z</time></trkpt><trkpt lat="44.11780222461044" lon="10.283285835207526"><ele>800.0</ele><time>2026-05-03T16:38:55.999Z</time></trkpt><trkpt lat="44.117874615287825" lon="10.283229568775942"><ele>800.0</ele><time>2026-05-03T16:39:29Z</time></trkpt><trkpt lat="44.11779703837425" lon="10.283249641926872"><ele>800.0000000000001</ele><time>2026-05-03T16:39:34Z</time></trkpt><trkpt lat="44.117845341451" lon="10.283331325741612"><ele>800.0</ele><time>2026-05-03T16:39:46Z</time></trkpt><trkpt lat="44.11788141820176" lon="10.283531629895451"><ele>800.0</ele><time>2026-05-03T16:39:48Z</time></trkpt><trkpt lat="44.11786033146535" lon="10.283627517893176"><ele>800.0</ele><time>2026-05-03T16:39:55Z</time></trkpt><trkpt lat="44.117884995010215" lon="10.283770110293673"><ele>800.0</ele><time>2026-05-03T16:39:57Z</time></trkpt><trkpt lat="44.117899628916746" lon="10.283880042651536"><ele>800.0</ele><time>2026-05-03T16:39:59Z</time></trkpt><trkpt lat="44.117919773045266" lon="10.284041642322089"><ele>800.0</ele><time>2026-05-03T16:40:00Z</time></trkpt><trkpt lat="44.11796984911363" lon="10.284153821293232"><ele>801.5000000000001</ele><time>2026-05-03T16:40:01Z</time></trkpt><trkpt lat="44.11789250696289" lon="10.284290814627292"><ele>803.0</ele><time>2026-05-03T16:40:02Z</time></trkpt><trkpt lat="44.11786762672954" lon="10.284389877303076"><ele>804.5</ele><time>2026-05-03T16:40:03Z</time></trkpt><trkpt lat="44.11784950835324" lon="10.284483949370154"><ele>806.0</ele><time>2026-05-03T16:40:09Z</time></trkpt><trkpt lat="44.117856020995035" lon="10.284582232373323"><ele>807.5000000000001</ele><time>2026-05-03T16:40:13Z</time></trkpt><trkpt lat="44.117830318105945" lon="10.284681808143343"><ele>809.0</ele><time>2026-05-03T16:40:18Z</time></trkpt><trkpt lat="44.11780224901023" lon="10.284768041004519"><ele>809.6666666666667</ele><time>2026-05-03T16:40:22Z</time></trkpt><trkpt lat="44.11776907037554" lon="10.284850216500605"><ele>810.3333333333334</ele><time>2026-05-03T16:40:24.999Z</time></trkpt><trkpt lat="44.117725584604905" lon="10.28492165770017"><ele>811.0</ele><time>2026-05-03T16:40:27.999Z</time></trkpt><trkpt lat="44.11770218474131" lon="10.285009716026032"><ele>811.6666666666667</ele><time>2026-05-03T16:40:54.999Z</time></trkpt><trkpt lat="44.11760449452149" lon="10.285083865152119"><ele>812.3333333333334</ele><time>2026-05-03T16:40:56.999Z</time></trkpt><trkpt lat="44.11754656104756" lon="10.285205593935792"><ele>813.0</ele><time>2026-05-03T16:40:58.999Z</time></trkpt><trkpt lat="44.117569895777386" lon="10.285359635842903"><ele>813.0</ele><time>2026-05-03T16:41:00.999Z</time></trkpt><trkpt lat="44.11760653389198" lon="10.285449795934332"><ele>813.0</ele><time>2026-05-03T16:41:01.999Z</time></trkpt><trkpt lat="44.11767720087419" lon="10.285461373451227"><ele>813.0</ele><time>2026-05-03T16:41:02.999Z</time></trkpt><trkpt lat="44.11775743739795" lon="10.285484921048408"><ele>813.0</ele><time>2026-05-03T16:41:03.999Z</time></trkpt><trkpt lat="44.11788624391349" lon="10.285546093642107"><ele>813.0</ele><time>2026-05-03T16:41:04.999Z</time></trkpt><trkpt lat="44.117955127197966" lon="10.28569024087955"><ele>812.5999999999999</ele><time>2026-05-03T16:41:06.999Z</time></trkpt><trkpt lat="44.11799834463203" lon="10.285797969329186"><ele>812.1999999999999</ele><time>2026-05-03T16:41:07.999Z</time></trkpt><trkpt lat="44.11806145629049" lon="10.285866906076699"><ele>811.8</ele><time>2026-05-03T16:41:08.999Z</time></trkpt><trkpt lat="44.118172888706845" lon="10.285788341982968"><ele>811.4</ele><time>2026-05-03T16:41:10.999Z</time></trkpt><trkpt lat="44.11822912470535" lon="10.2857104723919"><ele>811.0</ele><time>2026-05-03T16:41:11.999Z</time></trkpt><trkpt lat="44.11830014680697" lon="10.285597576691988"><ele>816.5</ele><time>2026-05-03T16:41:12.999Z</time></trkpt><trkpt lat="44.118392468173894" lon="10.285429360866802"><ele>822.0</ele><time>2026-05-03T16:41:13.999Z</time></trkpt><trkpt lat="44.11848731556549" lon="10.285283360914379"><ele>827.5</ele><time>2026-05-03T16:41:15Z</time></trkpt><trkpt lat="44.11856224584807" lon="10.285213555382994"><ele>833.0</ele><time>2026-05-03T16:41:16Z</time></trkpt><trkpt lat="44.118676337881055" lon="10.285157273206522"><ele>833.0</ele><time>2026-05-03T16:41:17Z</time></trkpt><trkpt lat="44.11883063998959" lon="10.285084549321008"><ele>833.0</ele><time>2026-05-03T16:41:18Z</time></trkpt><trkpt lat="44.11895208615325" lon="10.285009101397943"><ele>833.0</ele><time>2026-05-03T16:41:19Z</time></trkpt><trkpt lat="44.11903479531097" lon="10.28492921884838"><ele>833.0</ele><time>2026-05-03T16:41:20Z</time></trkpt><trkpt lat="44.11910614631119" lon="10.284765639371331"><ele>839.0</ele><time>2026-05-03T16:41:21Z</time></trkpt><trkpt lat="44.1191691726491" lon="10.284630995585903"><ele>845.0</ele><time>2026-05-03T16:41:22Z</time></trkpt><trkpt lat="44.11935589281556" lon="10.284522810956313"><ele>851.0</ele><time>2026-05-03T16:41:23Z</time></trkpt><trkpt lat="44.11949191335653" lon="10.284415484555582"><ele>851.0</ele><time>2026-05-03T16:41:24Z</time></trkpt><trkpt lat="44.119634774068864" lon="10.28428709593316"><ele>851.0</ele><time>2026-05-03T16:41:25Z</time></trkpt><trkpt lat="44.11971634074774" lon="10.284202833500945"><ele>851.0</ele><time>2026-05-03T16:41:26Z</time></trkpt><trkpt lat="44.11981164775225" lon="10.284150476053258"><ele>851.0</ele><time>2026-05-03T16:41:27Z</time></trkpt><trkpt lat="44.11993431026113" lon="10.284139101046174"><ele>849.1666666666667</ele><time>2026-05-03T16:41:28Z</time></trkpt><trkpt lat="44.120002410675056" lon="10.284187904578118"><ele>847.3333333333334</ele><time>2026-05-03T16:41:29Z</time></trkpt><trkpt lat="44.12010678548663" lon="10.284236470414767"><ele>845.5</ele><time>2026-05-03T16:41:30Z</time></trkpt><trkpt lat="44.12017388846199" lon="10.284268052183458"><ele>843.6666666666667</ele><time>2026-05-03T16:41:31Z</time></trkpt><trkpt lat="44.12023023344704" lon="10.284201189305405"><ele>841.8333333333334</ele><time>2026-05-03T16:41:33Z</time></trkpt><trkpt lat="44.120302043640294" lon="10.284181254091841"><ele>840.0</ele><time>2026-05-03T16:41:34Z</time></trkpt><trkpt lat="44.12043110275728" lon="10.284323109191869"><ele>840.0</ele><time>2026-05-03T16:41:39Z</time></trkpt><trkpt lat="44.12042561335485" lon="10.284448640489726"><ele>840.0</ele><time>2026-05-03T16:41:40Z</time></trkpt><trkpt lat="44.120402636550764" lon="10.284571897438056"><ele>840.0</ele><time>2026-05-03T16:41:41Z</time></trkpt><trkpt lat="44.12036429423075" lon="10.28467853486576"><ele>840.0</ele><time>2026-05-03T16:41:42Z</time></trkpt><trkpt lat="44.120288461204126" lon="10.284743391303703"><ele>840.0</ele><time>2026-05-03T16:41:43Z</time></trkpt><trkpt lat="44.12006279965011" lon="10.28471395918281"><ele>840.8</ele><time>2026-05-03T16:41:44Z</time></trkpt><trkpt lat="44.119972382747484" lon="10.28477001690178"><ele>841.6</ele><time>2026-05-03T16:41:45Z</time></trkpt><trkpt lat="44.11994149547871" lon="10.284851451256298"><ele>842.4000000000001</ele><time>2026-05-03T16:41:46Z</time></trkpt><trkpt lat="44.119851676387924" lon="10.284790557405989"><ele>843.2</ele><time>2026-05-03T16:41:47Z</time></trkpt><trkpt lat="44.11985222216939" lon="10.285017022760016"><ele>844.0</ele><time>2026-05-03T16:41:48Z</time></trkpt><trkpt lat="44.11981807498533" lon="10.285238339239008"><ele>840.5</ele><time>2026-05-03T16:41:49Z</time></trkpt><trkpt lat="44.119741738847694" lon="10.285408376793002"><ele>837.0</ele><time>2026-05-03T16:41:50Z</time></trkpt><trkpt lat="44.119705869131" lon="10.285585937716945"><ele>833.5</ele><time>2026-05-03T16:41:51Z</time></trkpt><trkpt lat="44.119845310626985" lon="10.285664758035145"><ele>830.0</ele><time>2026-05-03T16:41:52Z</time></trkpt><trkpt lat="44.11985503260592" lon="10.285757631101086"><ele>828.0</ele><time>2026-05-03T16:41:53Z</time></trkpt><trkpt lat="44.11987150707817" lon="10.285931555607819"><ele>826.0</ele><time>2026-05-03T16:41:54Z</time></trkpt><trkpt lat="44.11985767124786" lon="10.286109264397517"><ele>824.0</ele><time>2026-05-03T16:41:55Z</time></trkpt><trkpt lat="44.11987466578214" lon="10.28624112756562"><ele>822.0</ele><time>2026-05-03T16:41:56Z</time></trkpt><trkpt lat="44.11983166430381" lon="10.286345876888008"><ele>820.0</ele><time>2026-05-03T16:41:57Z</time></trkpt><trkpt lat="44.11982766772006" lon="10.286449420615861"><ele>818.5</ele><time>2026-05-03T16:42:00Z</time></trkpt><trkpt lat="44.119870355902776" lon="10.286567811792247"><ele>817.0</ele><time>2026-05-03T16:42:01Z</time></trkpt><trkpt lat="44.11996508821874" lon="10.286696179550958"><ele>815.5</ele><time>2026-05-03T16:42:02Z</time></trkpt><trkpt lat="44.120129668986415" lon="10.286859106124462"><ele>814.0</ele><time>2026-05-03T16:42:03Z</time></trkpt><trkpt lat="44.12021506430986" lon="10.286946819601372"><ele>821.4999999999999</ele><time>2026-05-03T16:42:04Z</time></trkpt><trkpt lat="44.12024473758963" lon="10.28704162798547"><ele>829.0</ele><time>2026-05-03T16:42:05Z</time></trkpt><trkpt lat="44.12029603270662" lon="10.287148556570372"><ele>836.5</ele><time>2026-05-03T16:42:07Z</time></trkpt><trkpt lat="44.12029475424408" lon="10.287254726794904"><ele>844.0</ele><time>2026-05-03T16:42:33.999Z</time></trkpt><trkpt lat="44.120258850390776" lon="10.287355104371205"><ele>851.4999999999999</ele><time>2026-05-03T16:43:05.999Z</time></trkpt><trkpt lat="44.12022372323807" lon="10.287441529283456"><ele>859.0</ele><time>2026-05-03T16:43:06.999Z</time></trkpt><trkpt lat="44.120195220081214" lon="10.287533812885831"><ele>859.0</ele><time>2026-05-03T16:43:07.999Z</time></trkpt><trkpt lat="44.12011027983934" lon="10.287637372069662"><ele>859.0000000000001</ele><time>2026-05-03T16:43:10.999Z</time></trkpt><trkpt lat="44.120002412483196" lon="10.287701659078586"><ele>859.0000000000001</ele><time>2026-05-03T16:43:11.999Z</time></trkpt><trkpt lat="44.11991647563195" lon="10.287753385913009"><ele>859.0</ele><time>2026-05-03T16:43:12.999Z</time></trkpt><trkpt lat="44.11985169305973" lon="10.287782972908483"><ele>859.0</ele><time>2026-05-03T16:43:13.999Z</time></trkpt><trkpt lat="44.11976667543631" lon="10.287900333352047"><ele>852.4000000000001</ele><time>2026-05-03T16:43:15.999Z</time></trkpt><trkpt lat="44.11968843223711" lon="10.287995389082017"><ele>845.8000000000001</ele><time>2026-05-03T16:43:17.999Z</time></trkpt><trkpt lat="44.11965037863143" lon="10.288153652711733"><ele>839.2</ele><time>2026-05-03T16:43:18.999Z</time></trkpt><trkpt lat="44.11962177823644" lon="10.288287673011924"><ele>832.5999999999999</ele><time>2026-05-03T16:43:19.999Z</time></trkpt><trkpt lat="44.119576940157515" lon="10.288379921308941"><ele>826.0</ele><time>2026-05-03T16:43:21Z</time></trkpt><trkpt lat="44.11954060754079" lon="10.288554901410219"><ele>826.0</ele><time>2026-05-03T16:43:23Z</time></trkpt><trkpt lat="44.11958536628669" lon="10.288684483463097"><ele>826.0</ele><time>2026-05-03T16:43:25Z</time></trkpt><trkpt lat="44.11952707956012" lon="10.288876860053435"><ele>826.0</ele><time>2026-05-03T16:43:27Z</time></trkpt><trkpt lat="44.119451874116095" lon="10.288964213291655"><ele>826.0</ele><time>2026-05-03T16:43:28Z</time></trkpt><trkpt lat="44.119391718024985" lon="10.289021680919715"><ele>826.0</ele><time>2026-05-03T16:43:30Z</time></trkpt><trkpt lat="44.1193723676778" lon="10.289138312900853"><ele>827.3333333333333</ele><time>2026-05-03T16:43:33Z</time></trkpt><trkpt lat="44.11938859558006" lon="10.289272692956736"><ele>828.6666666666666</ele><time>2026-05-03T16:43:35Z</time></trkpt><trkpt lat="44.119470026539275" lon="10.289311568001867"><ele>830.0</ele><time>2026-05-03T16:43:36Z</time></trkpt><trkpt lat="44.11956765529211" lon="10.289370592704312"><ele>831.3333333333333</ele><time>2026-05-03T16:43:37Z</time></trkpt><trkpt lat="44.119637495645456" lon="10.289436168897769"><ele>832.6666666666666</ele><time>2026-05-03T16:43:38Z</time></trkpt><trkpt lat="44.119690435452824" lon="10.28950804697037"><ele>834.0</ele><time>2026-05-03T16:43:40Z</time></trkpt><trkpt lat="44.11969411403395" lon="10.289653012913384"><ele>830.6</ele><time>2026-05-03T16:43:42Z</time></trkpt><trkpt lat="44.11967913017282" lon="10.289888467443474"><ele>827.2</ele><time>2026-05-03T16:43:44Z</time></trkpt><trkpt lat="44.11966257565827" lon="10.290043500212604"><ele>823.8000000000001</ele><time>2026-05-03T16:43:45Z</time></trkpt><trkpt lat="44.119670223341124" lon="10.29013828847444"><ele>820.4000000000001</ele><time>2026-05-03T16:43:46Z</time></trkpt><trkpt lat="44.11968479441934" lon="10.29022507222307"><ele>817.0</ele><time>2026-05-03T16:43:47Z</time></trkpt><trkpt lat="44.119767803534735" lon="10.290309639634856"><ele>816.9999999999999</ele><time>2026-05-03T16:43:49Z</time></trkpt><trkpt lat="44.11985790152484" lon="10.290330178234942"><ele>817.0</ele><time>2026-05-03T16:43:50Z</time></trkpt><trkpt lat="44.119936668194306" lon="10.290368854750149"><ele>817.0</ele><time>2026-05-03T16:43:51Z</time></trkpt><trkpt lat="44.120013808671445" lon="10.29042995607938"><ele>817.0</ele><time>2026-05-03T16:43:52Z</time></trkpt><trkpt lat="44.12008907558722" lon="10.29048962665602"><ele>816.9999999999999</ele><time>2026-05-03T16:43:53Z</time></trkpt><trkpt lat="44.12016515468434" lon="10.290484240983185"><ele>817.0</ele><time>2026-05-03T16:43:54Z</time></trkpt><trkpt lat="44.12022577807809" lon="10.290532754628614"><ele>819.25</ele><time>2026-05-03T16:43:55Z</time></trkpt><trkpt lat="44.12034990356694" lon="10.290635559807393"><ele>821.5</ele><time>2026-05-03T16:43:57Z</time></trkpt><trkpt lat="44.12041898203159" lon="10.29067960583629"><ele>823.75</ele><time>2026-05-03T16:43:58Z</time></trkpt><trkpt lat="44.12053592349918" lon="10.290801654704765"><ele>826.0</ele><time>2026-05-03T16:44:01Z</time></trkpt><trkpt lat="44.120583755764684" lon="10.290966053129795"><ele>826.0</ele><time>2026-05-03T16:44:03Z</time></trkpt><trkpt lat="44.12060928026863" lon="10.29106082695557"><ele>826.0</ele><time>2026-05-03T16:44:05Z</time></trkpt><trkpt lat="44.12058298383607" lon="10.291168648587124"><ele>826.0</ele><time>2026-05-03T16:44:06Z</time></trkpt><trkpt lat="44.120598748848266" lon="10.291261824929805"><ele>826.0</ele><time>2026-05-03T16:44:07Z</time></trkpt><trkpt lat="44.12063389717557" lon="10.29137204256506"><ele>826.0</ele><time>2026-05-03T16:44:09Z</time></trkpt><trkpt lat="44.120671170836125" lon="10.291564604418086"><ele>822.1999999999999</ele><time>2026-05-03T16:44:10Z</time></trkpt><trkpt lat="44.12070711879555" lon="10.291712189776177"><ele>818.4</ele><time>2026-05-03T16:44:11Z</time></trkpt><trkpt lat="44.120759758682674" lon="10.291859148567678"><ele>814.6</ele><time>2026-05-03T16:44:12Z</time></trkpt><trkpt lat="44.12078549949461" lon="10.291992608558255"><ele>810.8</ele><time>2026-05-03T16:44:13Z</time></trkpt><trkpt lat="44.12074010014952" lon="10.292056986460643"><ele>807.0</ele><time>2026-05-03T16:44:14Z</time></trkpt><trkpt lat="44.120733614860065" lon="10.292187728252284"><ele>816.5</ele><time>2026-05-03T16:44:16Z</time></trkpt><trkpt lat="44.12074109395941" lon="10.292296886405493"><ele>826.0</ele><time>2026-05-03T16:44:17Z</time></trkpt><trkpt lat="44.120743482160165" lon="10.292399458981954"><ele>835.5</ele><time>2026-05-03T16:44:19Z</time></trkpt><trkpt lat="44.12080662094993" lon="10.292537323110444"><ele>845.0</ele><time>2026-05-03T16:44:22Z</time></trkpt><trkpt lat="44.120865171197146" lon="10.29263663806655"><ele>854.5</ele><time>2026-05-03T16:44:22.999Z</time></trkpt><trkpt lat="44.120940497429046" lon="10.29268288766445"><ele>864.0</ele><time>2026-05-03T16:44:24.999Z</time></trkpt><trkpt lat="44.121187566090796" lon="10.292926926696353"><ele>864.0</ele><time>2026-05-03T16:44:26.999Z</time></trkpt><trkpt lat="44.12125280161234" lon="10.293012544655816"><ele>864.0000000000001</ele><time>2026-05-03T16:44:28.999Z</time></trkpt><trkpt lat="44.121322471929" lon="10.29310524450081"><ele>864.0000000000001</ele><time>2026-05-03T16:44:30.999Z</time></trkpt><trkpt lat="44.12137761873445" lon="10.293219960204583"><ele>864.0</ele><time>2026-05-03T16:44:32.999Z</time></trkpt><trkpt lat="44.12139930081465" lon="10.293353119094993"><ele>864.0</ele><time>2026-05-03T16:44:34.999Z</time></trkpt><trkpt lat="44.121311674665634" lon="10.293393691607813"><ele>860.1666666666666</ele><time>2026-05-03T16:44:54.999Z</time></trkpt><trkpt lat="44.12135543624919" lon="10.293460269310955"><ele>856.3333333333333</ele><time>2026-05-03T16:45:06.999Z</time></trkpt><trkpt lat="44.12139128612177" lon="10.29357822218472"><ele>852.5</ele><time>2026-05-03T16:45:43Z</time></trkpt><trkpt lat="44.12141019266503" lon="10.293674746389366"><ele>848.6666666666666</ele><time>2026-05-03T16:45:46Z</time></trkpt><trkpt lat="44.121462055683196" lon="10.293837726283531"><ele>844.8333333333333</ele><time>2026-05-03T16:45:49Z</time></trkpt><trkpt lat="44.12149013651886" lon="10.293955161496509"><ele>841.0</ele><time>2026-05-03T16:45:51Z</time></trkpt><trkpt lat="44.121549173755724" lon="10.294457825380654"><ele>844.0</ele><time>2026-05-03T16:45:53Z</time></trkpt><trkpt lat="44.12161486782535" lon="10.294531975945267"><ele>847.0</ele><time>2026-05-03T16:45:54Z</time></trkpt><trkpt lat="44.12172091091705" lon="10.294636279136936"><ele>850.0</ele><time>2026-05-03T16:45:56Z</time></trkpt><trkpt lat="44.121857349547135" lon="10.294753019514022"><ele>853.0</ele><time>2026-05-03T16:45:58Z</time></trkpt><trkpt lat="44.12192849342225" lon="10.29486856378184"><ele>853.0</ele><time>2026-05-03T16:45:59Z</time></trkpt><trkpt lat="44.12199154114368" lon="10.295033406051358"><ele>853.0</ele><time>2026-05-03T16:46:00Z</time></trkpt><trkpt lat="44.122066714616004" lon="10.295181376910307"><ele>853.0</ele><time>2026-05-03T16:46:01Z</time></trkpt><trkpt lat="44.12206743978308" lon="10.295342128423721"><ele>853.0</ele><time>2026-05-03T16:46:04Z</time></trkpt><trkpt lat="44.122100096613664" lon="10.29542321296328"><ele>853.0</ele><time>2026-05-03T16:46:05Z</time></trkpt><trkpt lat="44.122154555378465" lon="10.2955775883764"><ele>852.9999999999999</ele><time>2026-05-03T16:46:07Z</time></trkpt><trkpt lat="44.12220325294346" lon="10.295655220125056"><ele>853.0</ele><time>2026-05-03T16:46:08Z</time></trkpt><trkpt lat="44.12225851550873" lon="10.295599536097559"><ele>853.0</ele><time>2026-05-03T16:46:10Z</time></trkpt><trkpt lat="44.122339652305676" lon="10.29557530815894"><ele>853.0</ele><time>2026-05-03T16:46:11Z</time></trkpt><trkpt lat="44.122447417978925" lon="10.295535505251138"><ele>852.9999999999999</ele><time>2026-05-03T16:46:13Z</time></trkpt><trkpt lat="44.122535264536594" lon="10.295469910994598"><ele>853.0</ele><time>2026-05-03T16:46:14Z</time></trkpt><trkpt lat="44.12257910377053" lon="10.29537733696484"><ele>856.9999999999999</ele><time>2026-05-03T16:46:16Z</time></trkpt><trkpt lat="44.12265338778207" lon="10.295351919848867"><ele>861.0</ele><time>2026-05-03T16:46:18Z</time></trkpt><trkpt lat="44.12270576448723" lon="10.295290337389748"><ele>865.0</ele><time>2026-05-03T16:46:20Z</time></trkpt><trkpt lat="44.12276683716682" lon="10.295326487184806"><ele>869.0</ele><time>2026-05-03T16:46:21Z</time></trkpt><trkpt lat="44.122838701162834" lon="10.29529281109744"><ele>872.9999999999999</ele><time>2026-05-03T16:46:23Z</time></trkpt><trkpt lat="44.12292387696605" lon="10.29523906385487"><ele>877.0</ele><time>2026-05-03T16:46:25Z</time></trkpt><trkpt lat="44.12310355205154" lon="10.295095398928346"><ele>877.0</ele><time>2026-05-03T16:46:27Z</time></trkpt><trkpt lat="44.12320725296627" lon="10.295026780502308"><ele>877.0</ele><time>2026-05-03T16:46:29Z</time></trkpt><trkpt lat="44.12327876406785" lon="10.294935993376312"><ele>877.0</ele><time>2026-05-03T16:46:31Z</time></trkpt><trkpt lat="44.123364207245515" lon="10.294776091182708"><ele>877.0</ele><time>2026-05-03T16:46:32.999Z</time></trkpt><trkpt lat="44.12341953488743" lon="10.294674417245368"><ele>877.0</ele><time>2026-05-03T16:46:33.999Z</time></trkpt><trkpt lat="44.12348588200021" lon="10.294554526630984"><ele>879.1666666666666</ele><time>2026-05-03T16:46:34.999Z</time></trkpt><trkpt lat="44.12353787324879" lon="10.29445486451087"><ele>881.3333333333333</ele><time>2026-05-03T16:46:35.999Z</time></trkpt><trkpt lat="44.12356915625063" lon="10.294378228573843"><ele>883.5</ele><time>2026-05-03T16:46:36.999Z</time></trkpt><trkpt lat="44.12358867461855" lon="10.294240935507721"><ele>885.6666666666667</ele><time>2026-05-03T16:46:38.999Z</time></trkpt><trkpt lat="44.1235904563065" lon="10.294062526505064"><ele>887.8333333333334</ele><time>2026-05-03T16:46:40.999Z</time></trkpt><trkpt lat="44.12358740518224" lon="10.293969712976232"><ele>890.0</ele><time>2026-05-03T16:46:41.999Z</time></trkpt><trkpt lat="44.12359492190585" lon="10.293875433915707"><ele>892.8333333333334</ele><time>2026-05-03T16:46:42.999Z</time></trkpt><trkpt lat="44.12361590684885" lon="10.29378948871522"><ele>895.6666666666667</ele><time>2026-05-03T16:46:43.999Z</time></trkpt><trkpt lat="44.12372462548359" lon="10.293717029560634"><ele>898.5</ele><time>2026-05-03T16:46:45.999Z</time></trkpt><trkpt lat="44.12375736949227" lon="10.293641784256234"><ele>901.3333333333333</ele><time>2026-05-03T16:46:47.999Z</time></trkpt><trkpt lat="44.12378304741043" lon="10.293533456126259"><ele>904.1666666666666</ele><time>2026-05-03T16:46:50.999Z</time></trkpt><trkpt lat="44.12380818241058" lon="10.293444815147682"><ele>907.0</ele><time>2026-05-03T16:46:53.999Z</time></trkpt><trkpt lat="44.12385010014556" lon="10.293349066560971"><ele>907.0</ele><time>2026-05-03T16:46:56.999Z</time></trkpt><trkpt lat="44.123895961659855" lon="10.293263806210014"><ele>907.0</ele><time>2026-05-03T16:46:57.999Z</time></trkpt><trkpt lat="44.12395788031921" lon="10.293150582469455"><ele>907.0</ele><time>2026-05-03T16:46:59.999Z</time></trkpt><trkpt lat="44.12397918741934" lon="10.29306336955752"><ele>907.0</ele><time>2026-05-03T16:47:01.999Z</time></trkpt><trkpt lat="44.12403769056776" lon="10.2929051928206"><ele>907.0</ele><time>2026-05-03T16:47:03.999Z</time></trkpt><trkpt lat="44.12404443149408" lon="10.292788185505051"><ele>910.8</ele><time>2026-05-03T16:47:04.999Z</time></trkpt><trkpt lat="44.12403806459631" lon="10.292695442251713"><ele>914.6</ele><time>2026-05-03T16:47:05.999Z</time></trkpt><trkpt lat="44.12403742633719" lon="10.292573276709732"><ele>918.3999999999999</ele><time>2026-05-03T16:47:07.999Z</time></trkpt><trkpt lat="44.1241353362417" lon="10.292507813835485"><ele>922.1999999999999</ele><time>2026-05-03T16:47:10.999Z</time></trkpt><trkpt lat="44.12407361698525" lon="10.292627175269834"><ele>926.0</ele><time>2026-05-03T16:47:11.999Z</time></trkpt><trkpt lat="44.124146639611226" lon="10.292571410079226"><ele>922.6666666666667</ele><time>2026-05-03T16:47:13.999Z</time></trkpt><trkpt lat="44.12421415780401" lon="10.292461987049629"><ele>919.3333333333334</ele><time>2026-05-03T16:47:17.999Z</time></trkpt><trkpt lat="44.124239911635804" lon="10.29237011245942"><ele>916.0</ele><time>2026-05-03T16:47:19.999Z</time></trkpt><trkpt lat="44.12429401017746" lon="10.292299036044108"><ele>912.6666666666667</ele><time>2026-05-03T16:47:21.999Z</time></trkpt><trkpt lat="44.124366965151424" lon="10.292295719347894"><ele>909.3333333333334</ele><time>2026-05-03T16:47:24.999Z</time></trkpt><trkpt lat="44.12448276187441" lon="10.292276375651287"><ele>906.0</ele><time>2026-05-03T16:47:27.999Z</time></trkpt><trkpt lat="44.12458278998086" lon="10.292240552767478"><ele>906.0</ele><time>2026-05-03T16:47:29.999Z</time></trkpt><trkpt lat="44.12467642710967" lon="10.29220809049931"><ele>906.0</ele><time>2026-05-03T16:47:31.999Z</time></trkpt><trkpt lat="44.124744602323844" lon="10.29219987231406"><ele>906.0</ele><time>2026-05-03T16:47:34Z</time></trkpt><trkpt lat="44.12480668948576" lon="10.29223627703665"><ele>906.0</ele><time>2026-05-03T16:47:36Z</time></trkpt><trkpt lat="44.12488832248629" lon="10.292251242861463"><ele>906.0</ele><time>2026-05-03T16:47:38Z</time></trkpt><trkpt lat="44.12495334693316" lon="10.292319412482978"><ele>906.0</ele><time>2026-05-03T16:47:40Z</time></trkpt><trkpt lat="44.12498956919355" lon="10.292404574273604"><ele>896.0</ele><time>2026-05-03T16:47:42Z</time></trkpt><trkpt lat="44.12506275741181" lon="10.292435488253844"><ele>886.0</ele><time>2026-05-03T16:47:44Z</time></trkpt><trkpt lat="44.125143894019736" lon="10.29248476561311"><ele>876.0</ele><time>2026-05-03T16:47:46Z</time></trkpt><trkpt lat="44.125294709023414" lon="10.292651805627935"><ele>866.0</ele><time>2026-05-03T16:47:47Z</time></trkpt><trkpt lat="44.12539728168488" lon="10.2926860019186"><ele>866.0</ele><time>2026-05-03T16:47:50Z</time></trkpt><trkpt lat="44.125490011381004" lon="10.292681626748472"><ele>865.9999999999999</ele><time>2026-05-03T16:47:52Z</time></trkpt><trkpt lat="44.12555623414986" lon="10.292602292235818"><ele>865.9999999999999</ele><time>2026-05-03T16:47:55Z</time></trkpt><trkpt lat="44.12564234351835" lon="10.29252173050772"><ele>866.0</ele><time>2026-05-03T16:47:57Z</time></trkpt><trkpt lat="44.12571172855787" lon="10.292441036357248"><ele>866.0</ele><time>2026-05-03T16:47:59Z</time></trkpt><trkpt lat="44.12579349606947" lon="10.292324728706744"><ele>863.8</ele><time>2026-05-03T16:48:01Z</time></trkpt><trkpt lat="44.12583885952987" lon="10.292259840850436"><ele>861.5999999999999</ele><time>2026-05-03T16:48:02Z</time></trkpt><trkpt lat="44.12593202323637" lon="10.292119062304911"><ele>859.4</ele><time>2026-05-03T16:48:06Z</time></trkpt><trkpt lat="44.1260245852541" lon="10.292035887578233"><ele>857.2</ele><time>2026-05-03T16:48:08Z</time></trkpt><trkpt lat="44.126107349085174" lon="10.291979934436748"><ele>855.0</ele><time>2026-05-03T16:48:12Z</time></trkpt><trkpt lat="44.12615691847599" lon="10.291879019600263"><ele>860.8333333333334</ele><time>2026-05-03T16:48:15Z</time></trkpt><trkpt lat="44.126215655253745" lon="10.291822831780381"><ele>866.6666666666667</ele><time>2026-05-03T16:48:17Z</time></trkpt><trkpt lat="44.12625934297487" lon="10.29171647971145"><ele>872.5</ele><time>2026-05-03T16:48:19Z</time></trkpt><trkpt lat="44.126302654905224" lon="10.291639324694664"><ele>878.3333333333334</ele><time>2026-05-03T16:48:22Z</time></trkpt><trkpt lat="44.12638327675857" lon="10.291600843933846"><ele>884.1666666666667</ele><time>2026-05-03T16:48:25Z</time></trkpt><trkpt lat="44.12645066968996" lon="10.291547777879943"><ele>890.0</ele><time>2026-05-03T16:48:28Z</time></trkpt><trkpt lat="44.126551346042355" lon="10.291536424094874"><ele>887.6666666666667</ele><time>2026-05-03T16:48:32Z</time></trkpt><trkpt lat="44.12661733350691" lon="10.291581075686263"><ele>885.3333333333334</ele><time>2026-05-03T16:48:34Z</time></trkpt><trkpt lat="44.12669922436899" lon="10.291556533055934"><ele>883.0</ele><time>2026-05-03T16:48:36Z</time></trkpt><trkpt lat="44.12677185362364" lon="10.291581832683173"><ele>880.6666666666667</ele><time>2026-05-03T16:48:38Z</time></trkpt><trkpt lat="44.12686643404661" lon="10.291661902641923"><ele>878.3333333333334</ele><time>2026-05-03T16:48:40Z</time></trkpt><trkpt lat="44.12693818362885" lon="10.29170167294863"><ele>876.0</ele><time>2026-05-03T16:48:41.999Z</time></trkpt><trkpt lat="44.127001557838426" lon="10.291711556053908"><ele>876.0</ele><time>2026-05-03T16:48:45.999Z</time></trkpt><trkpt lat="44.127072119012304" lon="10.291716636410547"><ele>876.0</ele><time>2026-05-03T16:48:52.999Z</time></trkpt><trkpt lat="44.12715211109686" lon="10.291676688068696"><ele>876.0</ele><time>2026-05-03T16:48:55.999Z</time></trkpt><trkpt lat="44.12722234393547" lon="10.29170264000874"><ele>876.0</ele><time>2026-05-03T16:49:08.999Z</time></trkpt><trkpt lat="44.127345017065366" lon="10.291733181125224"><ele>876.0</ele><time>2026-05-03T16:50:45Z</time></trkpt><trkpt lat="44.12741225875776" lon="10.291771081022512"><ele>876.0</ele><time>2026-05-03T16:50:48Z</time></trkpt><trkpt lat="44.12747467126263" lon="10.291814884056775"><ele>876.6666666666666</ele><time>2026-05-03T16:51:27.999Z</time></trkpt><trkpt lat="44.12755636818574" lon="10.29184443477979"><ele>877.3333333333333</ele><time>2026-05-03T16:51:30.999Z</time></trkpt><trkpt lat="44.127621361810206" lon="10.291816016621288"><ele>878.0</ele><time>2026-05-03T16:51:35.999Z</time></trkpt><trkpt lat="44.12770327063379" lon="10.291787009042695"><ele>878.6666666666666</ele><time>2026-05-03T16:51:38.999Z</time></trkpt><trkpt lat="44.127785896951046" lon="10.291751992969704"><ele>879.3333333333333</ele><time>2026-05-03T16:51:41.999Z</time></trkpt><trkpt lat="44.127849595950075" lon="10.291756516268345"><ele>880.0</ele><time>2026-05-03T16:51:43.999Z</time></trkpt><trkpt lat="44.12794849825818" lon="10.291795909680014"><ele>879.9999999999999</ele><time>2026-05-03T16:51:46Z</time></trkpt><trkpt lat="44.128030804085675" lon="10.291825114705308"><ele>880.0</ele><time>2026-05-03T16:51:49Z</time></trkpt><trkpt lat="44.12810322374988" lon="10.291841986500492"><ele>880.0</ele><time>2026-05-03T16:51:52Z</time></trkpt><trkpt lat="44.128162948544876" lon="10.2918782539772"><ele>880.0</ele><time>2026-05-03T16:51:54Z</time></trkpt><trkpt lat="44.12826693557132" lon="10.291869765537157"><ele>879.9999999999999</ele><time>2026-05-03T16:51:56Z</time></trkpt><trkpt lat="44.128338584869994" lon="10.291872052778603"><ele>880.0</ele><time>2026-05-03T16:51:58Z</time></trkpt><trkpt lat="44.12844499197938" lon="10.291907028690032"><ele>881.1428571428571</ele><time>2026-05-03T16:52:01Z</time></trkpt><trkpt lat="44.12850168690393" lon="10.291961425415476"><ele>882.2857142857142</ele><time>2026-05-03T16:52:04Z</time></trkpt><trkpt lat="44.128519714368544" lon="10.292046268355906"><ele>883.4285714285713</ele><time>2026-05-03T16:52:06Z</time></trkpt><trkpt lat="44.12853124717634" lon="10.292166340462476"><ele>884.5714285714286</ele><time>2026-05-03T16:52:09Z</time></trkpt><trkpt lat="44.12854720189565" lon="10.292274969374569"><ele>885.7142857142858</ele><time>2026-05-03T16:52:11Z</time></trkpt><trkpt lat="44.12857248440501" lon="10.292366841988036"><ele>886.8571428571428</ele><time>2026-05-03T16:52:12Z</time></trkpt><trkpt lat="44.12857979375134" lon="10.29247219701614"><ele>888.0</ele><time>2026-05-03T16:52:14Z</time></trkpt><trkpt lat="44.12852992804182" lon="10.292558357077127"><ele>883.6666666666666</ele><time>2026-05-03T16:52:16Z</time></trkpt><trkpt lat="44.12853097888582" lon="10.292698365758824"><ele>879.3333333333333</ele><time>2026-05-03T16:52:19Z</time></trkpt><trkpt lat="44.12854542517567" lon="10.292809207036294"><ele>875.0</ele><time>2026-05-03T16:52:21Z</time></trkpt><trkpt lat="44.12855496594857" lon="10.292903736941645"><ele>870.6666666666666</ele><time>2026-05-03T16:52:23Z</time></trkpt><trkpt lat="44.12858788758241" lon="10.293041453451718"><ele>866.3333333333333</ele><time>2026-05-03T16:52:25Z</time></trkpt><trkpt lat="44.12855883976481" lon="10.293135362625332"><ele>862.0</ele><time>2026-05-03T16:52:27Z</time></trkpt><trkpt lat="44.12853965954386" lon="10.293231196558464"><ele>861.4999999999999</ele><time>2026-05-03T16:52:30Z</time></trkpt><trkpt lat="44.12855699272375" lon="10.293352143896094"><ele>861.0</ele><time>2026-05-03T16:52:33Z</time></trkpt><trkpt lat="44.12859384895501" lon="10.293454972649915"><ele>860.5</ele><time>2026-05-03T16:52:35Z</time></trkpt><trkpt lat="44.12861663139948" lon="10.293541825904063"><ele>860.0</ele><time>2026-05-03T16:52:36Z</time></trkpt><trkpt lat="44.12859332684405" lon="10.293663581192178"><ele>859.4999999999999</ele><time>2026-05-03T16:52:38Z</time></trkpt><trkpt lat="44.128551049655066" lon="10.293819696161892"><ele>859.0</ele><time>2026-05-03T16:52:40Z</time></trkpt><trkpt lat="44.12851075502816" lon="10.29402220207287"><ele>858.9999999999999</ele><time>2026-05-03T16:52:42Z</time></trkpt><trkpt lat="44.12847373179686" lon="10.294123242615193"><ele>859.0</ele><time>2026-05-03T16:52:43Z</time></trkpt><trkpt lat="44.1284421768659" lon="10.294309895286323"><ele>859.0</ele><time>2026-05-03T16:52:45Z</time></trkpt><trkpt lat="44.12843731728121" lon="10.294410599479846"><ele>859.0</ele><time>2026-05-03T16:52:46Z</time></trkpt><trkpt lat="44.12845571672726" lon="10.294514636357432"><ele>858.9999999999999</ele><time>2026-05-03T16:52:47Z</time></trkpt><trkpt lat="44.12847624214853" lon="10.294614893514083"><ele>859.0</ele><time>2026-05-03T16:52:48Z</time></trkpt><trkpt lat="44.1284989671127" lon="10.294714990233262"><ele>858.8333333333333</ele><time>2026-05-03T16:52:49Z</time></trkpt><trkpt lat="44.128508643410406" lon="10.294828816111279"><ele>858.6666666666666</ele><time>2026-05-03T16:52:50Z</time></trkpt><trkpt lat="44.128515823057754" lon="10.294933707207166"><ele>858.5</ele><time>2026-05-03T16:52:51Z</time></trkpt><trkpt lat="44.12851558757484" lon="10.29505442734817"><ele>858.3333333333333</ele><time>2026-05-03T16:52:52Z</time></trkpt><trkpt lat="44.12852639285086" lon="10.295204971646477"><ele>858.1666666666666</ele><time>2026-05-03T16:52:53Z</time></trkpt><trkpt lat="44.12856116434213" lon="10.2953064171765"><ele>858.0</ele><time>2026-05-03T16:52:54Z</time></trkpt><trkpt lat="44.12859553890793" lon="10.295481655945515"><ele>856.5999999999999</ele><time>2026-05-03T16:52:56Z</time></trkpt><trkpt lat="44.12860953979048" lon="10.295638112906587"><ele>855.1999999999999</ele><time>2026-05-03T16:52:57Z</time></trkpt><trkpt lat="44.12864419445602" lon="10.29576722247206"><ele>853.8</ele><time>2026-05-03T16:52:58Z</time></trkpt><trkpt lat="44.12868046631317" lon="10.295862692822976"><ele>852.4</ele><time>2026-05-03T16:52:59Z</time></trkpt><trkpt lat="44.12872315697432" lon="10.295995084624032"><ele>851.0</ele><time>2026-05-03T16:53:01Z</time></trkpt><trkpt lat="44.12876729770957" lon="10.296132519121125"><ele>851.0</ele><time>2026-05-03T16:53:03Z</time></trkpt><trkpt lat="44.128819245171805" lon="10.296230947915365"><ele>851.0</ele><time>2026-05-03T16:53:04Z</time></trkpt><trkpt lat="44.128862483179574" lon="10.296329548764849"><ele>851.0</ele><time>2026-05-03T16:53:05Z</time></trkpt><trkpt lat="44.12890229554126" lon="10.296447866264591"><ele>851.0</ele><time>2026-05-03T16:53:05.999Z</time></trkpt><trkpt lat="44.12894692761555" lon="10.296576073971384"><ele>851.0</ele><time>2026-05-03T16:53:06.999Z</time></trkpt><trkpt lat="44.12898341262891" lon="10.296734284442914"><ele>848.8</ele><time>2026-05-03T16:53:08.999Z</time></trkpt><trkpt lat="44.12902202404497" lon="10.296818572077907"><ele>846.5999999999999</ele><time>2026-05-03T16:53:09.999Z</time></trkpt><trkpt lat="44.129091658815405" lon="10.296866958510021"><ele>844.4</ele><time>2026-05-03T16:53:10.999Z</time></trkpt><trkpt lat="44.12919412694016" lon="10.296909716759817"><ele>842.2</ele><time>2026-05-03T16:53:11.999Z</time></trkpt><trkpt lat="44.12930078939326" lon="10.296999720314943"><ele>840.0</ele><time>2026-05-03T16:53:12.999Z</time></trkpt><trkpt lat="44.129366808842214" lon="10.297091731478137"><ele>842.8333333333334</ele><time>2026-05-03T16:53:13.999Z</time></trkpt><trkpt lat="44.12941222570298" lon="10.297189195408622"><ele>845.6666666666667</ele><time>2026-05-03T16:53:14.999Z</time></trkpt><trkpt lat="44.12946139391969" lon="10.297270185484946"><ele>848.5</ele><time>2026-05-03T16:53:15.999Z</time></trkpt><trkpt lat="44.12954097987722" lon="10.297319265376476"><ele>851.3333333333334</ele><time>2026-05-03T16:53:17.999Z</time></trkpt><trkpt lat="44.12964208441381" lon="10.297407101049455"><ele>854.1666666666667</ele><time>2026-05-03T16:53:19.999Z</time></trkpt><trkpt lat="44.12968765872394" lon="10.297478390418668"><ele>857.0</ele><time>2026-05-03T16:53:20.999Z</time></trkpt><trkpt lat="44.12976210128087" lon="10.297559743410027"><ele>857.0000000000001</ele><time>2026-05-03T16:53:21.999Z</time></trkpt><trkpt lat="44.129809025670724" lon="10.297640529374096"><ele>857.0</ele><time>2026-05-03T16:53:22.999Z</time></trkpt><trkpt lat="44.12985732777004" lon="10.297700142530218"><ele>857.0</ele><time>2026-05-03T16:53:23.999Z</time></trkpt><trkpt lat="44.12991178825841" lon="10.297767716871139"><ele>857.0</ele><time>2026-05-03T16:53:25.999Z</time></trkpt><trkpt lat="44.12997323849907" lon="10.29784081247311"><ele>857.0000000000001</ele><time>2026-05-03T16:54:35Z</time></trkpt><trkpt lat="44.13002843397096" lon="10.297916320102503"><ele>857.0</ele><time>2026-05-03T16:54:37Z</time></trkpt><trkpt lat="44.13012233490548" lon="10.298023538291062"><ele>860.4000000000001</ele><time>2026-05-03T16:54:39Z</time></trkpt><trkpt lat="44.130235747340635" lon="10.29805580102387"><ele>863.8000000000001</ele><time>2026-05-03T16:54:41Z</time></trkpt><trkpt lat="44.130304911193676" lon="10.298067690961506"><ele>867.2</ele><time>2026-05-03T16:54:42Z</time></trkpt><trkpt lat="44.130443685770096" lon="10.298029952665784"><ele>870.6</ele><time>2026-05-03T16:54:44Z</time></trkpt><trkpt lat="44.130547672312176" lon="10.297989874458706"><ele>874.0</ele><time>2026-05-03T16:54:45Z</time></trkpt><trkpt lat="44.13063960265441" lon="10.297966249552772"><ele>875.3333333333333</ele><time>2026-05-03T16:54:46Z</time></trkpt><trkpt lat="44.13073803097024" lon="10.297954060763235"><ele>876.6666666666666</ele><time>2026-05-03T16:54:47Z</time></trkpt><trkpt lat="44.13079963759481" lon="10.297934435157165"><ele>878.0</ele><time>2026-05-03T16:54:48Z</time></trkpt><trkpt lat="44.13086545110135" lon="10.297889312350923"><ele>879.3333333333333</ele><time>2026-05-03T16:54:49Z</time></trkpt><trkpt lat="44.130939291332616" lon="10.29782005736402"><ele>880.6666666666666</ele><time>2026-05-03T16:54:50Z</time></trkpt><trkpt lat="44.131024814804285" lon="10.297725125725757"><ele>882.0</ele><time>2026-05-03T16:54:51Z</time></trkpt><trkpt lat="44.131090141340444" lon="10.297651939283218"><ele>882.0</ele><time>2026-05-03T16:54:52Z</time></trkpt><trkpt lat="44.13117840145335" lon="10.297504539025747"><ele>882.0</ele><time>2026-05-03T16:54:54Z</time></trkpt><trkpt lat="44.13125633332049" lon="10.297370237436239"><ele>882.0</ele><time>2026-05-03T16:54:56Z</time></trkpt><trkpt lat="44.13130334869292" lon="10.29726463892192"><ele>882.0</ele><time>2026-05-03T16:54:57Z</time></trkpt><trkpt lat="44.13134329647605" lon="10.29717254506696"><ele>882.0</ele><time>2026-05-03T16:54:58Z</time></trkpt><trkpt lat="44.131388352783546" lon="10.297077737135622"><ele>880.2</ele><time>2026-05-03T16:54:59Z</time></trkpt><trkpt lat="44.131451732076165" lon="10.297019097920463"><ele>878.4000000000001</ele><time>2026-05-03T16:55:00Z</time></trkpt><trkpt lat="44.131560804857045" lon="10.296979564762488"><ele>876.5999999999999</ele><time>2026-05-03T16:55:01Z</time></trkpt><trkpt lat="44.13166789908293" lon="10.29697383101568"><ele>874.8</ele><time>2026-05-03T16:55:02Z</time></trkpt><trkpt lat="44.13179433029742" lon="10.296873555376859"><ele>873.0</ele><time>2026-05-03T16:55:03.999Z</time></trkpt><trkpt lat="44.13187548990678" lon="10.296806872173347"><ele>873.0</ele><time>2026-05-03T16:55:04.999Z</time></trkpt><trkpt lat="44.13197668801938" lon="10.296724505280494"><ele>873.0</ele><time>2026-05-03T16:55:05.999Z</time></trkpt><trkpt lat="44.13208278572311" lon="10.296639318418343"><ele>873.0</ele><time>2026-05-03T16:55:06.999Z</time></trkpt><trkpt lat="44.132172428305616" lon="10.29657262611576"><ele>873.0</ele><time>2026-05-03T16:55:07.999Z</time></trkpt><trkpt lat="44.1322303122777" lon="10.296524254327153"><ele>873.0</ele><time>2026-05-03T16:55:08.999Z</time></trkpt><trkpt lat="44.132299879344316" lon="10.29642662541005"><ele>872.25</ele><time>2026-05-03T16:55:09.999Z</time></trkpt><trkpt lat="44.132373123063914" lon="10.296284128159195"><ele>871.5</ele><time>2026-05-03T16:55:10.999Z</time></trkpt><trkpt lat="44.13243783250589" lon="10.29615150625562"><ele>870.75</ele><time>2026-05-03T16:55:11.999Z</time></trkpt><trkpt lat="44.132505552142604" lon="10.296086003651546"><ele>870.0</ele><time>2026-05-03T16:55:12.999Z</time></trkpt><trkpt lat="44.13260930771959" lon="10.295975834941657"><ele>870.0</ele><time>2026-05-03T16:55:14.999Z</time></trkpt><trkpt lat="44.13270668346068" lon="10.295938113262839"><ele>870.0</ele><time>2026-05-03T16:55:15.999Z</time></trkpt><trkpt lat="44.13283180146182" lon="10.295916461884753"><ele>870.0</ele><time>2026-05-03T16:55:16.999Z</time></trkpt><trkpt lat="44.13292022537127" lon="10.295900580302716"><ele>870.0</ele><time>2026-05-03T16:55:17.999Z</time></trkpt><trkpt lat="44.13300323300079" lon="10.295884751591139"><ele>870.0</ele><time>2026-05-03T16:55:18.999Z</time></trkpt><trkpt lat="44.133111777825796" lon="10.29580172366143"><ele>870.0</ele><time>2026-05-03T16:55:20.999Z</time></trkpt><trkpt lat="44.13321656965079" lon="10.29579096805308"><ele>870.0</ele><time>2026-05-03T16:55:21.999Z</time></trkpt><trkpt lat="44.13329687019647" lon="10.295783884392716"><ele>870.0</ele><time>2026-05-03T16:55:22.999Z</time></trkpt><trkpt lat="44.133355001930305" lon="10.295743085308516"><ele>870.0</ele><time>2026-05-03T16:55:23.999Z</time></trkpt><trkpt lat="44.133446797776166" lon="10.29568819027097"><ele>870.0</ele><time>2026-05-03T16:55:24.999Z</time></trkpt><trkpt lat="44.1335087468277" lon="10.295660321579026"><ele>870.0</ele><time>2026-05-03T16:55:25.999Z</time></trkpt><trkpt lat="44.13358430333454" lon="10.2955922236209"><ele>872.2</ele><time>2026-05-03T16:55:26.999Z</time></trkpt><trkpt lat="44.13366699200901" lon="10.2955187417874"><ele>874.4</ele><time>2026-05-03T16:55:27.999Z</time></trkpt><trkpt lat="44.133809695853884" lon="10.295492464619647"><ele>876.5999999999999</ele><time>2026-05-03T16:55:28.999Z</time></trkpt><trkpt lat="44.133906707194434" lon="10.295473613238045"><ele>878.8</ele><time>2026-05-03T16:55:29.999Z</time></trkpt><trkpt lat="44.13398546350376" lon="10.29544401008451"><ele>881.0</ele><time>2026-05-03T16:55:30.999Z</time></trkpt><trkpt lat="44.134084891072774" lon="10.295415061697765"><ele>876.1666666666667</ele><time>2026-05-03T16:55:31.999Z</time></trkpt><trkpt lat="44.13417897575702" lon="10.295364029385594"><ele>871.3333333333334</ele><time>2026-05-03T16:55:32.999Z</time></trkpt><trkpt lat="44.13425845562387" lon="10.295337538151669"><ele>866.5</ele><time>2026-05-03T16:55:33.999Z</time></trkpt><trkpt lat="44.13436823896442" lon="10.295262304198006"><ele>861.6666666666667</ele><time>2026-05-03T16:55:35.999Z</time></trkpt><trkpt lat="44.13442843464715" lon="10.295218395706286"><ele>856.8333333333334</ele><time>2026-05-03T16:55:36.999Z</time></trkpt><trkpt lat="44.13449407907704" lon="10.29518383453947"><ele>852.0</ele><time>2026-05-03T16:55:37.999Z</time></trkpt><trkpt lat="44.13455270134587" lon="10.295144550671473"><ele>852.0</ele><time>2026-05-03T16:55:38.999Z</time></trkpt><trkpt lat="44.13464974321388" lon="10.29507897874089"><ele>852.0</ele><time>2026-05-03T16:55:40.999Z</time></trkpt><trkpt lat="44.1347072871285" lon="10.294901746675574"><ele>852.0</ele><time>2026-05-03T16:55:42.999Z</time></trkpt><trkpt lat="44.13473416854159" lon="10.294786698848554"><ele>852.0</ele><time>2026-05-03T16:55:43.999Z</time></trkpt><trkpt lat="44.13478834841445" lon="10.294668202656863"><ele>852.0</ele><time>2026-05-03T16:55:44.999Z</time></trkpt><trkpt lat="44.134808605369464" lon="10.294573187675095"><ele>850.25</ele><time>2026-05-03T16:55:45.999Z</time></trkpt><trkpt lat="44.13485441361758" lon="10.294424950260384"><ele>848.5</ele><time>2026-05-03T16:55:46.999Z</time></trkpt><trkpt lat="44.13486538278223" lon="10.294264177833155"><ele>846.75</ele><time>2026-05-03T16:55:47.999Z</time></trkpt><trkpt lat="44.13490047073247" lon="10.29415354340442"><ele>845.0</ele><time>2026-05-03T16:55:49.999Z</time></trkpt><trkpt lat="44.13503533502075" lon="10.294249303836692"><ele>845.0000000000001</ele><time>2026-05-03T16:55:51.999Z</time></trkpt><trkpt lat="44.13510415610583" lon="10.294294334056898"><ele>845.0</ele><time>2026-05-03T16:55:52.999Z</time></trkpt><trkpt lat="44.1351739178716" lon="10.29433727410328"><ele>845.0</ele><time>2026-05-03T16:55:53.999Z</time></trkpt><trkpt lat="44.13525300160003" lon="10.294405934283837"><ele>845.0</ele><time>2026-05-03T16:55:54.999Z</time></trkpt><trkpt lat="44.13531931117176" lon="10.294448433982135"><ele>845.0000000000001</ele><time>2026-05-03T16:55:55.999Z</time></trkpt><trkpt lat="44.135422966593254" lon="10.29442372828475"><ele>845.0</ele><time>2026-05-03T16:55:58Z</time></trkpt><trkpt lat="44.13549545696127" lon="10.294404704057097"><ele>845.0</ele><time>2026-05-03T16:55:59Z</time></trkpt><trkpt lat="44.13561333272125" lon="10.294342411362695"><ele>845.0</ele><time>2026-05-03T16:56:00Z</time></trkpt><trkpt lat="44.13570081667001" lon="10.29431575608994"><ele>845.0</ele><time>2026-05-03T16:56:01Z</time></trkpt><trkpt lat="44.13578841059081" lon="10.294403878266559"><ele>845.0</ele><time>2026-05-03T16:56:03Z</time></trkpt><trkpt lat="44.135866171539945" lon="10.29446874609554"><ele>845.0</ele><time>2026-05-03T16:56:04Z</time></trkpt><trkpt lat="44.13595370716475" lon="10.29449499009673"><ele>844.8</ele><time>2026-05-03T16:56:05Z</time></trkpt><trkpt lat="44.13607742508134" lon="10.294542967423022"><ele>844.6</ele><time>2026-05-03T16:56:06Z</time></trkpt><trkpt lat="44.13618239230112" lon="10.294588575151721"><ele>844.4000000000001</ele><time>2026-05-03T16:56:07Z</time></trkpt><trkpt lat="44.13625310248226" lon="10.294655192488545"><ele>844.2</ele><time>2026-05-03T16:56:08Z</time></trkpt><trkpt lat="44.13632508210891" lon="10.294681758138523"><ele>844.0</ele><time>2026-05-03T16:56:09Z</time></trkpt><trkpt lat="44.13638977958971" lon="10.294692202895302"><ele>843.9999999999999</ele><time>2026-05-03T16:56:10Z</time></trkpt><trkpt lat="44.136477032125796" lon="10.294737594966893"><ele>844.0</ele><time>2026-05-03T16:56:11Z</time></trkpt><trkpt lat="44.13652521083538" lon="10.29482859455819"><ele>844.0</ele><time>2026-05-03T16:56:12Z</time></trkpt><trkpt lat="44.13658605938247" lon="10.294932645358948"><ele>844.0</ele><time>2026-05-03T16:56:13Z</time></trkpt><trkpt lat="44.13665880684204" lon="10.29499325152172"><ele>843.9999999999999</ele><time>2026-05-03T16:56:14Z</time></trkpt><trkpt lat="44.136726873831094" lon="10.295038809876267"><ele>844.0</ele><time>2026-05-03T16:56:15Z</time></trkpt><trkpt lat="44.13678369133692" lon="10.295086713959352"><ele>839.75</ele><time>2026-05-03T16:56:16Z</time></trkpt><trkpt lat="44.13690462063516" lon="10.295138609916743"><ele>835.5</ele><time>2026-05-03T16:56:18Z</time></trkpt><trkpt lat="44.13706476684249" lon="10.295139012659481"><ele>831.25</ele><time>2026-05-03T16:56:20Z</time></trkpt><trkpt lat="44.13716228457584" lon="10.295122844246347"><ele>827.0</ele><time>2026-05-03T16:56:21Z</time></trkpt><trkpt lat="44.13723625982067" lon="10.295114307154176"><ele>827.0</ele><time>2026-05-03T16:56:22Z</time></trkpt><trkpt lat="44.13732107308402" lon="10.295078339204784"><ele>827.0</ele><time>2026-05-03T16:56:23Z</time></trkpt><trkpt lat="44.1374116480874" lon="10.294971298885773"><ele>827.0</ele><time>2026-05-03T16:56:25Z</time></trkpt><trkpt lat="44.13748601195722" lon="10.294911900261674"><ele>827.0</ele><time>2026-05-03T16:56:26Z</time></trkpt><trkpt lat="44.1375665413549" lon="10.294859280219626"><ele>827.0</ele><time>2026-05-03T16:56:27Z</time></trkpt><trkpt lat="44.13764020670893" lon="10.294832944130528"><ele>832.25</ele><time>2026-05-03T16:56:28Z</time></trkpt><trkpt lat="44.137794319242666" lon="10.29470705448711"><ele>837.5</ele><time>2026-05-03T16:56:29Z</time></trkpt><trkpt lat="44.13786840424799" lon="10.294603726076078"><ele>842.75</ele><time>2026-05-03T16:56:30Z</time></trkpt><trkpt lat="44.13796116115691" lon="10.29444652327278"><ele>848.0</ele><time>2026-05-03T16:56:31Z</time></trkpt><trkpt lat="44.13799198622583" lon="10.294345448979842"><ele>848.0</ele><time>2026-05-03T16:56:32Z</time></trkpt><trkpt lat="44.13804196230773" lon="10.294229501498004"><ele>848.0</ele><time>2026-05-03T16:56:33Z</time></trkpt><trkpt lat="44.13813968101897" lon="10.294117842008843"><ele>848.0</ele><time>2026-05-03T16:56:34Z</time></trkpt><trkpt lat="44.13822266033333" lon="10.29402566283645"><ele>848.0</ele><time>2026-05-03T16:56:35Z</time></trkpt><trkpt lat="44.1382719795893" lon="10.293927164483597"><ele>848.0</ele><time>2026-05-03T16:56:37Z</time></trkpt><trkpt lat="44.13834963340291" lon="10.293828357941445"><ele>846.2857142857143</ele><time>2026-05-03T16:56:39Z</time></trkpt><trkpt lat="44.138415371451295" lon="10.293790590343166"><ele>844.5714285714286</ele><time>2026-05-03T16:56:41Z</time></trkpt><trkpt lat="44.138468039542694" lon="10.293726478201064"><ele>842.8571428571429</ele><time>2026-05-03T16:56:43Z</time></trkpt><trkpt lat="44.13850575406201" lon="10.293646358841599"><ele>841.1428571428571</ele><time>2026-05-03T16:56:44Z</time></trkpt><trkpt lat="44.1385636144451" lon="10.293530035279021"><ele>839.4285714285713</ele><time>2026-05-03T16:56:46Z</time></trkpt><trkpt lat="44.138596719562734" lon="10.293454898497773"><ele>837.7142857142857</ele><time>2026-05-03T16:56:49Z</time></trkpt><trkpt lat="44.138640881028955" lon="10.293389246418986"><ele>836.0</ele><time>2026-05-03T16:57:42.999Z</time></trkpt><trkpt lat="44.138694801105" lon="10.293330530593494"><ele>836.0</ele><time>2026-05-03T16:57:49.999Z</time></trkpt><trkpt lat="44.138777577632126" lon="10.293347462765551"><ele>836.0</ele><time>2026-05-03T16:57:52.999Z</time></trkpt><trkpt lat="44.13884808361601" lon="10.29341867516146"><ele>836.0</ele><time>2026-05-03T16:57:54.999Z</time></trkpt><trkpt lat="44.1389245195201" lon="10.293508372531953"><ele>836.0</ele><time>2026-05-03T16:57:56.999Z</time></trkpt><trkpt lat="44.139064246876416" lon="10.293566030730139"><ele>836.0</ele><time>2026-05-03T16:57:57.999Z</time></trkpt><trkpt lat="44.13917665811774" lon="10.29372224170396"><ele>833.3333333333334</ele><time>2026-05-03T16:57:58.999Z</time></trkpt><trkpt lat="44.13927370770189" lon="10.29381018897506"><ele>830.6666666666667</ele><time>2026-05-03T16:57:59.999Z</time></trkpt><trkpt lat="44.139345657464574" lon="10.293851106256888"><ele>828.0</ele><time>2026-05-03T16:58:00.999Z</time></trkpt><trkpt lat="44.13941381975514" lon="10.29382884703695"><ele>825.3333333333333</ele><time>2026-05-03T16:58:01.999Z</time></trkpt><trkpt lat="44.13948163504887" lon="10.293804974127218"><ele>822.6666666666666</ele><time>2026-05-03T16:58:04Z</time></trkpt><trkpt lat="44.13957515434828" lon="10.29380416757508"><ele>820.0</ele><time>2026-05-03T16:58:08Z</time></trkpt><trkpt lat="44.139675941459615" lon="10.293795854889872"><ele>820.0</ele><time>2026-05-03T16:58:09Z</time></trkpt><trkpt lat="44.13979978537692" lon="10.293785080313512"><ele>820.0</ele><time>2026-05-03T16:58:10Z</time></trkpt><trkpt lat="44.139942860259474" lon="10.293780121065103"><ele>820.0</ele><time>2026-05-03T16:58:11Z</time></trkpt><trkpt lat="44.140061063002975" lon="10.293787080923673"><ele>820.0</ele><time>2026-05-03T16:58:12Z</time></trkpt><trkpt lat="44.140171088634276" lon="10.293780404022534"><ele>819.4</ele><time>2026-05-03T16:58:13Z</time></trkpt><trkpt lat="44.140286976382214" lon="10.293772248431292"><ele>818.8</ele><time>2026-05-03T16:58:14Z</time></trkpt><trkpt lat="44.14038653240697" lon="10.293733029340526"><ele>818.2</ele><time>2026-05-03T16:58:15Z</time></trkpt><trkpt lat="44.1404689336689" lon="10.293803077097555"><ele>817.6</ele><time>2026-05-03T16:58:16Z</time></trkpt><trkpt lat="44.1405654706414" lon="10.293832278371776"><ele>817.0</ele><time>2026-05-03T16:58:17Z</time></trkpt><trkpt lat="44.14064737440837" lon="10.293800568851179"><ele>817.0</ele><time>2026-05-03T16:58:18Z</time></trkpt><trkpt lat="44.14050698086807" lon="10.293887290095235"><ele>817.0</ele><time>2026-05-03T16:58:20Z</time></trkpt><trkpt lat="44.14049322100515" lon="10.294006447479802"><ele>817.0</ele><time>2026-05-03T16:58:21Z</time></trkpt><trkpt lat="44.14047394560355" lon="10.294114550385412"><ele>817.0</ele><time>2026-05-03T16:58:23Z</time></trkpt><trkpt lat="44.140447119489124" lon="10.294235585887316"><ele>817.0</ele><time>2026-05-03T16:58:25Z</time></trkpt><trkpt lat="44.1407631480743" lon="10.294779278495193"><ele>819.5</ele><time>2026-05-03T16:58:28Z</time></trkpt><trkpt lat="44.14095805303734" lon="10.294397929595025"><ele>822.0</ele><time>2026-05-03T16:58:29Z</time></trkpt><trkpt lat="44.141143101060706" lon="10.294784141632718"><ele>822.0</ele><time>2026-05-03T16:58:32Z</time></trkpt><trkpt lat="44.14126477663088" lon="10.294948141927554"><ele>822.0</ele><time>2026-05-03T16:58:33Z</time></trkpt><trkpt lat="44.14139108359581" lon="10.295122141149827"><ele>822.0</ele><time>2026-05-03T16:58:34Z</time></trkpt><trkpt lat="44.14151600483154" lon="10.295303174993371"><ele>840.0</ele><time>2026-05-03T16:58:35Z</time></trkpt><trkpt lat="44.141947937890315" lon="10.295104611110583"><ele>840.0</ele><time>2026-05-03T16:58:36Z</time></trkpt><trkpt lat="44.14202049287614" lon="10.29526387675031"><ele>840.0</ele><time>2026-05-03T16:58:37Z</time></trkpt><trkpt lat="44.142081132158786" lon="10.295435675044727"><ele>840.0</ele><time>2026-05-03T16:58:38Z</time></trkpt><trkpt lat="44.14214772679236" lon="10.295696269695219"><ele>834.6666666666667</ele><time>2026-05-03T16:58:40Z</time></trkpt><trkpt lat="44.14211499095936" lon="10.296020382469672"><ele>829.3333333333334</ele><time>2026-05-03T16:58:41Z</time></trkpt><trkpt lat="44.14202148210034" lon="10.296227332001083"><ele>824.0</ele><time>2026-05-03T16:58:42Z</time></trkpt><trkpt lat="44.141930104264766" lon="10.296399332506253"><ele>824.75</ele><time>2026-05-03T16:58:43Z</time></trkpt><trkpt lat="44.14185374129279" lon="10.296537495039338"><ele>825.5</ele><time>2026-05-03T16:58:44Z</time></trkpt><trkpt lat="44.14180134638055" lon="10.29666830304029"><ele>826.25</ele><time>2026-05-03T16:58:45Z</time></trkpt><trkpt lat="44.14175645359156" lon="10.296768634863906"><ele>827.0</ele><time>2026-05-03T16:58:46Z</time></trkpt><trkpt lat="44.14184951403756" lon="10.2969807604753"><ele>827.0</ele><time>2026-05-03T16:58:47Z</time></trkpt><trkpt lat="44.141871956229366" lon="10.29712955447434"><ele>827.0</ele><time>2026-05-03T16:58:48Z</time></trkpt><trkpt lat="44.141868591003785" lon="10.297255394418821"><ele>827.0</ele><time>2026-05-03T16:58:49Z</time></trkpt><trkpt lat="44.14182930896618" lon="10.29735549236143"><ele>827.0</ele><time>2026-05-03T16:58:50Z</time></trkpt><trkpt lat="44.1417531034806" lon="10.297491959023466"><ele>827.0</ele><time>2026-05-03T16:58:51Z</time></trkpt><trkpt lat="44.14169691566348" lon="10.29763997415224"><ele>828.75</ele><time>2026-05-03T16:58:52Z</time></trkpt><trkpt lat="44.14164282564681" lon="10.297786828204393"><ele>830.5</ele><time>2026-05-03T16:58:53Z</time></trkpt><trkpt lat="44.141604953131356" lon="10.297966531130868"><ele>832.25</ele><time>2026-05-03T16:58:54Z</time></trkpt><trkpt lat="44.14155291600327" lon="10.298136661750693"><ele>834.0</ele><time>2026-05-03T16:58:55Z</time></trkpt><trkpt lat="44.14151783957163" lon="10.298260826315703"><ele>828.75</ele><time>2026-05-03T16:58:56Z</time></trkpt><trkpt lat="44.14150230585474" lon="10.298387554590558"><ele>823.5</ele><time>2026-05-03T16:58:57Z</time></trkpt><trkpt lat="44.14150116397933" lon="10.298561171790736"><ele>818.25</ele><time>2026-05-03T16:58:58Z</time></trkpt><trkpt lat="44.14147852013155" lon="10.298795292040076"><ele>813.0</ele><time>2026-05-03T16:58:59Z</time></trkpt><trkpt lat="44.141465598535426" lon="10.298974974000762"><ele>812.5999999999999</ele><time>2026-05-03T16:59:00Z</time></trkpt><trkpt lat="44.14144553275031" lon="10.29910664892107"><ele>812.1999999999999</ele><time>2026-05-03T16:59:01Z</time></trkpt><trkpt lat="44.14141422983267" lon="10.29920382638689"><ele>811.8</ele><time>2026-05-03T16:59:02Z</time></trkpt><trkpt lat="44.141369821517046" lon="10.29934915490633"><ele>811.4</ele><time>2026-05-03T16:59:03Z</time></trkpt><trkpt lat="44.14132325552004" lon="10.299565895051467"><ele>811.0</ele><time>2026-05-03T16:59:04Z</time></trkpt><trkpt lat="44.141287441750734" lon="10.299826859703872"><ele>811.25</ele><time>2026-05-03T16:59:04.999Z</time></trkpt><trkpt lat="44.14124721169999" lon="10.300067337292562"><ele>811.5</ele><time>2026-05-03T16:59:05.999Z</time></trkpt><trkpt lat="44.14121939642278" lon="10.300264308490926"><ele>811.75</ele><time>2026-05-03T16:59:06.999Z</time></trkpt><trkpt lat="44.14121405333977" lon="10.300413766815133"><ele>812.0</ele><time>2026-05-03T16:59:07.999Z</time></trkpt><trkpt lat="44.14112059871147" lon="10.300628149175374"><ele>812.0</ele><time>2026-05-03T16:59:09.999Z</time></trkpt><trkpt lat="44.141053842673855" lon="10.3007714191194"><ele>812.0</ele><time>2026-05-03T16:59:10.999Z</time></trkpt><trkpt lat="44.14096547227843" lon="10.30093525583404"><ele>812.0</ele><time>2026-05-03T16:59:11.999Z</time></trkpt><trkpt lat="44.14090839173953" lon="10.30110964864281"><ele>812.0</ele><time>2026-05-03T16:59:12.999Z</time></trkpt><trkpt lat="44.14087292581172" lon="10.301218232280299"><ele>812.0000000000001</ele><time>2026-05-03T16:59:13.999Z</time></trkpt><trkpt lat="44.14082824676912" lon="10.30129603670109"><ele>812.0</ele><time>2026-05-03T16:59:14.999Z</time></trkpt><trkpt lat="44.140793213392406" lon="10.301377290852676"><ele>812.0</ele><time>2026-05-03T16:59:15.999Z</time></trkpt><trkpt lat="44.14077948431881" lon="10.301535716343057"><ele>812.0</ele><time>2026-05-03T16:59:16.999Z</time></trkpt><trkpt lat="44.140732401249124" lon="10.301678314647942"><ele>812.0000000000001</ele><time>2026-05-03T16:59:17.999Z</time></trkpt><trkpt lat="44.14070119700249" lon="10.301777438208214"><ele>812.0</ele><time>2026-05-03T16:59:18.999Z</time></trkpt><trkpt lat="44.140627837251984" lon="10.301875931149677"><ele>808.8333333333334</ele><time>2026-05-03T16:59:19.999Z</time></trkpt><trkpt lat="44.14055531973476" lon="10.301985949618526"><ele>805.6666666666667</ele><time>2026-05-03T16:59:20.999Z</time></trkpt><trkpt lat="44.14049736649691" lon="10.302071477616098"><ele>802.5</ele><time>2026-05-03T16:59:21.999Z</time></trkpt><trkpt lat="44.14043770093896" lon="10.30214758825165"><ele>799.3333333333333</ele><time>2026-05-03T16:59:22.999Z</time></trkpt><trkpt lat="44.1403909492007" lon="10.30221336313075"><ele>796.1666666666666</ele><time>2026-05-03T16:59:23.999Z</time></trkpt><trkpt lat="44.14035589970136" lon="10.302292241561922"><ele>793.0</ele><time>2026-05-03T16:59:24.999Z</time></trkpt><trkpt lat="44.140329868430634" lon="10.30239734211376"><ele>793.0</ele><time>2026-05-03T16:59:25.999Z</time></trkpt><trkpt lat="44.140313086053006" lon="10.302497994923979"><ele>793.0</ele><time>2026-05-03T16:59:26.999Z</time></trkpt><trkpt lat="44.140250250454905" lon="10.302631392570385"><ele>793.0</ele><time>2026-05-03T16:59:28.999Z</time></trkpt><trkpt lat="44.14020340278624" lon="10.302717646106894"><ele>793.0</ele><time>2026-05-03T16:59:29.999Z</time></trkpt><trkpt lat="44.14014339594647" lon="10.302895804863724"><ele>793.0</ele><time>2026-05-03T16:59:31.999Z</time></trkpt><trkpt lat="44.1401216954809" lon="10.303019265952729"><ele>791.8</ele><time>2026-05-03T16:59:33.999Z</time></trkpt><trkpt lat="44.14004070147392" lon="10.303143602014655"><ele>790.5999999999999</ele><time>2026-05-03T16:59:35.999Z</time></trkpt><trkpt lat="44.13997188188096" lon="10.30321252167774"><ele>789.4000000000001</ele><time>2026-05-03T16:59:37.999Z</time></trkpt><trkpt lat="44.13988079998153" lon="10.303187580749952"><ele>788.2</ele><time>2026-05-03T17:00:24Z</time></trkpt><trkpt lat="44.13981774541225" lon="10.303126557578194"><ele>787.0</ele><time>2026-05-03T17:00:28Z</time></trkpt><trkpt lat="44.139799856449514" lon="10.303023291496514"><ele>785.4999999999999</ele><time>2026-05-03T17:00:30Z</time></trkpt><trkpt lat="44.139734111224875" lon="10.303046497040608"><ele>784.0</ele><time>2026-05-03T17:00:32Z</time></trkpt><trkpt lat="44.13973062909465" lon="10.303162068256198"><ele>782.5</ele><time>2026-05-03T17:00:34Z</time></trkpt><trkpt lat="44.13970803096528" lon="10.303255102583218"><ele>781.0</ele><time>2026-05-03T17:00:36Z</time></trkpt><trkpt lat="44.139733701988845" lon="10.303370807147095"><ele>779.4999999999999</ele><time>2026-05-03T17:00:38Z</time></trkpt><trkpt lat="44.13970380225543" lon="10.30349207199096"><ele>778.0</ele><time>2026-05-03T17:00:40Z</time></trkpt><trkpt lat="44.13972456471409" lon="10.303617230403292"><ele>776.6666666666666</ele><time>2026-05-03T17:00:42Z</time></trkpt><trkpt lat="44.139744691213465" lon="10.303735804140672"><ele>775.3333333333333</ele><time>2026-05-03T17:00:46Z</time></trkpt><trkpt lat="44.13971997418878" lon="10.30382556331095"><ele>774.0</ele><time>2026-05-03T17:00:48Z</time></trkpt><trkpt lat="44.13967010354709" lon="10.303883069896731"><ele>772.6666666666667</ele><time>2026-05-03T17:00:51Z</time></trkpt><trkpt lat="44.13958262440888" lon="10.30385716128019"><ele>771.3333333333334</ele><time>2026-05-03T17:00:55Z</time></trkpt><trkpt lat="44.139544509107424" lon="10.303928869349228"><ele>770.0</ele><time>2026-05-03T17:00:59Z</time></trkpt><trkpt lat="44.13950764858024" lon="10.304060419448916"><ele>768.0000000000001</ele><time>2026-05-03T17:01:01Z</time></trkpt><trkpt lat="44.139526453404656" lon="10.30418674934324"><ele>766.0</ele><time>2026-05-03T17:01:03Z</time></trkpt><trkpt lat="44.13953162880508" lon="10.304281200674861"><ele>764.0</ele><time>2026-05-03T17:01:05Z</time></trkpt><trkpt lat="44.139521080594875" lon="10.304412422434226"><ele>762.0</ele><time>2026-05-03T17:01:08Z</time></trkpt><trkpt lat="44.139455113558306" lon="10.304466175088976"><ele>760.0</ele><time>2026-05-03T17:01:11Z</time></trkpt><trkpt lat="44.13943183821592" lon="10.304561349575426"><ele>758.0</ele><time>2026-05-03T17:01:14Z</time></trkpt><trkpt lat="44.13938508330978" lon="10.30465981484997"><ele>758.0</ele><time>2026-05-03T17:01:17Z</time></trkpt><trkpt lat="44.139367128087926" lon="10.304744201464857"><ele>758.0</ele><time>2026-05-03T17:01:19Z</time></trkpt><trkpt lat="44.13935406107808" lon="10.304874674444894"><ele>758.0</ele><time>2026-05-03T17:01:22Z</time></trkpt><trkpt lat="44.1393321035067" lon="10.304962907860004"><ele>758.0</ele><time>2026-05-03T17:01:24Z</time></trkpt><trkpt lat="44.1392630804483" lon="10.305066760897802"><ele>758.0</ele><time>2026-05-03T17:01:27Z</time></trkpt><trkpt lat="44.13919829449071" lon="10.30503761193334"><ele>758.0</ele><time>2026-05-03T17:01:29Z</time></trkpt><trkpt lat="44.13911880508625" lon="10.30504825687677"><ele>756.1666666666666</ele><time>2026-05-03T17:01:31.999Z</time></trkpt><trkpt lat="44.139067131292784" lon="10.304972140528998"><ele>754.3333333333333</ele><time>2026-05-03T17:01:33.999Z</time></trkpt><trkpt lat="44.13901786227724" lon="10.304877949250617"><ele>752.5</ele><time>2026-05-03T17:01:35.999Z</time></trkpt><trkpt lat="44.138968223492526" lon="10.304815223937933"><ele>750.6666666666666</ele><time>2026-05-03T17:01:36.999Z</time></trkpt><trkpt lat="44.138883636965495" lon="10.304782988067139"><ele>748.8333333333334</ele><time>2026-05-03T17:01:38.999Z</time></trkpt><trkpt lat="44.13876168374487" lon="10.304802215738624"><ele>747.0</ele><time>2026-05-03T17:01:41.999Z</time></trkpt><trkpt lat="44.1386756469822" lon="10.304782225999885"><ele>744.8333333333334</ele><time>2026-05-03T17:01:42.999Z</time></trkpt><trkpt lat="44.13857680657376" lon="10.3047610092525"><ele>742.6666666666666</ele><time>2026-05-03T17:01:43.999Z</time></trkpt><trkpt lat="44.13851435583914" lon="10.304789979099853"><ele>740.5</ele><time>2026-05-03T17:01:44.999Z</time></trkpt><trkpt lat="44.1384376347824" lon="10.304834925430875"><ele>738.3333333333333</ele><time>2026-05-03T17:01:45.999Z</time></trkpt><trkpt lat="44.138344801964436" lon="10.304855452192884"><ele>736.1666666666666</ele><time>2026-05-03T17:01:47.999Z</time></trkpt><trkpt lat="44.138277765888155" lon="10.30486796950982"><ele>734.0</ele><time>2026-05-03T17:01:48.999Z</time></trkpt><trkpt lat="44.13823845015707" lon="10.304958214532022"><ele>734.0</ele><time>2026-05-03T17:01:51.999Z</time></trkpt><trkpt lat="44.138228547491494" lon="10.305066068270966"><ele>734.0</ele><time>2026-05-03T17:01:53.999Z</time></trkpt><trkpt lat="44.13821648622028" lon="10.305163313943801"><ele>734.0</ele><time>2026-05-03T17:01:55.999Z</time></trkpt><trkpt lat="44.13817587251976" lon="10.30524485503622"><ele>734.0</ele><time>2026-05-03T17:01:57.999Z</time></trkpt><trkpt lat="44.138169607576465" lon="10.305350081388635"><ele>734.0</ele><time>2026-05-03T17:02:01.999Z</time></trkpt><trkpt lat="44.13817942440695" lon="10.305438515289211"><ele>734.0</ele><time>2026-05-03T17:02:03.999Z</time></trkpt><trkpt lat="44.13823324547376" lon="10.305516009944958"><ele>734.0</ele><time>2026-05-03T17:02:06.999Z</time></trkpt><trkpt lat="44.13824817197268" lon="10.305604431630861"><ele>731.0</ele><time>2026-05-03T17:02:09.999Z</time></trkpt><trkpt lat="44.13827694451661" lon="10.305706514018043"><ele>728.0</ele><time>2026-05-03T17:02:12.999Z</time></trkpt><trkpt lat="44.13833577043146" lon="10.30579436311665"><ele>725.0</ele><time>2026-05-03T17:02:17Z</time></trkpt><trkpt lat="44.13840016983948" lon="10.305871613157674"><ele>722.0</ele><time>2026-05-03T17:02:20Z</time></trkpt><trkpt lat="44.138471995185604" lon="10.305958621454774"><ele>719.0</ele><time>2026-05-03T17:02:23Z</time></trkpt><trkpt lat="44.13856395062978" lon="10.306070066532664"><ele>719.0</ele><time>2026-05-03T17:02:25Z</time></trkpt><trkpt lat="44.1386300412343" lon="10.30616401277525"><ele>719.0</ele><time>2026-05-03T17:02:26Z</time></trkpt><trkpt lat="44.13872241151892" lon="10.306207526731097"><ele>719.0</ele><time>2026-05-03T17:02:28Z</time></trkpt><trkpt lat="44.13882008942906" lon="10.30622788694275"><ele>719.0</ele><time>2026-05-03T17:02:29Z</time></trkpt><trkpt lat="44.138884229338196" lon="10.306240631953429"><ele>719.0</ele><time>2026-05-03T17:02:30Z</time></trkpt><trkpt lat="44.13892355184312" lon="10.30636872635161"><ele>716.6666666666666</ele><time>2026-05-03T17:02:32Z</time></trkpt><trkpt lat="44.13889664058984" lon="10.306474262407429"><ele>714.3333333333333</ele><time>2026-05-03T17:02:33Z</time></trkpt><trkpt lat="44.13886562471109" lon="10.306569486910448"><ele>712.0</ele><time>2026-05-03T17:02:34Z</time></trkpt><trkpt lat="44.138819630949556" lon="10.306642943168034"><ele>709.6666666666666</ele><time>2026-05-03T17:02:35Z</time></trkpt><trkpt lat="44.13876152563776" lon="10.306681881751514"><ele>707.3333333333334</ele><time>2026-05-03T17:02:36Z</time></trkpt><trkpt lat="44.13869647429183" lon="10.306704119163925"><ele>705.0</ele><time>2026-05-03T17:02:37Z</time></trkpt><trkpt lat="44.138615407419856" lon="10.306769224623869"><ele>705.0</ele><time>2026-05-03T17:02:39Z</time></trkpt><trkpt lat="44.13862315681725" lon="10.306927434736108"><ele>705.0</ele><time>2026-05-03T17:02:41Z</time></trkpt><trkpt lat="44.13865985642293" lon="10.307023620097176"><ele>705.0</ele><time>2026-05-03T17:02:42Z</time></trkpt><trkpt lat="44.13873281084466" lon="10.307152767971314"><ele>705.0</ele><time>2026-05-03T17:02:43Z</time></trkpt><trkpt lat="44.138800572537924" lon="10.30724588941105"><ele>705.0</ele><time>2026-05-03T17:02:44Z</time></trkpt><trkpt lat="44.13897828963273" lon="10.307243049342455"><ele>706.2</ele><time>2026-05-03T17:02:45Z</time></trkpt><trkpt lat="44.13905819683327" lon="10.307315811563603"><ele>707.4</ele><time>2026-05-03T17:02:46Z</time></trkpt><trkpt lat="44.13911945440183" lon="10.30736690890495"><ele>708.5999999999999</ele><time>2026-05-03T17:02:47Z</time></trkpt><trkpt lat="44.13914216754153" lon="10.307530725832374"><ele>709.8</ele><time>2026-05-03T17:02:48Z</time></trkpt><trkpt lat="44.1391517229235" lon="10.307640743860052"><ele>711.0</ele><time>2026-05-03T17:02:50Z</time></trkpt><trkpt lat="44.13912960683703" lon="10.307761195462207"><ele>711.0</ele><time>2026-05-03T17:02:52Z</time></trkpt><trkpt lat="44.13919148692308" lon="10.307862561394684"><ele>711.0</ele><time>2026-05-03T17:02:54Z</time></trkpt><trkpt lat="44.13921428516219" lon="10.30797164265178"><ele>711.0</ele><time>2026-05-03T17:02:55Z</time></trkpt><trkpt lat="44.139229628534885" lon="10.30806212581999"><ele>711.0</ele><time>2026-05-03T17:02:56Z</time></trkpt><trkpt lat="44.13921685016688" lon="10.308163025365067"><ele>711.0</ele><time>2026-05-03T17:02:57Z</time></trkpt><trkpt lat="44.13919831209865" lon="10.308299293619404"><ele>711.0</ele><time>2026-05-03T17:02:59Z</time></trkpt><trkpt lat="44.139172975643625" lon="10.308458743198972"><ele>708.5</ele><time>2026-05-03T17:03:01Z</time></trkpt><trkpt lat="44.13917505098784" lon="10.308652583273046"><ele>706.0</ele><time>2026-05-03T17:03:03Z</time></trkpt><trkpt lat="44.13911815789899" lon="10.308768655875804"><ele>703.5</ele><time>2026-05-03T17:03:04Z</time></trkpt><trkpt lat="44.13918024050322" lon="10.308859843935691"><ele>701.0</ele><time>2026-05-03T17:03:06Z</time></trkpt><trkpt lat="44.139261267926294" lon="10.308991828083132"><ele>700.4285714285714</ele><time>2026-05-03T17:03:07Z</time></trkpt><trkpt lat="44.13928310396642" lon="10.309106316298797"><ele>699.8571428571428</ele><time>2026-05-03T17:03:09Z</time></trkpt><trkpt lat="44.139250814409124" lon="10.30918780658852"><ele>699.2857142857142</ele><time>2026-05-03T17:03:11Z</time></trkpt><trkpt lat="44.13917366846319" lon="10.309212128443463"><ele>698.7142857142858</ele><time>2026-05-03T17:03:13Z</time></trkpt><trkpt lat="44.13912023737667" lon="10.309263349099336"><ele>698.1428571428571</ele><time>2026-05-03T17:03:15Z</time></trkpt><trkpt lat="44.13906971257325" lon="10.30935084032283"><ele>697.5714285714286</ele><time>2026-05-03T17:03:18Z</time></trkpt><trkpt lat="44.13903367189178" lon="10.30942556561901"><ele>697.0</ele><time>2026-05-03T17:03:22Z</time></trkpt><trkpt lat="44.13897255808974" lon="10.30948519509044"><ele>689.6666666666667</ele><time>2026-05-03T17:03:42Z</time></trkpt><trkpt lat="44.138986699454414" lon="10.309667355654259"><ele>682.3333333333334</ele><time>2026-05-03T17:03:43Z</time></trkpt><trkpt lat="44.13900786171963" lon="10.309903928480596"><ele>675.0</ele><time>2026-05-03T17:03:43.999Z</time></trkpt><trkpt lat="44.13902216692837" lon="10.310161684988273"><ele>673.6666666666666</ele><time>2026-05-03T17:03:44.999Z</time></trkpt><trkpt lat="44.13907145227563" lon="10.310076434122417"><ele>672.3333333333334</ele><time>2026-05-03T17:03:45.999Z</time></trkpt><trkpt lat="44.139053619868974" lon="10.310216182600248"><ele>671.0</ele><time>2026-05-03T17:03:46.999Z</time></trkpt><trkpt lat="44.13904184786819" lon="10.31035356637483"><ele>669.6666666666667</ele><time>2026-05-03T17:03:47.999Z</time></trkpt><trkpt lat="44.13903448238408" lon="10.310445110260213"><ele>668.3333333333334</ele><time>2026-05-03T17:03:48.999Z</time></trkpt><trkpt lat="44.13904984290264" lon="10.31056252912315"><ele>667.0</ele><time>2026-05-03T17:03:51.999Z</time></trkpt><trkpt lat="44.13906319661901" lon="10.310682626901325"><ele>674.0</ele><time>2026-05-03T17:03:52.999Z</time></trkpt><trkpt lat="44.139098202452395" lon="10.310801157602642"><ele>681.0</ele><time>2026-05-03T17:03:53.999Z</time></trkpt><trkpt lat="44.139131429002155" lon="10.310958716434483"><ele>688.0</ele><time>2026-05-03T17:03:54.999Z</time></trkpt><trkpt lat="44.139192368547924" lon="10.3111069939638"><ele>695.0</ele><time>2026-05-03T17:03:55.999Z</time></trkpt><trkpt lat="44.139282988108455" lon="10.311284106820652"><ele>697.0</ele><time>2026-05-03T17:03:56.999Z</time></trkpt><trkpt lat="44.13951405176669" lon="10.311644791466529"><ele>699.0</ele><time>2026-05-03T17:03:57.999Z</time></trkpt><trkpt lat="44.13967996478215" lon="10.311845451472875"><ele>699.0</ele><time>2026-05-03T17:03:58.999Z</time></trkpt><trkpt lat="44.13975730941412" lon="10.311996984154167"><ele>699.0</ele><time>2026-05-03T17:03:59.999Z</time></trkpt><trkpt lat="44.13977694724018" lon="10.312106743579202"><ele>699.0</ele><time>2026-05-03T17:04:00.999Z</time></trkpt><trkpt lat="44.13970385511981" lon="10.312151127095877"><ele>699.0</ele><time>2026-05-03T17:04:01.999Z</time></trkpt><trkpt lat="44.139617954394815" lon="10.312120391085458"><ele>699.0</ele><time>2026-05-03T17:04:02.999Z</time></trkpt><trkpt lat="44.13952230253202" lon="10.312218139106639"><ele>700.8000000000001</ele><time>2026-05-03T17:04:04.999Z</time></trkpt><trkpt lat="44.139478436857466" lon="10.312300136248979"><ele>702.6</ele><time>2026-05-03T17:04:05.999Z</time></trkpt><trkpt lat="44.13940570560369" lon="10.312296551535082"><ele>704.4</ele><time>2026-05-03T17:04:06.999Z</time></trkpt><trkpt lat="44.139347382766196" lon="10.31239290169191"><ele>706.2</ele><time>2026-05-03T17:04:07.999Z</time></trkpt><trkpt lat="44.13926110149177" lon="10.312529141966804"><ele>708.0</ele><time>2026-05-03T17:04:08.999Z</time></trkpt><trkpt lat="44.139197027152896" lon="10.31266111500386"><ele>708.0</ele><time>2026-05-03T17:04:09.999Z</time></trkpt><trkpt lat="44.13920978764133" lon="10.312804450022167"><ele>708.0</ele><time>2026-05-03T17:04:10.999Z</time></trkpt><trkpt lat="44.13916977746971" lon="10.312955975465988"><ele>708.0</ele><time>2026-05-03T17:04:11.999Z</time></trkpt><trkpt lat="44.139183577033265" lon="10.313046689785763"><ele>708.0</ele><time>2026-05-03T17:04:12.999Z</time></trkpt><trkpt lat="44.139189728321355" lon="10.313185143446436"><ele>708.0</ele><time>2026-05-03T17:04:13.999Z</time></trkpt><trkpt lat="44.13923565349001" lon="10.313302859199359"><ele>708.4</ele><time>2026-05-03T17:04:15.999Z</time></trkpt><trkpt lat="44.13933021931256" lon="10.313361878573412"><ele>708.8</ele><time>2026-05-03T17:04:16.999Z</time></trkpt><trkpt lat="44.13942672415187" lon="10.313356995171246"><ele>709.2</ele><time>2026-05-03T17:04:17.999Z</time></trkpt><trkpt lat="44.13956046164739" lon="10.313371925566724"><ele>709.6</ele><time>2026-05-03T17:04:19.999Z</time></trkpt><trkpt lat="44.13964779457038" lon="10.313377162210912"><ele>710.0</ele><time>2026-05-03T17:04:22Z</time></trkpt><trkpt lat="44.139711629648396" lon="10.313486484254815"><ele>710.0</ele><time>2026-05-03T17:04:43Z</time></trkpt><trkpt lat="44.13976750429124" lon="10.313556191820089"><ele>710.0</ele><time>2026-05-03T17:04:45Z</time></trkpt><trkpt lat="44.1398612187959" lon="10.313702878097557"><ele>710.0</ele><time>2026-05-03T17:04:47Z</time></trkpt><trkpt lat="44.139905159824636" lon="10.31382672451071"><ele>710.0</ele><time>2026-05-03T17:04:48Z</time></trkpt><trkpt lat="44.13995196998544" lon="10.313946820328711"><ele>710.0</ele><time>2026-05-03T17:04:50Z</time></trkpt><trkpt lat="44.14000606693528" lon="10.314028330022815"><ele>709.3333333333333</ele><time>2026-05-03T17:04:52Z</time></trkpt><trkpt lat="44.14010575871614" lon="10.31410473644196"><ele>708.6666666666666</ele><time>2026-05-03T17:04:55Z</time></trkpt><trkpt lat="44.14016553348377" lon="10.314136991303725"><ele>708.0</ele><time>2026-05-03T17:04:56Z</time></trkpt><trkpt lat="44.14020105190356" lon="10.314210348220215"><ele>707.3333333333334</ele><time>2026-05-03T17:04:59Z</time></trkpt><trkpt lat="44.14025010511917" lon="10.314298431692382"><ele>706.6666666666667</ele><time>2026-05-03T17:05:01Z</time></trkpt><trkpt lat="44.14031293235255" lon="10.314291642424848"><ele>706.0</ele><time>2026-05-03T17:05:05Z</time></trkpt><trkpt lat="44.14107437050851" lon="10.315268685417935"><ele>702.0</ele><time>2026-05-03T17:05:09Z</time></trkpt><trkpt lat="44.14118614374825" lon="10.315412447008878"><ele>698.0</ele><time>2026-05-03T17:05:10Z</time></trkpt><trkpt lat="44.1411529174589" lon="10.315575636964269"><ele>694.0</ele><time>2026-05-03T17:05:11Z</time></trkpt><trkpt lat="44.141265361618515" lon="10.31569854356233"><ele>690.0</ele><time>2026-05-03T17:05:13Z</time></trkpt><trkpt lat="44.1412977956242" lon="10.315860192783427"><ele>689.75</ele><time>2026-05-03T17:05:15Z</time></trkpt><trkpt lat="44.14135280597139" lon="10.31595698789443"><ele>689.5</ele><time>2026-05-03T17:05:16Z</time></trkpt><trkpt lat="44.14151526581932" lon="10.315993547295305"><ele>689.25</ele><time>2026-05-03T17:05:17Z</time></trkpt><trkpt lat="44.14158646796403" lon="10.316150036526164"><ele>689.0</ele><time>2026-05-03T17:05:18Z</time></trkpt><trkpt lat="44.14166606960652" lon="10.316221637425206"><ele>689.0</ele><time>2026-05-03T17:05:19Z</time></trkpt><trkpt lat="44.14174398663522" lon="10.316296055715489"><ele>689.0</ele><time>2026-05-03T17:05:20Z</time></trkpt><trkpt lat="44.14179798968364" lon="10.316360469979823"><ele>689.0</ele><time>2026-05-03T17:05:21Z</time></trkpt><trkpt lat="44.14151316945487" lon="10.316532111467037"><ele>683.25</ele><time>2026-05-03T17:05:25Z</time></trkpt><trkpt lat="44.141369322934835" lon="10.316599600694289"><ele>677.5</ele><time>2026-05-03T17:05:26Z</time></trkpt><trkpt lat="44.141230328953995" lon="10.31664040481717"><ele>671.75</ele><time>2026-05-03T17:05:27Z</time></trkpt><trkpt lat="44.141151277485676" lon="10.31664193016926"><ele>666.0</ele><time>2026-05-03T17:05:28Z</time></trkpt><trkpt lat="44.14105777318239" lon="10.316623047971305"><ele>678.0</ele><time>2026-05-03T17:05:30Z</time></trkpt><trkpt lat="44.14056992718762" lon="10.315803385307266"><ele>678.0</ele><time>2026-05-03T17:05:31Z</time></trkpt><trkpt lat="44.14061153467825" lon="10.315951857085215"><ele>678.0</ele><time>2026-05-03T17:05:32Z</time></trkpt><trkpt lat="44.140649780165916" lon="10.316075821887686"><ele>678.0</ele><time>2026-05-03T17:05:33Z</time></trkpt><trkpt lat="44.14070336841159" lon="10.316137401389108"><ele>678.0</ele><time>2026-05-03T17:05:34Z</time></trkpt><trkpt lat="44.140796346580835" lon="10.316255448781957"><ele>678.0</ele><time>2026-05-03T17:05:35Z</time></trkpt><trkpt lat="44.14084944806066" lon="10.316387212501958"><ele>676.0</ele><time>2026-05-03T17:05:36Z</time></trkpt><trkpt lat="44.14085196291809" lon="10.316485470623908"><ele>674.0</ele><time>2026-05-03T17:05:37Z</time></trkpt><trkpt lat="44.14089803624522" lon="10.316558976319154"><ele>672.0</ele><time>2026-05-03T17:05:38Z</time></trkpt><trkpt lat="44.140968929584595" lon="10.316566146481641"><ele>670.0</ele><time>2026-05-03T17:05:41Z</time></trkpt><trkpt lat="44.14103265120905" lon="10.316529475152569"><ele>668.0</ele><time>2026-05-03T17:05:42Z</time></trkpt><trkpt lat="44.14111658371287" lon="10.316539122124206"><ele>666.0</ele><time>2026-05-03T17:05:43.999Z</time></trkpt><trkpt lat="44.1411650525231" lon="10.316661201668643"><ele>666.0</ele><time>2026-05-03T17:05:45.999Z</time></trkpt><trkpt lat="44.141142739915985" lon="10.316748984832467"><ele>666.0</ele><time>2026-05-03T17:05:52.999Z</time></trkpt><trkpt lat="44.141144522666764" lon="10.316876537414315"><ele>666.0</ele><time>2026-05-03T17:05:55.999Z</time></trkpt><trkpt lat="44.141189274284415" lon="10.316975347914113"><ele>666.0</ele><time>2026-05-03T17:06:01.999Z</time></trkpt><trkpt lat="44.14124857825126" lon="10.317076783591746"><ele>666.0</ele><time>2026-05-03T17:06:04.999Z</time></trkpt><trkpt lat="44.14129256901179" lon="10.317147585972595"><ele>666.0</ele><time>2026-05-03T17:06:06.999Z</time></trkpt><trkpt lat="44.141338110012136" lon="10.31723309372032"><ele>666.0</ele><time>2026-05-03T17:06:08.999Z</time></trkpt><trkpt lat="44.14142084278863" lon="10.317343152068633"><ele>650.0</ele><time>2026-05-03T17:06:12.999Z</time></trkpt><trkpt lat="44.141507280876105" lon="10.317444641663695"><ele>650.0</ele><time>2026-05-03T17:06:42Z</time></trkpt><trkpt lat="44.141566664078795" lon="10.317404822909479"><ele>660.0</ele><time>2026-05-03T17:06:46Z</time></trkpt><trkpt lat="44.14164300982388" lon="10.317393948782053"><ele>660.0</ele><time>2026-05-03T17:06:49Z</time></trkpt></trkseg></trk></gpx>